[[{"header":{"parameterUnit":"m.s-1","parameterCategory":1,"la1":30.6,"la2":28.766,"lo1":-90.7593,"lo2":-88.6598,"dy":0.0162,"dx":0.0183,"nx":116,"ny":114,"refTime":"2024-02-21T06:00:00:Z","depth":0,"parameterNumber":2,"parameterNumberName":"U-component_of_WINDS"},"data":[0.0,0.0,0.0,0.0,0.0,0.0,0.0,0.0,0.0,0.0,0.0,0.0,0.0,0.0,0.0,0.0,0.0,0.0,0.0,0.0,0.0,0.0,0.0,0.0,0.0,0.0,0.0,0.0,0.0,0.0,0.0,0.0,0.0,0.0,0.0,0.0,0.0,0.0,0.0,0.0,0.0,0.0,0.0,0.0,0.0,0.0,0.0,0.0,0.0,0.0,0.0,0.0,0.0,0.0,0.0,0.0,0.0,0.0,0.0,0.0,0.0,0.0,0.0,0.0,0.0,0.0,0.0,0.0,0.0,0.0,0.0,0.0,0.0,0.0,0.0,0.0,0.0,0.0,0.0,0.0,0.0,0.0,0.0,0.0,0.0,0.0,0.0,0.0,0.0,0.0,0.0,0.0,0.0,0.0,0.0,0.0,0.0,0.0,0.0,0.0,0.0,0.0,0.0,0.0,0.0,0.0,0.0,0.0,0.0,0.0,0.0,0.0,0.0,0.0,0.0,0.0,0.0,0.0,0.0,0.0,0.0,0.0,0.0,0.0,0.0,0.0,0.0,0.0,0.0,0.0,0.0,0.0,0.0,0.0,0.0,0.0,0.0,0.0,0.0,0.0,0.0,0.0,0.0,0.0,0.0,0.0,0.0,0.0,0.0,0.0,0.0,0.0,0.0,0.0,0.0,0.0,0.0,0.0,0.0,0.0,0.0,0.0,0.0,0.0,0.0,0.0,0.0,0.0,0.0,0.0,0.0,0.0,0.0,0.0,0.0,0.0,0.0,0.0,0.0,0.0,0.0,0.0,0.0,0.0,0.0,0.0,0.0,0.0,0.0,0.0,0.0,0.0,0.0,0.0,0.0,0.0,0.0,0.0,0.0,0.0,0.0,0.0,0.0,0.0,0.0,0.0,0.0,0.0,0.0,0.0,0.0,0.0,0.0,0.0,0.0,0.0,0.0,0.0,0.0,0.0,0.0,0.0,0.0,0.0,0.0,0.0,0.0,0.0,0.0,0.0,0.0,0.0,0.0,0.0,0.0,0.0,0.0,0.0,0.0,0.0,0.0,0.0,0.0,0.0,0.0,0.0,0.0,0.0,0.0,0.0,0.0,0.0,0.0,0.0,0.0,0.0,0.0,0.0,0.0,0.0,0.0,0.0,0.0,0.0,0.0,0.0,0.0,0.0,0.0,0.0,0.0,0.0,0.0,0.0,0.0,0.0,0.0,0.0,0.0,0.0,0.0,0.0,0.0,0.0,0.0,0.0,0.0,0.0,0.0,0.0,0.0,0.0,0.0,0.0,0.0,0.0,0.0,0.0,0.0,0.0,0.0,0.0,0.0,0.0,0.0,0.0,0.0,0.0,0.0,0.0,0.0,0.0,0.0,0.0,0.0,0.0,0.0,0.0,0.0,0.0,0.0,0.0,0.0,0.0,0.0,0.0,0.0,0.0,0.0,0.0,0.0,0.0,0.0,0.0,0.0,0.0,0.0,0.0,0.0,0.0,0.0,0.0,0.0,0.0,0.0,0.0,0.0,0.0,0.0,0.0,0.0,0.0,0.0,0.0,0.0,0.0,0.0,0.0,0.0,0.0,0.0,0.0,0.0,0.0,0.0,0.0,0.0,0.0,0.0,0.0,0.0,0.0,0.0,0.0,0.0,0.0,0.0,0.0,0.0,0.0,0.0,0.0,0.0,0.0,0.0,0.0,0.0,0.0,0.0,0.0,0.0,0.0,0.0,0.0,0.0,0.0,0.0,0.0,0.0,0.0,0.0,0.0,0.0,0.0,0.0,0.0,0.0,0.0,0.0,0.0,0.0,0.0,0.0,0.0,0.0,0.0,0.0,0.0,0.0,0.0,0.0,0.0,0.0,0.0,0.0,0.0,0.0,0.0,0.0,0.0,0.0,0.0,0.0,0.0,0.0,0.0,0.0,0.0,0.0,0.0,0.0,0.0,0.0,0.0,0.0,0.0,0.0,0.0,0.0,0.0,0.0,0.0,0.0,0.0,0.0,0.0,0.0,0.0,0.0,0.0,0.0,0.0,0.0,0.0,0.0,0.0,0.0,0.0,0.0,0.0,0.0,0.0,0.0,0.0,0.0,0.0,0.0,0.0,0.0,0.0,0.0,0.0,0.0,0.0,0.0,0.0,0.0,0.0,0.0,0.0,0.0,0.0,0.0,0.0,0.0,0.0,0.0,0.0,0.0,0.0,0.0,0.0,0.0,0.0,0.0,0.0,0.0,0.0,0.0,0.0,0.0,0.0,0.0,0.0,0.0,0.0,0.0,0.0,0.0,0.0,0.0,0.0,0.0,0.0,0.0,0.0,0.0,0.0,0.0,0.0,0.0,0.0,0.0,0.0,0.0,0.0,0.0,0.0,0.0,0.0,0.0,0.0,0.0,0.0,0.0,0.0,0.0,0.0,0.0,0.0,0.0,0.0,0.0,0.0,0.0,0.0,0.0,0.0,0.0,0.0,0.0,0.0,0.0,0.0,0.0,0.0,0.0,0.0,0.0,0.0,0.0,0.0,0.0,0.0,0.0,0.0,0.0,0.0,0.0,0.0,0.0,0.0,0.0,0.0,0.0,0.0,0.0,0.0,0.0,0.0,0.0,0.0,0.0,0.0,0.0,0.0,0.0,0.0,0.0,0.0,0.0,0.0,0.0,0.0,0.0,0.0,0.0,0.0,0.0,0.0,0.0,0.0,0.0,0.0,0.0,0.0,0.0,0.0,0.0,0.0,0.0,0.0,0.0,0.0,0.0,0.0,0.0,0.0,0.0,0.0,0.0,0.0,0.0,0.0,0.0,0.0,0.0,0.0,0.0,0.0,0.0,0.0,0.0,0.0,0.0,0.0,0.0,0.0,0.0,0.0,0.0,0.0,0.0,0.0,0.0,0.0,0.0,0.0,0.0,0.0,0.0,0.0,0.0,0.0,0.0,0.0,0.0,0.0,0.0,0.0,0.0,0.0,0.0,0.0,0.0,0.0,0.0,0.0,0.0,0.0,0.0,0.0,0.0,0.0,0.0,0.0,0.0,0.0,0.0,0.0,0.0,0.0,0.0,0.0,0.0,0.0,0.0,0.0,0.0,0.0,0.0,0.0,0.0,0.0,0.0,0.0,0.0,0.0,0.0,0.0,0.0,0.0,0.0,0.0,0.0,0.0,0.0,0.0,0.0,0.0,0.0,0.0,0.0,0.0,0.0,0.0,0.0,0.0,0.0,0.0,0.0,0.0,0.0,0.0,0.0,0.0,0.0,0.0,0.0,0.0,0.0,0.0,0.0,0.0,0.0,0.0,0.0,0.0,0.0,0.0,0.0,0.0,0.0,0.0,0.0,0.0,0.0,0.0,0.0,0.0,0.0,0.0,0.0,0.0,0.0,0.0,0.0,0.0,0.0,0.0,0.0,0.0,0.0,0.0,0.0,0.0,0.0,0.0,0.0,0.0,0.0,0.0,0.0,0.0,0.0,0.0,0.0,0.0,0.0,0.0,0.0,0.0,0.0,0.0,0.0,0.0,0.0,0.0,0.0,0.0,0.0,0.0,0.0,0.0,0.0,0.0,0.0,0.0,0.0,0.0,0.0,0.0,0.0,0.0,0.0,0.0,0.0,0.0,0.0,0.0,0.0,0.0,0.0,0.0,0.0,0.0,0.0,0.0,0.0,0.0,0.0,0.0,0.0,0.0,0.0,0.0,0.0,0.0,0.0,0.0,0.0,0.0,0.0,0.0,0.0,0.0,0.0,0.0,0.0,0.0,0.0,0.0,0.0,0.0,0.0,0.0,0.0,0.0,0.0,0.0,0.0,0.0,0.0,0.0,0.0,0.0,0.0,0.0,0.0,0.0,0.0,0.0,0.0,0.0,0.0,0.0,0.0,0.0,0.0,0.0,0.0,0.0,0.0,0.0,0.0,0.0,0.0,0.0,0.0,0.0,0.0,0.0,0.0,0.0,0.0,0.0,0.0,0.0,0.0,0.0,0.0,0.0,0.0,0.0,0.0,0.0,0.0,0.0,0.0,0.0,0.0,0.0,0.0,0.0,0.0,0.0,0.0,0.0,0.0,0.0,0.0,0.0,0.0,0.0,0.0,0.0,0.0,0.0,0.0,0.0,0.0,0.0,0.0,0.0,0.0,0.0,0.0,0.0,0.0,0.0,0.0,0.0,0.0,0.0,0.0,0.0,0.0,0.0,0.0,0.0,0.0,0.0,0.0,0.0,0.0,0.0,0.0,0.0,0.0,0.0,0.0,0.0,0.0,0.0,0.0,0.0,0.0,0.0,0.0,0.0,0.0,0.0,0.0,0.0,0.0,0.0,0.0,0.0,0.0,0.0,0.0,0.0,0.0,0.0,0.0,0.0,0.0,0.0,0.0,0.0,0.0,0.0,0.0,0.0,0.0,0.0,0.0,0.0,0.0,0.0,0.0,0.0,0.0,0.0,0.0,0.0,0.0,0.0,0.0,0.0,0.0,0.0,0.0,0.0,0.0,0.0,0.0,0.0,0.0,0.0,0.0,0.0,0.0,0.0,0.0,0.0,0.0,0.0,0.0,0.0,0.0,0.0,0.0,0.0,0.0,0.0,0.0,0.0,0.0,0.0,0.0,0.0,0.0,0.0,0.0,0.0,0.0,0.0,0.0,0.0,0.0,0.0,0.0,0.0,0.0,0.0,0.0,0.0,0.0,0.0,0.0,0.0,0.0,0.0,0.0,0.0,0.0,0.0,0.0,0.0,0.0,0.0,0.0,0.0,0.0,0.0,0.0,0.0,0.0,0.0,0.0,0.0,0.0,0.0,0.0,0.0,0.0,0.0,0.0,0.0,0.0,0.0,0.0,0.0,0.0,0.0,0.0,0.0,0.0,0.0,0.0,0.0,0.0,0.0,0.0,0.0,0.0,0.0,0.0,0.0,0.0,0.0,0.0,0.0,0.0,0.0,0.0,0.0,0.0,0.0,0.0,0.0,0.0,0.0,0.0,0.0,0.0,0.0,0.0,0.0,0.0,0.0,0.0,0.0,0.0,0.0,0.0,0.0,0.0,0.0,0.0,0.0,0.0,0.0,0.0,0.0,0.0,0.0,0.0,0.0,0.0,0.0,0.0,0.0,0.0,0.0,0.0,0.0,0.0,0.0,0.0,0.0,0.0,0.0,0.0,0.0,0.0,0.0,0.0,0.0,0.0,0.0,0.0,0.0,0.0,0.0,0.0,0.0,0.0,0.0,0.0,0.0,0.0,0.0,0.0,0.0,0.0,0.0,0.0,0.0,0.0,0.0,0.0,0.0,0.0,0.0,0.0,0.0,0.0,0.0,0.0,0.0,0.0,0.0,0.0,0.0,0.0,0.0,0.0,0.0,0.0,0.0,0.0,0.0,0.0,0.0,0.0,0.0,0.0,0.0,0.0,0.0,0.0,0.0,0.0,0.0,0.0,0.0,0.0,0.0,0.0,0.0,0.0,0.0,0.0,0.0,0.0,0.0,0.0,0.0,0.0,0.0,0.0,0.0,0.0,0.0,0.0,0.0,0.0,0.0,0.0,0.0,0.0,0.0,0.0,0.0,0.0,0.0,0.0,0.0,0.0,0.0,0.0,0.0,0.0,0.0,0.0,0.0,0.0,0.0,0.0,0.0,0.0,0.0,0.0,0.0,0.0,0.0,0.0,0.0,0.0,0.0,0.0,0.0,0.0,0.0,0.0,0.0,0.0,0.0,0.0,0.0,0.0,0.0,0.0,0.0,0.0,0.0,0.0,0.0,0.0,0.0,0.0,0.0,0.0,0.0,0.0,0.0,0.0,0.0,0.0,0.0,0.0,0.0,0.0,0.0,0.0,0.0,0.0,0.0,0.0,0.0,0.0,0.0,0.0,0.0,0.0,0.0,0.0,0.0,0.0,0.0,0.0,0.0,0.0,0.0,0.0,0.0,0.0,0.0,0.0,0.0,0.0,0.0,0.0,0.0,0.0,0.0,0.0,0.0,0.0,0.0,0.0,0.0,0.0,0.0,0.0,0.0,0.0,0.0,0.0,0.0,0.0,0.0,0.0,0.0,0.0,0.0,0.0,0.0,0.0,0.0,0.0,0.0,0.0,0.0,0.0,0.0,0.0,0.0,-4.0799,-3.99,0.0,0.0,0.0,0.0,0.0,0.0,0.0,0.0,0.0,0.0,0.0,0.0,0.0,0.0,0.0,0.0,0.0,0.0,0.0,0.0,0.0,0.0,0.0,0.0,0.0,0.0,-4.5594,-4.5594,-4.5594,-4.5594,-4.5594,-4.5594,-4.5594,-4.5594,-4.5594,-4.5594,-4.5594,-4.5594,-4.6009,-4.6644,-4.7471,-4.7009,-4.6355,-4.5509,0.0,0.0,0.0,0.0,0.0,0.0,0.0,0.0,0.0,0.0,0.0,0.0,0.0,0.0,0.0,0.0,0.0,0.0,0.0,0.0,0.0,0.0,0.0,0.0,0.0,0.0,0.0,0.0,0.0,0.0,0.0,0.0,0.0,0.0,0.0,0.0,0.0,0.0,0.0,0.0,0.0,0.0,0.0,0.0,0.0,0.0,0.0,0.0,0.0,0.0,0.0,0.0,0.0,0.0,0.0,0.0,0.0,0.0,0.0,0.0,0.0,0.0,0.0,0.0,0.0,0.0,0.0,0.0,0.0,0.0,-4.102,-4.0708,0.0,0.0,0.0,0.0,0.0,0.0,0.0,0.0,0.0,0.0,0.0,0.0,0.0,0.0,0.0,0.0,0.0,0.0,0.0,0.0,0.0,0.0,0.0,-4.5594,-4.5594,-4.5594,-4.5594,-4.5594,-4.5594,-4.5594,-4.5594,-4.5594,-4.5594,-4.5594,-4.5594,-4.5594,-4.5671,-4.5825,-4.6836,-4.7682,-4.8336,-4.8336,-4.7971,0.0,0.0,0.0,0.0,0.0,0.0,0.0,0.0,0.0,0.0,0.0,0.0,0.0,0.0,0.0,0.0,0.0,0.0,0.0,0.0,0.0,0.0,0.0,0.0,0.0,0.0,0.0,0.0,0.0,0.0,0.0,0.0,0.0,0.0,0.0,0.0,0.0,0.0,0.0,0.0,0.0,0.0,0.0,0.0,0.0,0.0,0.0,0.0,0.0,0.0,0.0,0.0,0.0,0.0,0.0,0.0,0.0,0.0,0.0,0.0,0.0,0.0,0.0,0.0,0.0,-4.1517,-4.1517,-4.1517,-4.1517,-4.1517,-4.1499,-4.137,-4.1682,-4.2194,-4.0873,0.0,0.0,0.0,0.0,0.0,0.0,0.0,0.0,0.0,0.0,0.0,0.0,0.0,0.0,0.0,0.0,0.0,0.0,0.0,0.0,0.0,-4.5594,-4.5594,-4.5594,-4.5594,-4.5594,-4.5594,-4.5594,-4.5594,-4.5594,-4.5594,-4.5594,-4.5594,-4.5594,-4.597,-4.674,-4.8298,-4.9125,-4.9221,-4.9221,-4.9163,-4.9029,-4.8048,0.0,0.0,0.0,0.0,0.0,0.0,0.0,0.0,0.0,0.0,0.0,0.0,0.0,0.0,0.0,0.0,0.0,0.0,0.0,0.0,0.0,0.0,0.0,0.0,0.0,0.0,0.0,0.0,0.0,0.0,0.0,0.0,0.0,0.0,0.0,0.0,0.0,0.0,0.0,0.0,0.0,0.0,0.0,-4.1554,-4.2092,0.0,0.0,0.0,0.0,0.0,0.0,0.0,0.0,0.0,0.0,0.0,0.0,0.0,-4.1315,-4.2139,-4.2139,-4.2488,-4.3167,-4.3167,-4.3167,-4.3167,-4.3167,-4.3167,-4.313,-4.2451,0.0,-4.2286,-4.2066,0.0,0.0,0.0,0.0,0.0,0.0,0.0,0.0,0.0,0.0,0.0,0.0,0.0,0.0,0.0,0.0,0.0,0.0,0.0,0.0,0.0,-4.6028,-4.6336,-4.6336,-4.674,-4.6817,-4.6355,-4.6336,-4.6105,-4.5614,-4.5594,-4.5594,-4.5594,-4.6086,-4.699,-4.8317,-4.9048,-4.9644,-5.0125,-5.0125,-5.0125,-5.0106,-4.9721,-4.8817,-4.7528,-4.6682,0.0,0.0,0.0,0.0,0.0,0.0,0.0,0.0,0.0,0.0,0.0,0.0,0.0,0.0,0.0,0.0,0.0,0.0,0.0,0.0,0.0,0.0,0.0,0.0,0.0,0.0,0.0,0.0,0.0,0.0,0.0,0.0,0.0,0.0,0.0,0.0,0.0,0.0,0.0,-4.1443,-4.2112,-4.2455,-4.1969,-4.1338,0.0,0.0,0.0,0.0,0.0,0.0,0.0,0.0,0.0,-4.1754,-4.1772,-4.2158,-4.2965,-4.2965,-4.3149,-4.3515,-4.3515,-4.3515,-4.3515,-4.3515,-4.3515,-4.3478,-4.313,-4.2965,-4.2928,-4.2488,-4.2304,-4.2231,0.0,0.0,0.0,0.0,-4.0579,-4.0616,0.0,0.0,0.0,0.0,0.0,0.0,0.0,0.0,0.0,0.0,0.0,0.0,-4.5932,-4.6701,-4.7212,-4.7212,-4.7759,-4.7759,-4.6942,-4.6904,-4.6509,-4.5633,-4.5594,-4.5594,-4.5594,-4.6663,-4.7932,-4.9394,-4.9625,-5.0048,-5.0712,-5.0712,-5.0712,-5.0712,-5.0712,-4.9721,-4.8067,-4.7471,-4.6586,0.0,0.0,0.0,0.0,0.0,0.0,0.0,0.0,0.0,0.0,0.0,0.0,0.0,0.0,0.0,0.0,0.0,0.0,0.0,0.0,0.0,0.0,0.0,0.0,0.0,0.0,0.0,0.0,0.0,0.0,0.0,0.0,0.0,0.0,0.0,0.0,0.0,0.0,-4.1786,-4.2487,-4.2777,-4.2393,-4.1918,0.0,0.0,0.0,0.0,0.0,0.0,-4.1389,-4.1407,-4.1882,-4.2892,-4.291,-4.3296,-4.4103,-4.4103,-4.4103,-4.4103,-4.4103,-4.4103,-4.4103,-4.4103,-4.4103,-4.4103,-4.4103,-4.4103,-4.4047,-4.302,-4.2598,-4.2598,-4.2378,-4.1937,-4.1407,-4.1407,-4.1407,-4.1425,0.0,0.0,0.0,0.0,0.0,0.0,0.0,0.0,0.0,0.0,0.0,-4.6827,-4.6827,-4.7567,-4.8048,-4.8048,-4.8086,-4.7759,-4.6942,-4.6904,-4.6509,-4.5633,-4.5594,-4.5594,-4.5594,-4.7201,-4.849,-4.9394,-5.0231,-5.0654,-5.0712,-5.0712,-5.0712,-5.0712,-5.0712,-4.9721,-4.8105,-4.8067,-4.7105,-4.546,0.0,0.0,0.0,0.0,0.0,0.0,0.0,0.0,0.0,0.0,0.0,0.0,0.0,0.0,0.0,0.0,0.0,0.0,0.0,0.0,0.0,0.0,0.0,0.0,0.0,0.0,0.0,0.0,0.0,0.0,0.0,0.0,0.0,0.0,0.0,0.0,0.0,0.0,0.0,-4.2748,-4.3153,0.0,0.0,0.0,0.0,-4.1095,-4.1077,-4.1425,-4.2194,-4.2249,-4.2965,-4.4526,-4.458,-4.4966,-4.5773,-4.5773,-4.5773,-4.5773,-4.5773,-4.5773,-4.5773,-4.5773,-4.5773,-4.5773,-4.5773,-4.5773,-4.5663,-4.4102,-4.3441,-4.3368,-4.2598,-4.2286,-4.2249,-4.2249,-4.2249,-4.2359,0.0,0.0,0.0,0.0,0.0,0.0,0.0,0.0,-4.5594,-4.5594,-4.6355,-4.6904,-4.6904,-4.8125,-4.8933,-4.8933,-4.9452,-4.9413,-4.8567,-4.799,-4.7298,-4.6471,-4.5893,-4.6095,-4.7182,-4.8336,-4.9356,-5.025,-5.0558,-5.0712,-5.0712,-5.0712,-5.0712,-5.0712,-5.0712,-5.0029,-4.8894,-4.8336,-4.7471,-4.6297,-4.4566,-4.3566,0.0,0.0,0.0,0.0,0.0,0.0,0.0,0.0,0.0,0.0,0.0,0.0,0.0,0.0,0.0,0.0,0.0,0.0,0.0,0.0,0.0,0.0,0.0,0.0,0.0,0.0,0.0,0.0,0.0,0.0,0.0,0.0,0.0,0.0,0.0,0.0,0.0,-4.2733,-4.2767,0.0,-4.2323,-4.2304,-4.2176,-4.1901,-4.282,-4.3535,-4.3828,-4.4342,-4.4874,-4.5461,-4.548,-4.5608,-4.5902,-4.5902,-4.5902,-4.5902,-4.5902,-4.5902,-4.5902,-4.5902,-4.5902,-4.5902,-4.5902,-4.5902,-4.5865,-4.5278,-4.5039,-4.5021,-4.4727,-4.4617,-4.4617,-4.4617,-4.4617,-4.458,0.0,0.0,0.0,0.0,0.0,0.0,0.0,0.0,-4.571,-4.599,-4.6778,-4.7432,-4.7721,-4.899,-4.9837,-4.9837,-5.0366,-5.0212,-4.9048,-4.8413,-4.7605,-4.6509,-4.6182,-4.6817,-4.8509,-4.9106,-4.9952,-5.1106,-5.1106,-5.126,-5.1529,-5.1529,-5.1529,-5.1529,-5.1529,-5.0914,-4.9798,-4.9221,-4.8163,-4.6769,-4.5316,-4.4085,-4.3066,0.0,0.0,0.0,0.0,0.0,0.0,0.0,0.0,0.0,0.0,0.0,0.0,0.0,0.0,0.0,0.0,0.0,0.0,0.0,0.0,0.0,0.0,0.0,0.0,0.0,0.0,0.0,0.0,0.0,0.0,0.0,0.0,0.0,0.0,0.0,-4.2487,-4.263,-4.267,-4.2818,-4.3075,-4.3112,-4.3222,-4.3497,-4.4507,-4.5112,-4.5112,-4.5608,-4.6012,-4.6305,-4.6305,-4.6581,-4.7131,-4.715,-4.7278,-4.7553,-4.7553,-4.7553,-4.7553,-4.7553,-4.7553,-4.7553,-4.7553,-4.7388,-4.715,-4.715,-4.6985,-4.6654,-4.6104,-4.5902,-4.5902,-4.5902,-4.5902,-4.581,0.0,0.0,0.0,0.0,0.0,0.0,0.0,-4.5575,-4.5874,-4.6759,-4.7548,-4.8355,-4.926,-5.0144,-5.0673,-5.0712,-5.0712,-4.9971,-4.8259,-4.8125,-4.7355,-4.571,-4.6509,-4.774,-4.9356,-4.9452,-5.0279,-5.1904,-5.1923,-5.2365,-5.3203,-5.3203,-5.3203,-5.3203,-5.3203,-5.2299,-5.0789,-5.075,-4.9298,-4.6951,-4.6028,-4.4662,-4.3085,0.0,0.0,0.0,0.0,0.0,0.0,0.0,0.0,0.0,0.0,0.0,0.0,0.0,0.0,0.0,0.0,0.0,0.0,0.0,0.0,0.0,0.0,0.0,0.0,0.0,0.0,0.0,0.0,0.0,0.0,0.0,0.0,0.0,-4.2069,-4.28,-4.3043,-4.2421,-4.3056,-4.3828,-4.4618,-4.4709,-4.5057,-4.5847,-4.592,-4.5938,-4.5938,-4.5993,-4.6379,-4.7149,-4.7204,-4.8012,-4.9629,-4.9647,-5.0013,-5.0802,-5.0802,-5.0802,-5.0802,-5.0802,-5.0802,-5.0802,-5.0802,-5.0362,-4.9647,-4.9647,-4.9132,-4.8233,-4.6599,-4.5975,-4.5975,-4.5975,-4.5957,-4.5938,0.0,0.0,0.0,0.0,0.0,0.0,0.0,-4.5056,-4.497,-4.5836,-4.6144,-4.6836,-4.8298,-4.924,-5.001,-5.0635,-5.0712,-5.0231,-4.9125,-4.8452,-4.7625,-4.6586,-4.7932,-4.8933,-4.9394,-5.0587,-5.1442,-5.1904,-5.2519,-5.2972,-5.3203,-5.3203,-5.3203,-5.3203,-5.3203,-5.2933,-5.2472,-5.1837,-5.0837,-4.951,-4.8029,-4.6413,-4.4902,0.0,0.0,0.0,0.0,0.0,0.0,0.0,0.0,0.0,0.0,0.0,0.0,0.0,0.0,0.0,0.0,0.0,0.0,0.0,0.0,0.0,0.0,0.0,0.0,0.0,0.0,0.0,0.0,0.0,0.0,0.0,0.0,-4.3072,-4.2982,-4.2948,-4.3092,-4.3491,-4.4016,-4.447,-4.4673,-4.5241,-4.5663,-4.5883,-4.6452,-4.6764,-4.6764,-4.7921,-4.8692,-4.8912,-4.9481,-4.9994,-5.0472,-5.0472,-5.0582,-5.0802,-5.0802,-5.0802,-5.0802,-5.0802,-5.0802,-5.0802,-5.0802,-5.0674,-5.0472,-5.0472,-5.0325,-4.9958,-4.8288,-4.7645,-4.7645,-4.7645,-4.7278,-4.6764,0.0,0.0,0.0,0.0,0.0,0.0,0.0,-4.4124,-4.422,-4.5441,-4.5594,-4.624,-4.7913,-4.8548,-4.9067,-4.9567,-4.9298,-4.8894,-4.8394,-4.7875,0.0,0.0,0.0,-4.9721,-5.0433,-5.1404,-5.225,-5.2991,-5.351,-5.3914,-5.4241,-5.4241,-5.4241,-5.4241,-5.4241,-5.4068,-5.3703,-5.3203,-5.2299,-5.1106,-5.0106,-4.8279,-4.6105,-4.5748,-4.4767,-4.3566,-4.322,-4.3104,-4.3028,-4.2527,0.0,0.0,0.0,0.0,0.0,0.0,0.0,0.0,0.0,0.0,0.0,0.0,0.0,0.0,0.0,0.0,0.0,0.0,0.0,0.0,0.0,0.0,0.0,0.0,-4.3274,-4.377,-4.4291,-4.4027,-4.3943,-4.4249,-4.4829,-4.5351,-4.5663,-4.6122,-4.6691,-4.7388,-4.7884,-4.8306,-4.8617,-4.9572,-5.0086,-5.0086,-5.0563,-5.0967,-5.1298,-5.1298,-5.1481,-5.1811,-5.1811,-5.1811,-5.1811,-5.1811,-5.1811,-5.1811,-5.1811,-5.1695,-5.1543,-5.1543,-5.1454,0.0,0.0,0.0,0.0,0.0,-4.8324,-4.759,0.0,0.0,0.0,0.0,0.0,0.0,0.0,-4.3028,-4.3566,-4.5229,-4.5364,-4.599,-4.7778,-4.7971,-4.8009,-4.8086,-4.7355,-4.6846,-4.6759,0.0,0.0,-4.9183,-4.9433,-5.0298,-5.1865,-5.2,-5.2856,-5.4491,-5.4587,-5.4991,-5.5703,-5.5703,-5.5703,-5.5703,-5.5703,-5.5299,-5.4626,-5.453,-5.3606,-5.2173,-5.1981,-5.0,-4.7105,-4.6317,-4.5432,-4.4489,-4.3778,-4.347,-4.3374,-4.3278,0.0,0.0,0.0,0.0,0.0,0.0,0.0,0.0,0.0,0.0,0.0,0.0,0.0,0.0,0.0,0.0,0.0,0.0,0.0,0.0,0.0,0.0,0.0,0.0,-4.3213,-4.4108,-4.5645,-4.5644,-4.5345,-4.4942,-4.5571,-4.6324,-4.7077,-4.7297,-4.8013,-4.9541,-4.9703,-5.005,-5.0765,0.0,0.0,0.0,0.0,-5.1408,-5.2123,-5.2142,-5.2491,-5.3185,-5.3185,-5.3185,-5.3185,-5.3185,-5.3185,-5.3206,-5.3251,-5.3077,-5.2733,-5.2805,-5.2613,-5.219,-5.1232,-5.0884,-5.0772,-5.0034,-4.9242,-4.8581,0.0,0.0,0.0,0.0,0.0,0.0,0.0,-4.2508,-4.2643,-4.4335,-4.3989,-4.4489,-4.6874,-4.7135,-4.7394,-4.8048,-4.7355,-4.6605,0.0,0.0,-4.8009,-4.8336,-4.9702,-5.0894,-5.1885,-5.2577,-5.3453,-5.4491,-5.5145,-5.5549,-5.5703,-5.5703,-5.5703,-5.5703,-5.5703,-5.5607,-5.5434,-5.478,-5.4318,-5.3876,-5.2462,-5.0702,-4.8894,-4.8721,-4.7721,-4.6374,-4.622,-4.5701,-4.5017,-4.4297,-4.4066,-4.3951,-4.3297,0.0,0.0,0.0,0.0,0.0,0.0,0.0,0.0,0.0,0.0,0.0,0.0,0.0,0.0,0.0,0.0,0.0,0.0,0.0,0.0,-4.3893,-4.4711,-4.5514,-4.6107,-4.6779,-4.6943,-4.6246,-4.6594,-4.7058,-4.7554,-4.8514,-4.936,-4.9969,-5.0357,-5.0637,-5.0802,-5.1426,-5.1756,-5.1756,-5.2399,-5.2821,-5.2968,-5.2968,-5.3059,-5.3185,0.0,0.0,-5.3185,-5.3185,-5.3185,-5.3227,-5.3545,-5.3646,-5.3609,-5.3977,-5.41,-5.383,-5.2001,-5.1285,-5.1231,-5.0741,-5.0453,-5.0366,0.0,0.0,0.0,0.0,0.0,0.0,0.0,-4.1431,-4.1604,-4.2874,-4.2701,-4.3104,-4.4816,-4.5009,-4.5163,-4.5566,-4.5605,-4.5413,0.0,-4.6932,-4.8298,-4.874,-4.999,-5.1279,-5.2519,-5.2991,-5.3818,-5.5107,-5.5491,-5.5703,-5.5703,-5.5703,-5.5703,-5.5703,-5.5703,-5.5703,-5.5665,-5.5261,-5.4626,-5.378,-5.2895,-5.1548,-4.999,-4.9567,-4.8606,-4.7451,-4.7038,-4.6336,-4.5537,-4.5094,-4.496,-4.4883,-4.447,-4.3739,-4.297,0.0,0.0,0.0,0.0,0.0,0.0,0.0,0.0,0.0,0.0,0.0,0.0,0.0,0.0,-4.3032,-4.2851,0.0,-4.4144,-4.4412,-4.5354,-4.6341,-4.7176,-4.7529,-4.7553,-4.7159,-4.8021,-4.873,-4.8934,-4.9896,-5.075,-5.1319,-5.1375,-5.1573,-5.1995,-5.238,-5.2601,-5.2601,-5.3004,-5.3185,-5.3185,-5.3185,-5.3185,-5.3185,-5.3185,-5.3185,-5.3185,-5.3185,-5.3316,-5.3505,-5.372,-5.4047,-5.4478,-5.4919,-5.5088,-5.4985,-5.3743,-5.2862,-5.2278,-5.2076,-5.1746,-5.1425,0.0,0.0,0.0,0.0,0.0,0.0,0.0,-4.0496,-4.0804,-4.17,-4.1788,-4.2143,-4.3008,-4.3104,-4.3028,-4.2854,-4.3739,0.0,0.0,-4.6451,-4.8259,-4.9106,-4.9971,-5.1221,-5.2914,-5.3106,-5.3933,-5.5472,-5.5607,-5.5703,-5.5703,-5.5703,-5.5703,-5.5703,-5.5703,-5.5703,-5.5684,-5.553,-5.4684,-5.3414,-5.3087,-5.2145,-5.0818,-4.9779,-4.8856,-4.8029,-4.7375,-4.6355,-4.5364,-4.5537,-4.5498,-4.5383,-4.5556,-4.4998,-4.4162,-4.3528,-4.322,0.0,0.0,0.0,0.0,0.0,0.0,0.0,0.0,0.0,-4.3374,-4.3547,-4.3585,-4.3487,-4.3168,-4.3972,-4.4767,-4.5017,-4.6042,-4.7205,-4.8358,-4.8305,-4.8219,-4.8387,-4.9477,-5.0247,-5.0394,-5.1224,-5.2016,-5.267,-5.249,-5.2594,-5.317,-5.3185,-5.3185,-5.3185,-5.3185,-5.3185,-5.3185,-5.3185,-5.3185,-5.3185,-5.3293,-5.3316,-5.3316,-5.342,-5.3642,-5.3941,-5.4031,-5.4494,-5.5237,-5.5577,-5.5703,-5.5662,-5.5331,-5.4583,-5.3674,-5.3524,-5.3043,-5.2507,0.0,0.0,0.0,0.0,0.0,0.0,0.0,0.0,-4.0804,-4.17,-4.1788,-4.2143,-4.3008,-4.3104,-4.2797,-4.2,0.0,0.0,-4.3278,-4.5624,-4.7413,-4.8221,-4.9086,-5.0337,-5.2,-5.2799,-5.3664,-5.4626,-5.5338,-5.5703,-5.5703,-5.5703,-5.5703,-5.5703,-5.5703,-5.5703,-5.5645,-5.4934,-5.453,-5.4222,-5.2673,-5.1923,-5.1577,-5.001,-4.8856,-4.8086,-4.8009,-4.6451,-4.4566,-4.5344,-4.5094,-4.4586,-4.5364,-4.4998,-4.4278,-4.4182,0.0,-4.2912,-4.2047,-4.1865,-4.1942,-4.1942,-4.245,-4.3162,0.0,0.0,-4.4393,-4.5171,-4.5325,-4.5316,-4.5271,-4.5696,-4.6207,-4.657,-4.7761,-4.8766,-4.9209,-4.9595,-5.0108,-5.0825,-5.0481,-5.0475,-5.1121,-5.2275,-5.3044,-5.3126,-5.3418,-5.3492,-5.3209,-5.3185,-5.3185,-5.3185,-5.3185,-5.3185,-5.3185,-5.3185,-5.3185,-5.3206,-5.3565,-5.3739,-5.3758,-5.4153,-5.439,-5.4436,-5.4804,-5.5212,-5.564,-5.5673,-5.5703,-5.5703,-5.5651,-5.5542,-5.5336,-5.4628,-5.4295,-5.4264,0.0,0.0,0.0,0.0,0.0,0.0,0.0,0.0,0.0,-4.0989,-4.1046,-4.1181,-4.1554,-4.1593,-4.1431,0.0,0.0,0.0,-4.3124,-4.549,-4.7038,-4.7394,-4.8682,-4.9971,-5.1183,-5.2029,-5.2876,-5.3741,-5.4087,-5.4491,-5.4991,-5.4991,-5.5241,-5.5684,-5.5203,-5.4991,-5.4953,-5.4107,-5.3453,-5.2933,-5.2192,-5.1625,-5.1068,-4.9856,-4.8856,-4.7971,-4.699,-4.5624,0.0,0.0,-4.4605,-4.4451,-4.5325,-4.4998,-4.4297,-4.4297,-4.372,0.0,-4.3239,-4.2912,-4.2797,0.0,-4.3893,-4.4028,-4.4855,-4.5056,-4.5171,-4.5518,-4.5594,-4.5685,-4.5955,-4.6367,-4.6952,0.0,-4.8686,-4.9339,-4.9754,-4.9985,-5.0397,-5.1191,-5.1478,-5.1916,-5.2724,-5.3729,-5.4316,-5.4321,-5.4245,-5.4014,-5.3565,-5.3564,-5.3444,-5.3206,-5.3185,-5.3185,-5.3185,-5.3424,-5.3564,-5.3546,-5.3996,-5.4204,-5.4204,-5.4404,-5.4644,-5.4862,-5.5262,-5.5535,-5.5703,-5.5703,-5.5703,-5.5703,-5.5703,-5.5703,-5.5662,-5.5319,-5.5199,-5.5212,0.0,0.0,0.0,0.0,0.0,0.0,0.0,0.0,0.0,0.0,-4.0496,-4.0496,-4.0496,-4.0496,-4.0496,0.0,0.0,0.0,0.0,-4.5047,-4.6413,-4.6885,-4.8067,0.0,-5.0327,-5.1144,-5.1991,-5.2837,-5.3087,-5.353,-5.4145,-5.4145,-5.4453,-5.4991,-5.4395,-5.4145,-5.4087,-5.3222,-5.2481,-5.1865,-5.1404,-5.0856,-5.0231,-4.9125,-4.8163,-4.7259,-4.6037,-4.4902,0.0,0.0,-4.3816,-4.3758,-4.4643,-4.447,-4.397,-4.397,-4.3393,-4.2912,-4.3739,0.0,0.0,-4.4883,-4.496,-4.4816,-4.546,-4.5594,-4.5594,-4.5594,-4.5594,-4.5791,-4.6364,-4.6887,-4.7617,-4.8843,-4.9429,-4.9883,-5.0218,-5.026,-5.0654,-5.1706,-5.2387,-5.3209,-5.428,-5.4918,-5.5212,-5.5121,-5.4819,-5.4468,-5.4013,-5.3869,-5.3682,-5.3361,-5.3359,-5.3359,-5.3359,-5.3777,-5.3995,-5.3995,-5.4452,-5.4674,-5.4655,-5.4775,-5.4993,-5.5282,-5.5577,-5.5703,-5.5703,-5.5703,-5.5703,-5.5703,-5.5703,-5.5703,-5.5703,-5.5703,-5.5703,-5.5703,0.0,0.0,0.0,0.0,0.0,0.0,0.0,0.0,0.0,0.0,0.0,0.0,0.0,0.0,0.0,0.0,0.0,0.0,0.0,-4.3893,-4.5124,-4.6827,-4.6942,-4.7759,-4.9394,-5.0289,-5.1125,-5.1942,-5.2799,-5.3222,-5.3241,-5.3241,-5.326,-5.328,-5.326,-5.3241,-5.3183,-5.2308,-5.1923,-5.175,-5.0125,-4.9452,-4.926,-4.7605,-4.6432,-4.5671,-4.5614,0.0,0.0,0.0,-4.2566,-4.2019,-4.2893,-4.3162,0.0,-4.3143,-4.2527,0.0,0.0,0.0,-4.3297,-4.4124,-4.4951,-4.5575,-4.5594,-4.5594,-4.5594,-4.5594,-4.5594,-4.5855,-4.6731,-4.7538,-4.8355,-4.9231,-5.0106,-5.0664,-5.0683,-5.0673,-5.1288,-5.2962,-5.3173,-5.3827,0.0,-5.5673,-5.5512,-5.5134,-5.5075,-5.4909,-5.4503,-5.4048,-5.3796,-5.3777,-5.3777,-5.3777,-5.3777,-5.4238,-5.4487,-5.4468,-5.4895,-5.5075,-5.5107,-5.5489,-5.5662,-5.5673,-5.5684,-5.5703,-5.5703,-5.5703,-5.5703,-5.5703,-5.5703,-5.5703,-5.5703,-5.5703,-5.5703,-5.5703,0.0,0.0,0.0,0.0,0.0,0.0,0.0,0.0,0.0,0.0,0.0,0.0,0.0,0.0,0.0,0.0,0.0,0.0,0.0,-4.3528,-4.4566,-4.5143,-4.6278,-4.7163,-4.774,-4.8548,-4.9106,-4.9385,-4.9683,-5.0414,-5.1529,-5.1529,-5.2125,-5.3145,-5.2029,-5.1529,-5.1452,-4.999,-4.9385,-4.9327,-4.8759,-4.8221,-4.7625,-4.6471,-4.549,-4.4586,0.0,0.0,0.0,0.0,-4.2038,-4.1942,-4.2835,-4.2701,0.0,-4.2239,-4.245,-4.2835,-4.3662,0.0,-4.4105,-4.496,-4.5383,-4.5594,-4.5594,-4.5594,-4.5594,-4.5594,-4.5594,-4.5883,-4.674,-4.7115,-4.7759,-4.9163,-4.9644,-5.0029,-5.0616,-5.0712,-5.1318,-5.301,-5.3203,0.0,0.0,0.0,0.0,-5.5512,-5.5501,-5.5319,-5.4924,-5.4741,-5.4544,-5.4272,-5.4255,-5.4255,-5.4255,-5.4686,-5.4909,-5.489,-5.5306,-5.5501,-5.5501,-5.564,-5.5703,-5.5703,-5.5703,-5.5703,-5.5703,-5.5703,-5.5703,-5.5703,-5.5703,-5.5703,-5.5703,-5.5703,-5.5703,-5.5703,0.0,0.0,0.0,0.0,0.0,0.0,0.0,0.0,0.0,0.0,0.0,0.0,0.0,0.0,0.0,0.0,0.0,0.0,0.0,0.0,-4.3547,-4.3855,-4.4951,-4.5682,-4.597,-4.649,-4.6894,-4.7201,-4.7528,-4.824,-4.9356,-4.9644,-5.0356,-5.1337,-5.024,-4.976,-4.9702,-4.8586,-4.7932,-4.7644,-4.7336,-4.6701,-4.5874,-4.5028,-4.4162,0.0,0.0,0.0,0.0,0.0,-4.1335,-4.1489,-4.2354,-4.2258,-4.1865,-4.2181,-4.245,-4.2874,-4.3989,-4.4297,-4.4509,-4.5383,-4.5594,-4.5594,-4.5594,-4.5594,-4.5518,-4.521,-4.5152,-4.5393,-4.6278,-4.6432,-4.7086,-4.9086,-4.9394,-4.9702,-5.0577,-5.0712,-5.1318,-5.301,-5.3203,-5.3857,0.0,0.0,0.0,-5.5703,-5.5703,-5.5588,-5.5319,-5.5173,-5.4979,-5.4716,-5.4701,-5.4701,-5.4701,-5.5101,-5.5319,-5.5319,-5.5577,-5.5703,-5.5703,-5.5703,-5.5703,-5.5703,-5.5703,-5.5703,-5.5703,-5.5703,-5.5703,-5.5703,-5.5703,-5.5703,-5.5703,-5.5703,-5.5703,-5.5703,0.0,0.0,0.0,0.0,0.0,0.0,0.0,0.0,0.0,0.0,0.0,0.0,0.0,0.0,0.0,0.0,0.0,0.0,0.0,0.0,0.0,-4.3008,-4.3085,-4.3451,-4.422,-4.4239,-4.4643,-4.5479,-4.6297,-4.6731,-4.6769,-4.7548,-4.7932,-4.7971,-4.7932,-4.7913,-4.7894,-4.7855,-4.7413,-4.6644,-4.5797,-4.496,-4.4085,-4.3316,0.0,0.0,0.0,0.0,0.0,0.0,0.0,0.0,0.0,-4.1865,-4.2038,-4.2912,-4.2585,-4.2277,-4.3912,-4.4374,-4.4566,-4.5402,-4.5594,-4.5594,-4.5594,-4.5575,-4.5306,-4.447,-4.4259,-4.4489,0.0,0.0,-4.6422,-4.8875,-4.9336,-4.9702,-5.0577,-5.0712,-5.1318,0.0,0.0,0.0,0.0,0.0,0.0,-5.5703,0.0,-5.5703,-5.5703,-5.5331,-5.5134,-5.5134,-5.5134,-5.5134,-5.5134,-5.5512,-5.5703,-5.5703,-5.5703,-5.5703,-5.5703,-5.5703,-5.5703,-5.5703,-5.5703,-5.5703,-5.5703,-5.5703,-5.5703,-5.5703,-5.5703,-5.5703,-5.5703,-5.5703,-5.5703,-5.5703,0.0,0.0,0.0,0.0,0.0,0.0,0.0,0.0,0.0,0.0,0.0,0.0,0.0,0.0,0.0,0.0,0.0,0.0,0.0,0.0,0.0,0.0,0.0,0.0,0.0,0.0,0.0,0.0,0.0,-4.4374,-4.497,-4.5163,-4.5624,0.0,-4.5566,-4.5278,-4.522,-4.4624,-4.4259,-4.4047,0.0,-4.322,-4.2431,0.0,0.0,0.0,0.0,0.0,0.0,0.0,0.0,0.0,0.0,-4.2777,-4.2931,-4.3758,-4.3835,-4.3893,-4.4979,-4.5267,-4.5325,-4.5537,-4.5594,-4.5594,-4.5594,-4.5094,-4.4566,-4.4355,-4.3816,-4.347,0.0,0.0,0.0,-4.7336,-4.8586,0.0,-5.0577,-5.0712,0.0,-5.301,0.0,-5.3857,-5.553,-5.5703,0.0,0.0,-5.5703,-5.5703,-5.5703,-5.5599,-5.5554,-5.5554,-5.5554,-5.5554,-5.5554,-5.5651,-5.5703,-5.5703,-5.5703,-5.5703,-5.5703,-5.5703,-5.5703,-5.5703,-5.5703,-5.5703,-5.5703,-5.5703,-5.5703,-5.5703,-5.5703,-5.5703,-5.5703,-5.5703,-5.5703,-5.5703,0.0,0.0,0.0,0.0,0.0,0.0,0.0,0.0,0.0,0.0,0.0,0.0,0.0,0.0,0.0,0.0,0.0,0.0,0.0,0.0,0.0,0.0,0.0,0.0,0.0,0.0,0.0,0.0,0.0,0.0,0.0,-4.3585,-4.4028,-4.447,-4.3989,-4.3778,-4.3739,0.0,0.0,0.0,0.0,0.0,0.0,0.0,0.0,0.0,0.0,0.0,0.0,0.0,0.0,-4.2989,-4.347,-4.3624,-4.3797,-4.4624,0.0,-4.4489,-4.5364,-4.5594,-4.5594,-4.5594,-4.5594,-4.5498,-4.5133,-4.4643,-4.4085,-4.3355,-4.2835,0.0,0.0,0.0,0.0,0.0,0.0,0.0,-5.0519,-5.0712,-5.1318,0.0,-5.3203,0.0,-5.553,-5.5703,-5.5703,0.0,-5.5703,-5.5703,-5.5703,-5.5703,-5.5703,-5.5703,-5.5703,-5.5703,-5.5703,-5.5703,-5.5703,-5.5703,-5.5703,-5.5703,-5.5703,-5.5703,-5.5703,-5.5703,0.0,-5.5703,-5.5703,-5.5703,-5.5703,-5.5703,-5.5703,-5.5703,-5.5703,-5.5703,-5.5703,-5.5703,0.0,0.0,0.0,0.0,0.0,0.0,0.0,0.0,0.0,0.0,0.0,0.0,0.0,0.0,0.0,0.0,0.0,0.0,0.0,0.0,0.0,0.0,0.0,0.0,0.0,0.0,0.0,0.0,0.0,0.0,0.0,0.0,0.0,0.0,0.0,0.0,0.0,0.0,0.0,0.0,0.0,0.0,0.0,0.0,0.0,0.0,0.0,0.0,0.0,0.0,-4.372,-4.4316,-4.4432,-4.447,-4.4624,-4.5383,-4.5056,-4.4643,-4.5402,-4.5594,-4.5594,-4.5594,-4.5594,-4.5364,-4.4489,-4.422,-4.3701,-4.2115,0.0,-4.1893,-4.2777,-4.3028,-4.4162,-4.7413,0.0,-4.8702,-5.0462,-5.0712,-5.1279,-5.2837,-5.3126,-5.3818,-5.5395,-5.5645,-5.5703,-5.5703,-5.5703,-5.5703,-5.5703,-5.5703,-5.5703,-5.5703,-5.5703,-5.5703,-5.5703,-5.5703,-5.5703,-5.5703,-5.5703,-5.5703,-5.5703,-5.5703,-5.5703,-5.5703,-5.5703,-5.5703,-5.5703,-5.5703,-5.5703,-5.5703,-5.5703,-5.5703,-5.5703,-5.5703,-5.5703,-5.5703,0.0,0.0,0.0,0.0,0.0,0.0,0.0,0.0,0.0,0.0,-4.1171,0.0,0.0,0.0,0.0,0.0,0.0,0.0,0.0,0.0,0.0,0.0,0.0,0.0,0.0,0.0,0.0,0.0,0.0,0.0,0.0,0.0,0.0,0.0,0.0,0.0,0.0,0.0,0.0,0.0,0.0,0.0,0.0,0.0,0.0,0.0,0.0,0.0,0.0,0.0,-4.4182,-4.4432,-4.5152,-4.5364,-4.5402,-4.5556,-4.5498,-4.5421,-4.5556,-4.5594,-4.5594,-4.5594,-4.5594,-4.5364,-4.4489,-4.3797,0.0,0.0,0.0,-4.0989,-4.1854,-4.2604,0.0,-4.6682,0.0,0.0,0.0,0.0,-5.1048,0.0,0.0,0.0,0.0,0.0,0.0,0.0,0.0,-5.5703,-5.5703,-5.5703,-5.5703,-5.5703,-5.5703,-5.5703,-5.5703,-5.5703,-5.5703,-5.5703,-5.5703,-5.5703,-5.5703,-5.5703,-5.5703,-5.5703,-5.5703,0.0,-5.5703,-5.5703,-5.5703,-5.5703,-5.5703,-5.5703,-5.5703,-5.5703,-5.5703,-5.5703,0.0,0.0,0.0,0.0,0.0,0.0,0.0,0.0,0.0,0.0,-4.1191,-4.1191,0.0,0.0,0.0,0.0,0.0,0.0,0.0,0.0,0.0,0.0,0.0,0.0,0.0,0.0,0.0,0.0,0.0,0.0,0.0,0.0,0.0,0.0,0.0,0.0,0.0,0.0,0.0,0.0,0.0,0.0,0.0,0.0,0.0,0.0,0.0,0.0,0.0,0.0,-4.3297,-4.3893,-4.519,-4.5594,-4.5518,-4.5056,-4.5248,-4.5498,-4.5056,-4.5248,-4.5594,-4.5594,-4.5594,-4.5267,-4.397,0.0,0.0,0.0,-4.0785,-4.0766,-4.1643,0.0,0.0,0.0,0.0,0.0,0.0,0.0,0.0,0.0,0.0,0.0,0.0,0.0,0.0,0.0,0.0,-5.5703,-5.5703,-5.5703,-5.5703,-5.5703,-5.5703,-5.5703,-5.5703,-5.5703,-5.5703,-5.5703,-5.5703,-5.5703,-5.5703,-5.5703,-5.5703,-5.5703,-5.5703,-5.5703,-5.5703,-5.5703,-5.5703,-5.5703,-5.5703,-5.5703,-5.5703,-5.5703,-5.5703,-5.5703,0.0,0.0,0.0,0.0,0.0,0.0,0.0,-4.1191,-4.1191,-4.1191,-4.1191,-4.1191,-4.1191,-4.1191,0.0,0.0,0.0,0.0,0.0,0.0,0.0,0.0,0.0,0.0,0.0,0.0,0.0,0.0,0.0,0.0,0.0,0.0,0.0,0.0,0.0,0.0,0.0,0.0,0.0,0.0,0.0,0.0,0.0,0.0,0.0,0.0,0.0,0.0,0.0,0.0,-4.2374,-4.3335,-4.4643,-4.5056,-4.496,-4.4451,-4.4778,-4.521,-4.4701,-4.5075,-4.5594,-4.5594,-4.5594,-4.5171,-4.347,-4.3104,0.0,0.0,-4.0496,-4.0766,-4.1643,0.0,0.0,0.0,0.0,0.0,0.0,0.0,0.0,0.0,0.0,0.0,0.0,0.0,0.0,0.0,0.0,-5.5703,-5.5703,-5.5703,-5.5703,-5.5703,-5.5703,-5.5703,-5.5703,-5.5703,-5.5703,-5.5703,-5.5703,-5.5703,-5.5703,-5.5703,-5.5703,-5.5703,-5.5703,-5.5703,-5.5703,-5.5703,-5.5703,-5.5703,-5.5703,-5.5703,-5.5703,-5.5703,-5.5703,-5.5703,0.0,0.0,0.0,0.0,0.0,0.0,0.0,-4.1191,-4.1191,-4.1191,-4.1191,-4.1191,-4.1191,-4.1191,0.0,0.0,0.0,0.0,0.0,0.0,0.0,0.0,0.0,0.0,0.0,0.0,0.0,0.0,0.0,0.0,0.0,0.0,0.0,0.0,0.0,0.0,0.0,0.0,0.0,0.0,0.0,0.0,0.0,0.0,0.0,0.0,0.0,0.0,0.0,0.0,0.0,-4.3124,-4.3278,-4.3335,-4.3451,-4.4105,0.0,0.0,-4.5287,-4.5537,-4.5594,-4.5594,-4.5594,-4.5171,-4.347,0.0,0.0,-4.0862,-4.0496,-4.0766,-4.1643,-4.1143,-4.1439,0.0,0.0,0.0,0.0,0.0,0.0,0.0,0.0,0.0,0.0,0.0,0.0,0.0,0.0,-5.5703,-5.5703,-5.5703,-5.5703,-5.5703,-5.5703,-5.5703,-5.5703,-5.5703,-5.5703,-5.5703,-5.5703,-5.5703,-5.5703,-5.5703,-5.5703,-5.5703,-5.5703,-5.5703,0.0,-5.5703,-5.5703,-5.5703,-5.5703,-5.5703,-5.5703,-5.5703,-5.5703,-5.5703,0.0,0.0,0.0,0.0,0.0,0.0,0.0,-4.1191,-4.1191,-4.1191,-4.1191,-4.1191,-4.1191,-4.1191,-4.1191,0.0,0.0,0.0,0.0,0.0,0.0,0.0,0.0,0.0,0.0,0.0,0.0,-4.0623,-4.0623,0.0,0.0,0.0,0.0,0.0,0.0,0.0,0.0,0.0,0.0,0.0,0.0,0.0,0.0,0.0,0.0,0.0,0.0,0.0,0.0,0.0,0.0,0.0,-4.1535,-4.1535,0.0,0.0,-4.3508,-4.4259,-4.4124,-4.4825,-4.5594,-4.5594,-4.5594,-4.5171,-4.347,0.0,-4.2604,-4.0862,-4.0496,-4.0612,-4.095,-4.0727,-4.0823,0.0,0.0,0.0,0.0,0.0,0.0,0.0,0.0,0.0,0.0,0.0,0.0,0.0,0.0,-5.5703,-5.5703,-5.5703,-5.5703,-5.5703,-5.5703,-5.5703,-5.5703,-5.5703,-5.5703,-5.5703,-5.5703,-5.5703,-5.5703,-5.5703,-5.5703,-5.5703,-5.5703,-5.5703,0.0,-5.5703,-5.5703,-5.5703,-5.5703,-5.5703,-5.5703,-5.5703,-5.5703,-5.5703,0.0,0.0,0.0,0.0,0.0,0.0,-4.1191,-4.1191,-4.1191,-4.1191,-4.1191,-4.1191,-4.1191,-4.1191,-4.1191,-4.1191,0.0,0.0,0.0,0.0,0.0,0.0,0.0,0.0,0.0,0.0,-4.0779,-4.0726,-4.0726,-4.0672,0.0,0.0,0.0,0.0,0.0,0.0,0.0,0.0,0.0,0.0,0.0,0.0,0.0,0.0,0.0,0.0,0.0,0.0,0.0,0.0,0.0,0.0,0.0,0.0,0.0,0.0,-4.2643,-4.3547,-4.347,-4.4316,-4.5287,-4.5537,-4.5421,-4.4844,0.0,0.0,-4.2297,-4.0804,-4.0496,-4.0496,-4.0496,-4.0496,-4.0496,0.0,0.0,0.0,0.0,0.0,0.0,0.0,0.0,0.0,0.0,0.0,0.0,0.0,0.0,-5.5703,-5.5703,-5.5703,-5.5703,-5.5703,-5.5703,-5.5703,-5.5703,-5.5703,-5.5703,-5.5703,-5.5703,-5.5703,-5.5703,-5.5703,-5.5703,-5.5703,-5.5703,-5.5703,0.0,-5.5703,-5.5703,-5.5703,-5.5703,-5.5703,-5.5703,-5.5703,-5.5703,-5.5703,0.0,0.0,0.0,0.0,0.0,0.0,0.0,-4.1191,-4.1191,-4.1191,-4.1191,-4.1191,-4.1191,-4.1191,-4.1191,-4.1191,0.0,0.0,0.0,0.0,0.0,0.0,0.0,0.0,0.0,0.0,-4.0797,-4.0797,-4.0797,-4.0757,-4.0697,-4.0697,-4.063,-4.0504,0.0,0.0,0.0,0.0,0.0,0.0,0.0,0.0,0.0,0.0,0.0,0.0,0.0,0.0,0.0,0.0,0.0,0.0,0.0,0.0,0.0,0.0,-4.1808,-4.22,-4.3835,-4.4297,-4.4509,-4.5383,-4.496,-4.4105,0.0,0.0,-4.1566,-4.0689,-4.0496,-4.0496,-4.0496,-4.0496,-4.0496,-4.0496,0.0,0.0,0.0,0.0,0.0,0.0,0.0,0.0,0.0,0.0,0.0,0.0,0.0,0.0,-5.5703,-5.5703,-5.5703,-5.5703,-5.5703,-5.5703,-5.5703,-5.5703,-5.5703,-5.5703,-5.5703,-5.5703,-5.5703,-5.5703,-5.5703,-5.5703,-5.5703,-5.5703,0.0,-5.5703,-5.5703,-5.5703,-5.5703,-5.5703,-5.5703,-5.5703,-5.5703,-5.5703,0.0,0.0,0.0,0.0,0.0,0.0,0.0,-4.1191,-4.1191,-4.1191,-4.1191,-4.1191,-4.1191,-4.1191,-4.1191,-4.1191,0.0,0.0,0.0,0.0,0.0,0.0,0.0,0.0,0.0,0.0,-4.1026,-4.0947,-4.0947,-4.0887,-4.0766,-4.0766,-4.0743,-4.0708,-4.0747,0.0,0.0,0.0,0.0,0.0,0.0,0.0,0.0,0.0,0.0,0.0,0.0,0.0,0.0,0.0,0.0,0.0,0.0,0.0,0.0,-4.0843,-4.1335,-4.1923,-4.245,-4.3028,-4.3547,-4.3816,-4.3682,-4.3258,-4.2412,0.0,-4.1546,-4.0689,-4.0496,-4.0496,-4.0496,-4.0496,-4.0496,-4.0496,0.0,0.0,0.0,0.0,0.0,0.0,0.0,0.0,0.0,0.0,0.0,0.0,0.0,-5.5703,-5.5703,-5.5703,-5.5703,-5.5703,-5.5703,-5.5703,-5.5703,-5.5703,-5.5703,-5.5703,-5.5703,-5.5703,-5.5703,-5.5703,-5.5703,-5.5703,-5.5703,-5.5703,-5.5703,-5.5703,-5.5703,-5.5703,-5.5703,-5.5703,-5.5703,-5.5703,-5.5703,-5.5703,0.0,0.0,0.0,0.0,0.0,0.0,0.0,-4.1191,-4.1191,-4.1191,-4.1191,-4.1191,-4.1191,-4.1191,-4.1191,-4.1191,0.0,0.0,0.0,0.0,0.0,0.0,0.0,0.0,0.0,-4.1191,-4.1151,-4.1078,-4.1078,-4.1017,-4.0874,-4.0874,-4.0854,-4.0801,-4.0857,0.0,0.0,0.0,0.0,0.0,0.0,0.0,-4.0496,0.0,0.0,0.0,0.0,0.0,0.0,0.0,0.0,0.0,0.0,0.0,0.0,0.0,-4.0873,-4.1373,0.0,-4.22,-4.2701,-4.3028,-4.2854,0.0,0.0,0.0,-4.1162,-4.0612,-4.0496,-4.0496,-4.0496,-4.0496,-4.0496,-4.0496,0.0,0.0,0.0,0.0,0.0,0.0,0.0,0.0,0.0,0.0,0.0,0.0,-5.5703,-5.5703,-5.5703,-5.5703,-5.5703,-5.5703,-5.5703,-5.5703,-5.5703,-5.5703,-5.5703,-5.5703,-5.5703,-5.5703,-5.5703,-5.5703,-5.5703,-5.5703,-5.5703,-5.5703,0.0,-5.5703,-5.5703,-5.5703,-5.5703,-5.5703,-5.5703,-5.5703,-5.5703,-5.5703,0.0,0.0,0.0,0.0,0.0,0.0,0.0,0.0,0.0,0.0,-4.1191,-4.1191,-4.1191,-4.1191,-4.1191,0.0,0.0,0.0,0.0,0.0,0.0,0.0,0.0,0.0,0.0,-4.1191,-4.1191,-4.1191,-4.1191,-4.1148,-4.1002,-4.1002,-4.0952,-4.0824,-4.0957,-4.095,-4.0805,-4.0747,-4.0642,-4.0515,-4.0519,-4.0519,0.0,0.0,0.0,0.0,0.0,0.0,0.0,0.0,0.0,0.0,0.0,0.0,0.0,0.0,0.0,0.0,0.0,-4.1712,-4.1912,-4.272,-4.2316,-4.1712,0.0,0.0,0.0,0.0,0.0,-4.0496,-4.0496,-4.0496,-4.0496,-4.0496,0.0,0.0,0.0,0.0,0.0,0.0,0.0,0.0,0.0,0.0,0.0,0.0,-5.5703,-5.5703,-5.5703,-5.5703,-5.5703,-5.5703,-5.5703,-5.5703,-5.5703,-5.5703,-5.5703,-5.5703,-5.5703,-5.5703,-5.5703,-5.5703,-5.5703,0.0,-5.5703,-5.5703,-5.5703,-5.5703,-5.5703,-5.5703,-5.5703,-5.5703,-5.5703,-5.5703,-5.5703,-5.5703,0.0,0.0,0.0,0.0,0.0,0.0,0.0,0.0,0.0,0.0,0.0,-4.1191,-4.1191,-4.1191,0.0,0.0,0.0,0.0,0.0,0.0,0.0,0.0,0.0,0.0,0.0,-4.1191,-4.1191,-4.1191,-4.1191,-4.1172,-4.115,-4.115,-4.1148,-4.1104,-4.1149,-4.108,-4.0955,-4.0939,-4.0839,-4.0728,-4.0672,-4.0642,0.0,0.0,0.0,0.0,-4.0496,-4.0496,0.0,0.0,0.0,0.0,0.0,0.0,0.0,0.0,-4.0496,-4.0535,-4.0746,0.0,-4.0862,-4.1054,-4.0958,-4.0804,0.0,0.0,0.0,0.0,0.0,0.0,0.0,0.0,0.0,0.0,0.0,0.0,0.0,0.0,0.0,0.0,0.0,0.0,0.0,0.0,0.0,-5.5703,-5.5703,-5.5703,-5.5703,-5.5703,-5.5703,-5.5703,-5.5703,-5.5703,-5.5703,-5.5703,-5.5703,-5.5703,-5.5703,-5.5703,-5.5703,-5.5703,-5.5703,-5.5703,-5.5703,-5.5703,-5.5703,-5.5703,-5.5703,-5.5703,-5.5703,-5.5703,-5.5703,-5.5703,-5.5703,-5.5703,0.0,0.0,0.0,0.0,0.0,0.0,0.0,0.0,0.0,0.0,0.0,0.0,0.0,0.0,0.0,0.0,0.0,0.0,0.0,0.0,0.0,0.0,0.0,0.0,-4.1191,-4.1191,-4.1191,-4.1191,-4.1191,-4.1191,-4.1191,-4.1191,-4.1191,-4.1191,-4.1191,-4.1127,-4.0996,-4.0996,-4.092,-4.0793,-4.0767,0.0,0.0,0.0,0.0,0.0,-4.0496,-4.0496,0.0,-4.0496,-4.0496,-4.0496,0.0,0.0,0.0,0.0,-4.0496,-4.0496,-4.0496,-4.0496,-4.0496,-4.0496,-4.0496,-4.0496,-4.0496,0.0,0.0,0.0,0.0,0.0,0.0,0.0,0.0,0.0,0.0,0.0,0.0,0.0,0.0,0.0,0.0,0.0,0.0,0.0,0.0,-5.5665,-5.5703,-5.5703,-5.5703,-5.5703,-5.5703,-5.5703,-5.5703,-5.5703,-5.5703,-5.5703,-5.5703,-5.5703,-5.5703,-5.5703,-5.5703,-5.5703,-5.5703,-5.5703,-5.5703,-5.5703,-5.5703,-5.5703,-5.5703,-5.5703,-5.5703,-5.5703,-5.5703,-5.5703,-5.5703,-5.5703,0.0,0.0,0.0,0.0,0.0,0.0,0.0,0.0,0.0,0.0,0.0,0.0,0.0,0.0,0.0,0.0,0.0,0.0,0.0,0.0,0.0,0.0,0.0,-4.1191,-4.1191,-4.1191,-4.1191,-4.1191,-4.1191,-4.1191,-4.1191,-4.1191,-4.1191,-4.1191,-4.1191,-4.1148,-4.1026,-4.1026,-4.0962,-4.086,-4.0847,0.0,0.0,0.0,0.0,0.0,0.0,0.0,0.0,-4.0496,-4.0496,-4.0496,-4.0496,0.0,0.0,0.0,0.0,0.0,-4.0496,-4.0496,-4.0496,-4.0496,-4.0496,-4.0496,-4.0496,0.0,0.0,0.0,0.0,0.0,0.0,0.0,0.0,0.0,0.0,0.0,0.0,0.0,0.0,0.0,0.0,0.0,0.0,-5.3914,-5.478,-5.5472,-5.5626,-5.5703,-5.5703,-5.5703,-5.5703,-5.5703,-5.5703,-5.5703,-5.5703,-5.5703,-5.5703,-5.5703,-5.5703,-5.5703,-5.5703,-5.5703,-5.5703,-5.5703,0.0,0.0,-5.5703,-5.5703,-5.5703,-5.5703,-5.5703,-5.5703,-5.5703,-5.5703,-5.5703,-5.5703,0.0,0.0,0.0,0.0,0.0,0.0,0.0,0.0,0.0,0.0,0.0,0.0,0.0,0.0,0.0,0.0,0.0,0.0,0.0,0.0,0.0,0.0,-4.1191,-4.1191,-4.1191,-4.1191,-4.1191,-4.1191,-4.1191,-4.1191,-4.1191,-4.1191,-4.1191,-4.1191,-4.1191,-4.1191,-4.1171,-4.1171,-4.115,-4.1128,-4.1002,0.0,0.0,0.0,0.0,0.0,0.0,0.0,0.0,-4.0496,-4.0496,-4.0496,-4.0496,0.0,0.0,0.0,0.0,0.0,-4.0496,-4.0496,-4.0496,-4.0496,-4.0496,-4.0496,0.0,0.0,0.0,0.0,0.0,0.0,0.0,0.0,0.0,0.0,0.0,0.0,0.0,0.0,0.0,0.0,0.0,0.0,0.0,-5.3568,-5.4549,-5.4664,-5.5318,-5.5703,-5.5703,-5.5703,-5.5703,-5.5703,-5.5703,-5.5703,-5.5703,-5.5703,-5.5703,-5.5703,-5.5703,-5.5703,-5.5703,-5.5703,-5.5703,-5.5703,0.0,-5.5703,-5.5703,-5.5703,-5.5703,-5.5703,-5.5703,-5.5703,-5.5703,-5.5703,-5.5703,-5.5703,0.0,0.0,0.0,0.0,0.0,0.0,0.0,0.0,0.0,0.0,0.0,0.0,0.0,0.0,0.0,0.0,0.0,0.0,0.0,0.0,0.0,-4.1191,-4.1191,-4.1191,-4.1191,-4.1191,-4.1191,-4.1191,-4.1191,-4.1191,-4.1191,-4.1191,-4.1191,-4.1191,-4.1191,-4.1191,-4.1191,-4.1191,-4.1191,-4.1191,0.0,0.0,0.0,0.0,0.0,0.0,0.0,0.0,0.0,0.0,-4.0559,-4.0512,-4.0595,0.0,0.0,0.0,0.0,0.0,-4.0496,-4.0496,-4.0612,-4.1085,-4.0854,-4.0496,0.0,0.0,0.0,0.0,0.0,0.0,0.0,0.0,0.0,0.0,0.0,0.0,0.0,0.0,0.0,0.0,0.0,0.0,-5.1865,-5.2615,-5.3491,-5.4434,-5.4838,-5.5241,-5.5684,-5.5703,-5.5703,-5.5703,-5.5703,-5.5703,-5.5703,-5.5703,-5.5703,-5.5703,-5.5703,-5.5703,-5.5703,-5.5703,-5.5703,-5.5703,0.0,-5.5703,-5.5703,-5.5703,-5.5703,-5.5703,-5.5703,-5.5703,-5.5703,-5.5703,-5.5703,-5.5703,0.0,0.0,0.0,0.0,0.0,0.0,0.0,0.0,0.0,0.0,0.0,0.0,0.0,0.0,0.0,0.0,0.0,0.0,0.0,0.0,-4.1191,-4.1191,-4.1191,-4.1191,-4.1191,-4.1191,-4.1191,-4.1191,-4.1191,-4.1191,-4.1191,-4.1191,-4.1191,-4.1191,-4.1191,-4.1191,-4.1191,-4.1191,-4.1191,-4.1191,0.0,0.0,0.0,0.0,0.0,0.0,0.0,0.0,0.0,0.0,0.0,0.0,0.0,0.0,0.0,-4.0545,-4.0515,-4.0504,-4.053,-4.0508,-4.0669,-4.1335,0.0,0.0,0.0,0.0,0.0,0.0,0.0,0.0,0.0,0.0,0.0,0.0,0.0,0.0,0.0,0.0,-5.0712,-5.0712,-5.0712,-5.0933,-5.1568,-5.1788,-5.2442,-5.3799,-5.4087,-5.4453,-5.5088,-5.5107,-5.5203,-5.5415,-5.5415,-5.5511,-5.5703,-5.5703,-5.5703,-5.5703,-5.5703,-5.5703,-5.5703,-5.5703,-5.5703,-5.5703,-5.5703,-5.5703,-5.5703,-5.5703,-5.5703,-5.5703,-5.5703,-5.5703,-5.5703,-5.5703,-5.5703,-5.5703,0.0,0.0,0.0,0.0,0.0,0.0,0.0,0.0,0.0,0.0,0.0,0.0,0.0,0.0,0.0,0.0,0.0,0.0,0.0,0.0,-4.1191,-4.1191,-4.1191,-4.1191,-4.1191,-4.1191,-4.1191,-4.1191,-4.1191,-4.1191,-4.1191,-4.1191,-4.1191,-4.1191,-4.1191,-4.1191,-4.1191,-4.1191,-4.1191,-4.1191,-4.1191,0.0,0.0,0.0,0.0,0.0,0.0,0.0,0.0,0.0,0.0,0.0,0.0,0.0,-4.068,-4.068,-4.0596,-4.0534,-4.0642,-4.0589,-4.0516,-4.0573,0.0,0.0,0.0,0.0,0.0,0.0,0.0,0.0,0.0,0.0,0.0,0.0,0.0,0.0,0.0,0.0,-5.0712,-5.0712,-5.0712,-5.0731,-5.0789,-5.1471,-5.1942,-5.2077,-5.2837,-5.3318,-5.3376,-5.3376,-5.376,-5.4549,-5.4587,-5.4934,-5.5684,-5.5703,-5.5703,-5.5703,-5.5703,-5.5703,-5.5703,-5.5703,-5.5703,-5.5703,-5.5703,-5.5703,-5.5703,-5.5703,-5.5703,-5.5703,-5.5703,-5.5703,-5.5703,-5.5703,-5.5703,-5.5703,0.0,0.0,0.0,0.0,0.0,0.0,0.0,0.0,0.0,0.0,0.0,0.0,0.0,0.0,0.0,0.0,0.0,0.0,0.0,0.0,-4.1191,-4.1191,-4.1191,-4.1191,-4.1191,-4.1191,-4.1191,-4.1191,-4.1191,-4.1191,-4.1191,-4.1191,-4.1191,-4.1191,-4.1191,-4.1191,-4.1191,-4.1191,-4.1191,-4.1191,-4.1191,-4.1191,0.0,0.0,0.0,0.0,0.0,0.0,0.0,0.0,-4.0843,-4.0785,0.0,0.0,0.0,0.0,-4.0738,-4.0692,-4.0757,-4.11,-4.155,-4.2052,0.0,0.0,0.0,0.0,0.0,0.0,0.0,0.0,0.0,0.0,0.0,0.0,0.0,0.0,0.0,0.0,-5.0712,-5.0712,-5.0712,-5.0712,-5.0712,-5.0971,-5.1356,-5.1865,-5.2212,-5.2635,-5.3164,-5.3203,-5.3356,-5.3683,-5.3683,-5.3837,-5.4145,-5.4145,-5.4414,-5.4953,-5.5453,-5.5703,-5.5703,-5.5703,-5.5703,-5.5703,-5.5703,-5.5703,-5.5703,-5.5703,-5.5703,-5.5703,-5.5703,-5.5703,-5.5703,-5.5703,-5.5703,-5.5703,0.0,0.0,0.0,0.0,0.0,0.0,0.0,0.0,0.0,0.0,0.0,0.0,0.0,0.0,0.0,0.0,0.0,0.0,0.0,-4.1191,-4.1191,-4.1191,-4.1191,-4.1191,-4.1191,-4.1191,-4.1191,-4.1191,-4.1191,-4.1191,-4.1191,-4.1191,-4.1191,-4.1191,-4.1191,-4.1191,-4.1191,-4.1191,-4.1191,-4.1191,-4.1191,-4.1191,0.0,0.0,0.0,0.0,0.0,0.0,0.0,0.0,0.0,0.0,0.0,0.0,0.0,0.0,-4.0412,-4.0375,-4.0438,-4.1014,-4.1788,0.0,0.0,0.0,0.0,0.0,0.0,0.0,0.0,0.0,0.0,0.0,0.0,0.0,0.0,0.0,0.0,0.0,-5.0712,-5.0712,-5.0712,-5.0712,-5.0712,-5.0712,-5.0933,-5.1491,-5.1529,-5.1779,-5.2375,-5.2414,-5.2529,-5.2779,-5.2799,-5.2933,-5.3203,-5.3203,-5.351,-5.4107,-5.4645,-5.5184,-5.5703,-5.5703,-5.5703,-5.5703,-5.5703,-5.5703,-5.5703,-5.5703,-5.5703,-5.5703,-5.5703,-5.5703,-5.5703,-5.5703,-5.5703,-5.5703,0.0,0.0,0.0,0.0,0.0,0.0,0.0,0.0,0.0,0.0,0.0,0.0,0.0,0.0,0.0,0.0,0.0,0.0,-4.1191,-4.1191,-4.1191,-4.1191,-4.1191,-4.1191,-4.1191,-4.1191,-4.1191,-4.1191,-4.1191,-4.1191,-4.1191,-4.1191,-4.1191,-4.1191,-4.1191,-4.1191,-4.1191,-4.1191,-4.1191,-4.1191,-4.1191,-4.1191,-4.1191,0.0,0.0,0.0,0.0,0.0,0.0,0.0,-4.1105,0.0,0.0,0.0,0.0,0.0,-3.9567,-3.9442,-3.9655,-4.0209,-4.0945,0.0,0.0,0.0,0.0,0.0,0.0,0.0,0.0,0.0,0.0,0.0,0.0,0.0,0.0,0.0,0.0,0.0,-5.0712,-5.0712,-5.0712,-5.0712,-5.0712,-5.0712,-5.0712,-5.0712,-5.0712,-5.0712,-5.0712,-5.0712,-5.1068,-5.1865,-5.1885,-5.2288,-5.3164,-5.3183,-5.3183,-5.3203,-5.3203,-5.4068,-5.5684,-5.5684,-5.5684,-5.5703,-5.5703,-5.5703,-5.5703,-5.5703,-5.5703,-5.5703,-5.5703,-5.5703,-5.5703,-5.5703,-5.5703,-5.5703,0.0,0.0,0.0,0.0,0.0,0.0,0.0,0.0,0.0,0.0,0.0,0.0,0.0,0.0,0.0,0.0,0.0,0.0,-4.1191,-4.1191,-4.1191,-4.1191,-4.1191,-4.1191,-4.1191,-4.1191,-4.1191,-4.1191,-4.1191,-4.1191,-4.1191,-4.1191,-4.1191,-4.1191,-4.1191,-4.1191,-4.1191,-4.1191,-4.1191,-4.1191,-4.1191,-4.1191,-4.1191,0.0,0.0,0.0,0.0,0.0,0.0,0.0,0.0,0.0,0.0,0.0,0.0,-3.9918,-3.9792,-3.9899,-4.058,-4.1649,0.0,0.0,0.0,0.0,0.0,0.0,0.0,0.0,0.0,0.0,0.0,0.0,0.0,-4.8471,-4.9086,-4.9702,0.0,0.0,0.0,-5.0712,-5.0712,-5.0712,-5.0712,-5.0712,-5.0712,-5.0712,-5.0712,-5.0712,-5.0712,-5.0712,-5.0808,-5.1048,-5.1048,-5.1183,-5.1433,-5.1433,-5.1722,-5.2288,-5.2288,-5.3203,-5.4857,-5.4857,-5.5164,-5.5703,-5.5703,-5.5703,-5.5703,-5.5703,-5.5703,-5.5703,-5.5703,-5.5703,-5.5703,-5.5703,-5.5703,-5.5703,0.0,0.0,0.0,0.0,0.0,0.0,0.0,0.0,0.0,0.0,-4.1191,-4.1191,0.0,0.0,0.0,0.0,0.0,0.0,0.0,0.0,-4.1191,-4.1191,-4.1191,-4.1191,-4.1191,-4.1191,-4.1191,-4.1191,-4.1191,-4.1191,-4.1191,-4.1191,-4.1191,-4.1191,-4.1191,-4.1191,-4.1191,-4.1191,-4.1191,-4.1191,-4.1191,-4.1191,-4.1191,0.0,0.0,0.0,0.0,0.0,0.0,0.0,0.0,0.0,0.0,0.0,0.0,-3.9062,-3.9315,-3.9957,-4.0527,0.0,0.0,0.0,0.0,0.0,0.0,0.0,0.0,0.0,0.0,0.0,0.0,0.0,0.0,-4.8663,-4.9163,-4.9702,-5.0577,-5.0712,0.0,-5.0712,-5.0712,-5.0712,-5.0712,-5.0712,-5.0712,-5.0712,-5.0712,-5.0712,-5.0712,-5.0712,-5.0712,-5.0712,-5.0712,-5.0712,-5.0712,-5.0712,-5.0933,-5.1414,-5.1414,-5.2145,-5.3491,-5.3837,-5.4434,-5.5241,-5.5549,-5.5703,-5.5703,-5.5703,-5.5703,-5.5703,-5.5703,-5.5703,-5.5703,-5.5703,-5.5703,-5.5703,0.0,0.0,-4.1191,-4.1191,0.0,0.0,0.0,0.0,0.0,0.0,-4.1191,-4.1191,0.0,0.0,0.0,-4.1191,-4.1191,-4.1191,-4.1191,-4.1191,-4.1191,-4.1191,-4.1191,-4.1191,-4.1191,-4.1191,-4.1191,-4.1191,-4.1191,-4.1191,-4.1191,-4.1191,-4.1191,-4.1191,-4.1191,-4.1191,-4.1191,-4.1191,-4.1191,-4.1191,-4.1191,-4.1191,-4.1191,-4.1191,0.0,0.0,0.0,0.0,0.0,0.0,0.0,0.0,0.0,0.0,-3.9355,-3.7754,-3.8392,-3.9668,0.0,0.0,0.0,0.0,0.0,0.0,0.0,0.0,0.0,0.0,0.0,0.0,0.0,0.0,0.0,-4.7875,-4.8779,-4.9683,-5.0481,-5.0654,0.0,-5.0712,-5.0712,-5.0712,-5.0712,-5.0712,-5.0712,-5.0693,-5.0712,-5.0712,-5.0693,-5.0712,-5.0712,-5.0712,-5.0712,-5.0712,-5.0712,-5.0712,-5.0712,-5.0712,-5.0712,-5.1087,-5.1808,-5.2702,-5.3568,-5.4434,-5.5241,-5.5588,-5.5588,-5.5665,-5.5703,-5.5703,-5.5703,-5.5703,-5.5703,-5.5703,-5.5703,-5.5703,0.0,0.0,-4.1191,-4.1191,0.0,0.0,0.0,0.0,0.0,0.0,0.0,0.0,0.0,-4.1191,0.0,-4.1191,-4.1191,-4.1191,-4.1191,-4.1191,-4.1191,-4.1191,-4.1191,-4.1191,-4.1191,-4.1191,-4.1191,-4.1191,-4.1191,-4.1191,-4.1191,-4.1191,-4.1191,-4.1191,-4.1191,-4.1191,-4.1191,-4.1191,-4.1191,-4.1191,-4.1191,-4.1191,-4.1191,-4.1191,-4.1191,0.0,0.0,0.0,0.0,0.0,0.0,0.0,-3.9961,-3.8965,-3.7793,-3.7402,-3.8027,-3.9139,0.0,-4.2236,0.0,0.0,0.0,0.0,0.0,0.0,0.0,0.0,0.0,0.0,0.0,0.0,0.0,0.0,-4.8413,-4.9471,-4.9644,-5.0269,-5.0712,-5.0712,-5.0712,-5.0712,-5.0712,-5.0799,-5.0814,-5.0702,-5.0808,-5.0805,-5.0702,-5.0712,-5.0712,-5.0712,-5.0712,-5.0712,-5.0712,-5.0712,-5.0712,-5.0712,-5.0712,-5.0789,-5.0991,-5.1818,-5.2654,-5.353,-5.4395,-5.4761,-5.4799,-5.5434,-5.5703,-5.5703,-5.5703,-5.5703,-5.5703,-5.5703,-5.5703,-5.5703,0.0,0.0,0.0,0.0,0.0,0.0,0.0,0.0,0.0,0.0,0.0,0.0,0.0,-4.1191,0.0,0.0,-4.1191,-4.1191,-4.1191,-4.1191,-4.1191,-4.1191,-4.1191,-4.1191,-4.1191,-4.1191,-4.1191,-4.1191,-4.1191,-4.1191,-4.1191,-4.1191,-4.1191,-4.1191,-4.1191,-4.1191,-4.1191,-4.1191,-4.1191,-4.1191,-4.1191,-4.1191,-4.1191,-4.1191,-4.1191,-4.1191,-4.1191,0.0,0.0,0.0,0.0,0.0,0.0,0.0,-3.7226,-3.6797,-3.7598,-3.8984,0.0,0.0,0.0,0.0,0.0,0.0,0.0,0.0,0.0,0.0,0.0,0.0,0.0,0.0,0.0,0.0,0.0,-4.8469,-4.8811,-4.9266,-4.9532,-4.9471,-4.9817,-5.0067,-5.0067,-5.0515,-5.0784,-5.0721,-5.0766,-5.0764,-5.0693,-5.0712,-5.0712,-5.0712,-5.0712,-5.0712,-5.0712,-5.0712,-5.0712,-5.0712,-5.0712,-5.0712,-5.0731,-5.1529,-5.2154,-5.2635,-5.351,-5.4107,-5.453,-5.4953,-5.5338,-5.5703,-5.5703,-5.5703,-5.5703,-5.5703,-5.5703,-5.5703,0.0,0.0,0.0,0.0,0.0,0.0,0.0,0.0,0.0,0.0,0.0,0.0,0.0,-4.1191,-4.1191,0.0,0.0,0.0,-4.1191,-4.1191,-4.1191,-4.1191,-4.1191,-4.1191,-4.1191,-4.1191,-4.1191,-4.1191,-4.1191,0.0,0.0,0.0,-4.1191,-4.1191,-4.1191,-4.1191,-4.1191,-4.1191,-4.1191,-4.1191,-4.1191,-4.1191,-4.1191,-4.1191,-4.1191,-4.1172,-4.1035,-4.0508,-3.9883,-3.9726,0.0,0.0,0.0,0.0,-3.6934,-3.6211,-3.7129,-3.8769,0.0,0.0,0.0,0.0,0.0,0.0,0.0,0.0,0.0,0.0,0.0,0.0,0.0,0.0,0.0,0.0,0.0,0.0,0.0,0.0,-4.8285,-4.818,-4.8784,-4.92,-4.92,-4.9864,-5.0327,-5.0462,-5.0518,-5.0585,-5.0693,-5.0712,-5.0712,-5.0693,-5.0712,-5.0712,-5.0712,-5.0712,-5.0712,-5.0712,-5.0712,-5.0712,-5.0731,-5.1395,-5.1692,-5.1731,-5.2606,-5.3376,-5.4068,-5.4203,-5.4664,-5.528,-5.5434,-5.5491,-5.5511,-5.5645,-5.5703,-5.5703,0.0,0.0,0.0,0.0,0.0,0.0,0.0,0.0,0.0,0.0,-4.1191,-4.1191,0.0,-4.1191,-4.1191,-4.1191,-4.1191,-4.1191,-4.1191,0.0,0.0,-4.1191,-4.1191,-4.1191,-4.1191,-4.1191,-4.1191,-4.1191,0.0,0.0,0.0,0.0,0.0,-4.1191,0.0,-4.1191,-4.1191,-4.1191,-4.1191,-4.1191,-4.1191,-4.1191,-4.1191,-4.1191,-4.1191,-4.1094,-4.0332,-4.0,-3.9785,-3.9023,-3.8184,0.0,0.0,0.0,-3.6152,-3.6035,-3.6699,-3.7851,0.0,0.0,0.0,0.0,0.0,0.0,0.0,0.0,0.0,0.0,0.0,0.0,0.0,0.0,0.0,0.0,0.0,0.0,0.0,0.0,0.0,-4.845,-4.8451,-4.845,-4.845,-4.8542,-4.8879,-4.9528,-4.9801,-5.0145,-5.0673,-5.0805,-5.0822,-5.0693,-5.0712,-5.0712,-5.0712,-5.0712,-5.0712,-5.0712,-5.0712,-5.0712,-5.0712,-5.0808,-5.0856,-5.0914,-5.1722,-5.2135,-5.2308,-5.3068,-5.3433,-5.3606,-5.4376,-5.4664,-5.4741,-5.5434,-5.5703,-5.5703,0.0,0.0,0.0,0.0,0.0,0.0,0.0,0.0,0.0,0.0,0.0,-4.1191,0.0,-4.1191,-4.1191,-4.1191,-4.1191,-4.1191,-4.1191,-4.1191,-4.1191,-4.1191,-4.1191,-4.1191,-4.1191,-4.1191,-4.1191,-4.1191,0.0,0.0,0.0,-3.9961,-4.0254,0.0,0.0,0.0,0.0,-4.1191,-4.1191,-4.1191,-4.1191,-4.0918,-4.0527,-4.1016,-4.0586,-3.9766,-3.9863,-3.9277,-3.8379,-3.8008,-3.7285,-3.6562,-3.6562,0.0,0.0,0.0,0.0,0.0,0.0,0.0,0.0,0.0,0.0,0.0,0.0,0.0,0.0,0.0,0.0,0.0,0.0,0.0,0.0,0.0,0.0,0.0,0.0,0.0,0.0,0.0,-4.7411,-4.7684,-4.7684,-4.805,-4.8426,-4.8759,-4.8829,-4.9211,-5.0041,-5.0074,-5.0278,-5.0795,-5.074,-5.0712,-5.0712,-5.0712,-5.0712,-5.0712,-5.0712,-5.0712,-5.0712,-5.0712,-5.0712,-5.0731,-5.1068,-5.1491,-5.1923,-5.2308,-5.276,-5.3241,-5.3626,-5.378,-5.3818,-5.4164,-5.4607,-5.503,0.0,0.0,0.0,0.0,0.0,0.0,0.0,0.0,0.0,0.0,0.0,0.0,0.0,0.0,0.0,0.0,-4.1171,-4.1191,-4.1191,-4.1191,-4.1191,-4.1191,-4.1191,-4.1191,-4.1191,-4.1191,-4.1094,0.0,0.0,0.0,-3.9551,-3.8906,-3.9297,0.0,-4.0547,-4.0547,0.0,0.0,-4.0547,-4.0547,-4.0547,-4.0156,-3.9648,-4.0293,-3.9726,-3.8691,-3.9336,-3.8594,-3.7305,-3.7305,-3.6719,-3.5996,-3.5996,-3.5996,0.0,0.0,0.0,0.0,0.0,0.0,0.0,0.0,0.0,0.0,0.0,0.0,0.0,0.0,0.0,0.0,0.0,0.0,0.0,0.0,0.0,0.0,0.0,0.0,0.0,0.0,-4.6559,-4.6929,-4.6929,-4.7395,-4.7766,-4.7951,-4.7909,-4.8288,-4.9216,-4.9388,-4.9796,-5.0552,-5.064,-5.0712,-5.0712,-5.0712,-5.0712,-5.0712,-5.0712,-5.0712,-5.0712,-5.0712,-5.0712,-5.0712,-5.0712,-5.1029,-5.1606,-5.1606,-5.1991,-5.2587,-5.2799,-5.2876,-5.2895,-5.3126,-5.3606,-5.4164,0.0,0.0,0.0,0.0,0.0,0.0,0.0,0.0,0.0,0.0,0.0,0.0,0.0,-4.1019,-4.1019,-4.1019,-4.1127,-4.1191,-4.1191,-4.1191,-4.1191,-4.1191,-4.1191,0.0,-4.1191,-4.1191,0.0,0.0,0.0,0.0,-3.8672,-3.8613,-3.8652,-3.873,-3.873,-3.873,-3.873,0.0,0.0,-3.873,-3.873,-3.8711,-3.8672,0.0,0.0,0.0,-3.8652,-3.8086,-3.7305,-3.7305,-3.6719,-3.5996,-3.5996,-3.5996,-3.5996,0.0,0.0,0.0,0.0,0.0,0.0,0.0,0.0,0.0,0.0,0.0,0.0,0.0,0.0,0.0,0.0,0.0,0.0,0.0,0.0,0.0,0.0,0.0,0.0,0.0,0.0,-4.6162,-4.6162,-4.6072,-4.6304,-4.7016,-4.7176,-4.7561,-4.8326,-4.9132,-4.9616,-4.9667,-5.0342,-5.0712,-5.0712,-5.0712,-5.0712,-5.0712,-5.0712,-5.0712,-5.0712,-5.0712,-5.0712,-5.0712,-5.0712,-5.0731,-5.077,-5.077,-5.0789,-5.0923,-5.1683,-5.1962,-5.2077,-5.2895,-5.3241,-5.328,0.0,0.0,0.0,0.0,0.0,0.0,0.0,0.0,0.0,0.0,0.0,0.0,0.0,-4.087,-4.087,-4.087,-4.0917,-4.093,-4.093,-4.093,-4.093,-4.093,-4.1025,-4.1077,-4.1077,-4.115,0.0,0.0,0.0,-3.8613,-3.7754,-3.7187,-3.6934,-3.6973,-3.8105,-3.8594,-3.8594,-3.8594,0.0,-3.9434,-3.9434,-3.9434,-3.9492,0.0,0.0,-3.875,-3.9863,-3.9707,-3.9043,-3.9609,-3.9219,-3.8418,-3.7851,-3.7285,-3.6719,0.0,0.0,0.0,0.0,0.0,0.0,0.0,0.0,0.0,0.0,0.0,0.0,0.0,0.0,0.0,0.0,0.0,0.0,0.0,0.0,0.0,0.0,0.0,0.0,0.0,0.0,-4.6225,-4.6225,-4.6113,-4.6091,-4.6284,-4.6299,-4.6666,-4.7494,-4.7791,-4.8225,-4.8871,-4.9616,-5.0214,-5.0693,-5.0712,-5.0712,-5.0712,-5.0712,-5.0712,-5.0712,-5.0712,-5.0712,-5.0712,-5.0712,-5.0712,-5.0712,-5.0712,-5.0712,-5.0731,-5.101,-5.1125,-5.1164,-5.1471,-5.1914,-5.2365,0.0,0.0,0.0,0.0,0.0,-4.0603,0.0,0.0,0.0,0.0,0.0,0.0,0.0,0.0,-4.0847,-4.0922,-4.0883,-4.0899,-4.0925,-4.0925,-4.0925,-4.0925,-4.1023,-4.1076,-4.1076,0.0,0.0,0.0,0.0,0.0,0.0,-3.6269,-3.5996,-3.6055,-3.7207,-3.7734,0.0,0.0,0.0,-3.9043,-3.9355,-3.9453,-3.9551,0.0,-4.0039,-3.9258,-4.0996,-4.1055,-4.0469,-4.1328,-4.084,-3.9805,-3.9219,-3.8242,0.0,0.0,0.0,0.0,0.0,0.0,0.0,0.0,0.0,0.0,0.0,0.0,0.0,0.0,0.0,0.0,0.0,0.0,0.0,0.0,0.0,0.0,0.0,0.0,0.0,0.0,0.0,0.0,-4.6308,-4.6223,-4.6115,-4.5981,-4.5924,0.0,-4.6671,-4.6925,-4.7509,-4.8477,-4.922,-4.9838,-5.0322,-5.0577,-5.0712,-5.0712,-5.0712,-5.0712,-5.0712,-5.0712,-5.0712,-5.0712,-5.0712,-5.0712,-5.0712,-5.0712,-5.0712,-5.0712,-5.0712,-5.0712,-5.0712,-5.0712,-5.1029,-5.151,0.0,-4.0496,-4.0496,-4.0496,-4.0496,-4.0496,-4.0496,0.0,0.0,0.0,0.0,0.0,0.0,0.0,0.0,-4.115,-4.1055,-4.1051,-4.1171,-4.1191,-4.1191,-4.1191,-4.1191,-4.1191,-4.1191,0.0,0.0,0.0,0.0,0.0,0.0,0.0,-3.5996,-3.5996,-3.5996,-3.6016,-3.6094,0.0,-3.7324,-3.7441,-3.832,-3.8691,-3.8809,0.0,-4.0019,-4.0234,-4.1875,-4.1973,-4.1445,-4.2246,-4.1406,0.0,0.0,0.0,0.0,0.0,0.0,0.0,0.0,0.0,0.0,0.0,0.0,0.0,0.0,0.0,0.0,0.0,0.0,0.0,0.0,0.0,0.0,0.0,0.0,0.0,0.0,0.0,0.0,0.0,0.0,0.0,-4.6308,-4.6308,-4.6247,-4.6113,-4.6108,-4.6039,-4.5903,-4.6692,-4.7563,-4.8429,-4.9188,-4.9577,-4.9609,-5.0342,-5.0693,-5.0712,-5.0712,-5.0712,-5.0712,-5.0712,-5.0712,-5.0712,-5.0712,-5.0712,-5.0712,-5.0712,-5.0712,-5.0712,-5.0712,-5.0712,-5.0712,-5.0712,-5.0712,-5.0712,-4.0496,-4.0496,-4.0496,-4.0496,-4.0496,-4.0496,0.0,0.0,0.0,0.0,0.0,0.0,0.0,0.0,-4.0617,-4.0688,-4.0747,-4.0795,-4.0846,-4.088,-4.0914,-4.0914,-4.0996,-4.1054,-4.1054,0.0,0.0,0.0,0.0,0.0,0.0,0.0,0.0,0.0,-3.5996,-3.6348,-3.6953,-3.7207,0.0,-3.9258,-4.0137,-4.082,0.0,0.0,0.0,-4.2793,-4.3887,-4.4141,-4.4082,-4.4922,-4.4082,-4.2324,0.0,0.0,0.0,0.0,0.0,0.0,-3.9297,0.0,0.0,0.0,0.0,0.0,-4.2578,-4.2949,-4.3476,0.0,0.0,0.0,0.0,0.0,0.0,0.0,0.0,0.0,0.0,0.0,0.0,0.0,0.0,0.0,0.0,-4.6308,-4.6247,0.0,-4.6108,-4.6014,-4.5844,-4.6105,-4.6691,-4.7668,-4.8506,-4.9148,-4.9589,-5.0442,-5.0808,-5.0712,-5.0712,-5.0712,-5.0712,-5.0712,-5.0712,-5.0712,-5.0712,-5.0712,-5.0712,-5.0712,-5.0712,-5.0712,-5.0712,-5.0712,-5.0712,-5.0712,-5.0712,-5.0712,-4.0496,-4.0496,-4.0496,-4.0496,-4.0496,-4.0496,0.0,0.0,0.0,0.0,0.0,0.0,0.0,0.0,0.0,-4.0629,-4.0704,-4.0732,-4.0732,-4.0784,-4.0797,-4.0797,-4.087,-4.093,0.0,0.0,0.0,0.0,0.0,0.0,0.0,0.0,0.0,0.0,-3.6387,-3.7031,0.0,0.0,0.0,0.0,-4.0996,0.0,0.0,-4.3379,-4.3691,0.0,-4.5098,-4.5547,-4.5625,-4.6133,-4.5371,0.0,0.0,0.0,0.0,0.0,0.0,0.0,0.0,0.0,0.0,0.0,0.0,0.0,-4.1797,-4.2168,-4.2793,0.0,0.0,0.0,0.0,0.0,0.0,0.0,0.0,0.0,0.0,0.0,0.0,0.0,0.0,0.0,0.0,-4.6308,-4.6268,-4.6198,-4.6177,-4.6104,-4.5939,-4.5955,-4.6242,-4.6845,-4.7704,-4.85,-4.922,-5.0033,-5.0577,-5.0875,-5.0805,-5.0814,-5.0856,-5.0748,-5.073,-5.0773,-5.0712,-5.0712,-5.0712,-5.0712,-5.0712,-5.0712,-5.0712,-5.0712,-5.0712,-5.0712,-5.0712,-5.0712,0.0,-4.0496,-4.0496,-4.0496,-4.0496,0.0,0.0,0.0,0.0,0.0,0.0,0.0,0.0,0.0,0.0,0.0,0.0,-4.0781,-4.0781,-4.0793,0.0,0.0,0.0,0.0,0.0,0.0,0.0,0.0,0.0,0.0,0.0,0.0,0.0,0.0,-3.6953,-3.7832,-3.8809,0.0,0.0,-4.1348,-4.1445,-4.1953,0.0,0.0,-4.3984,-4.4199,-4.5742,-4.6308,-4.6269,-4.6074,-4.5566,0.0,0.0,0.0,0.0,0.0,-3.957,0.0,0.0,0.0,0.0,0.0,-4.1191,0.0,-4.1308,-4.1816,-4.2539,-4.3496,0.0,0.0,0.0,0.0,0.0,0.0,0.0,0.0,0.0,0.0,0.0,0.0,0.0,0.0,-4.6308,-4.6308,-4.6308,-4.6308,-4.6289,-4.6226,-4.614,-4.6113,-4.6113,-4.6119,-4.6973,-4.7789,-4.8545,-4.9403,-5.0204,-5.0953,-5.094,-5.0985,-5.1084,-5.0859,-5.0805,-5.0911,-5.0808,-5.073,-5.073,-5.073,-5.0721,-5.0712,-5.0712,-5.0712,-5.0712,-5.0712,-5.0712,-5.0712,-4.0496,-4.0496,-4.0496,-4.0496,0.0,0.0,0.0,0.0,0.0,0.0,0.0,0.0,0.0,0.0,0.0,0.0,0.0,0.0,0.0,0.0,0.0,0.0,0.0,0.0,0.0,0.0,0.0,0.0,0.0,0.0,0.0,0.0,0.0,0.0,-3.7226,-3.8164,-3.9668,0.0,0.0,-4.2226,-4.293,-4.373,-4.459,-4.5469,-4.5781,-4.584,-4.6172,-4.6308,-4.6094,-4.4687,-4.4551,-4.4668,0.0,0.0,0.0,-4.1953,0.0,0.0,0.0,0.0,0.0,0.0,-4.1191,0.0,-4.2012,-4.1797,-4.1875,0.0,0.0,0.0,0.0,0.0,0.0,0.0,0.0,0.0,0.0,0.0,0.0,0.0,0.0,0.0,-4.6308,-4.6308,-4.6308,-4.6308,-4.62,-4.6174,-4.6267,-4.617,-4.6147,-4.6268,-4.7107,-4.7587,-4.7645,-4.9193,-4.999,-5.0053,-5.0733,-5.1063,-5.1108,-5.1056,-5.1045,-5.1067,-5.102,-5.1027,-5.1027,-5.1027,-5.0882,-5.0712,-5.0712,-5.0712,-5.0712,-5.0712,-5.0712,-5.0712,-4.0496,-4.0496,-4.0496,-4.0496,0.0,0.0,0.0,0.0,0.0,0.0,0.0,0.0,0.0,0.0,0.0,0.0,0.0,0.0,0.0,0.0,0.0,0.0,0.0,0.0,0.0,0.0,0.0,0.0,0.0,0.0,0.0,0.0,0.0,0.0,0.0,0.0,0.0,0.0,-4.1875,-4.3047,-4.3047,0.0,-4.4453,-4.5312,-4.5644,-4.5703,-4.6133,-4.6308,-4.6094,-4.4785,-4.4648,0.0,-4.3457,-4.2754,-4.2402,0.0,-4.1836,-4.1191,0.0,0.0,0.0,-4.1191,-4.1191,0.0,0.0,-4.1484,-4.1543,-4.2793,-4.2383,0.0,0.0,0.0,0.0,0.0,0.0,0.0,0.0,0.0,0.0,0.0,0.0,0.0,-4.6308,-4.6308,-4.6308,-4.6308,-4.6246,-4.62,-4.62,-4.62,-4.62,-4.62,-4.6698,-4.7127,-4.7507,-4.8796,-4.9645,-5.0008,-5.0771,-5.1184,-5.1257,-5.1148,-5.1126,-5.1156,-5.1117,-5.1089,-5.1089,-5.1089,-5.1027,-5.0901,-5.083,-5.0757,-5.0712,-5.0712,-5.0712,-5.0712,-4.0496,-4.0496,-4.0496,-4.0496,0.0,0.0,0.0,0.0,0.0,0.0,0.0,0.0,0.0,0.0,0.0,0.0,0.0,0.0,0.0,0.0,0.0,0.0,0.0,-4.0552,0.0,0.0,0.0,0.0,0.0,0.0,0.0,0.0,0.0,0.0,0.0,0.0,0.0,0.0,0.0,-4.3652,0.0,-4.332,-4.4043,-4.4922,-4.5156,-4.5117,-4.5996,-4.6308,-4.6172,-4.5293,-4.5117,-4.5078,-4.4023,-4.3223,0.0,0.0,0.0,0.0,0.0,0.0,0.0,0.0,0.0,-4.1191,0.0,0.0,0.0,-4.2031,0.0,0.0,0.0,0.0,0.0,0.0,0.0,0.0,0.0,0.0,0.0,0.0,0.0,0.0,-4.6035,-4.6191,-4.6308,-4.6308,-4.6308,-4.6248,-4.6145,-4.6246,-4.6247,-4.6145,-4.6247,-4.6641,-4.7344,-4.8203,-4.9082,-4.9961,-5.0669,-5.1158,-5.1387,-5.1227,-5.1184,-5.1236,-5.1177,-5.116,-5.116,-5.116,-5.1148,-5.1117,-5.0991,-5.0859,-5.074,-5.074,-5.0712,-5.0712,-4.0496,-4.0496,-4.0496,-4.0496,0.0,0.0,0.0,0.0,0.0,0.0,0.0,0.0,0.0,0.0,0.0,0.0,0.0,0.0,-4.0496,0.0,0.0,0.0,0.0,0.0,-4.0527,0.0,0.0,0.0,0.0,0.0,0.0,0.0,0.0,0.0,-3.9805,0.0,0.0,0.0,-4.2891,0.0,-4.4433,-4.4766,0.0,-4.582,-4.5664,-4.5117,-4.5996,-4.6308,-4.6172,0.0,-4.5508,-4.5879,0.0,-4.3633,-4.3398,-4.2637,0.0,0.0,0.0,0.0,0.0,0.0,-4.1191,-4.1191,-4.1191,0.0,-4.123,-4.1328,0.0,0.0,0.0,0.0,0.0,0.0,0.0,0.0,0.0,0.0,0.0,0.0,0.0,-4.4297,-4.5078,-4.5859,-4.6308,-4.6308,-4.6308,-4.6289,-4.6289,-4.6289,-4.6289,-4.6289,-4.6289,-4.6348,-4.6445,-4.7305,-4.8183,-4.9062,-4.9902,-5.0703,-5.1406,-5.1386,-5.1366,-5.1386,-5.1365,-5.1365,-5.1365,-5.1365,-5.1292,-5.1183,-5.1102,-5.0997,-5.0879,-5.0879,-5.0797,-5.0712,-4.0496,-4.0496,-4.0496,-4.0496,0.0,0.0,0.0,0.0,0.0,0.0,0.0,0.0,0.0,0.0,0.0,0.0,-4.1758,-4.147,-4.197,0.0,0.0,0.0,0.0,0.0,0.0,0.0,0.0,0.0,-3.938,0.0,0.0,0.0,0.0,0.0,-4.0758,0.0,-4.2461,0.0,-4.3764,0.0,0.0,0.0,0.0,-4.5781,-4.6074,-4.5801,-4.6172,-4.6308,-4.623,0.0,-4.5664,0.0,0.0,0.0,0.0,-4.3105,0.0,0.0,0.0,0.0,0.0,0.0,0.0,0.0,-4.1308,0.0,-4.1191,0.0,0.0,0.0,0.0,0.0,0.0,0.0,-4.1016,0.0,0.0,0.0,0.0,0.0,0.0,0.0,-4.4922,-4.4863,-4.5,-4.5508,-4.5547,-4.5547,-4.5547,-4.6035,-4.6308,-4.6308,-4.6308,-4.6308,-4.6308,-4.7168,-4.8047,-4.8906,-4.9785,-5.0625,-5.1406,-5.1406,-5.1406,-5.1406,-5.1406,-5.1406,-5.1406,-5.1406,-5.1366,-5.1318,-5.1283,-5.1124,-5.0908,-5.0908,-5.0856,-5.0797,-4.0496,-4.0496,-4.0496,0.0,0.0,0.0,0.0,0.0,0.0,0.0,0.0,0.0,-4.2047,-4.1373,0.0,0.0,-4.2643,-4.2431,-4.3066,-4.2277,-4.22,0.0,0.0,-4.1143,0.0,0.0,0.0,0.0,0.0,0.0,0.0,0.0,0.0,0.0,0.0,-4.2111,-4.2809,0.0,-4.4456,-4.4473,-4.5098,-4.498,-4.4512,-4.5547,-4.6094,-4.6308,-4.6308,-4.6308,-4.6308,-4.6308,-4.5879,0.0,-4.582,-4.4648,-4.3183,0.0,0.0,0.0,-4.2598,0.0,0.0,0.0,0.0,0.0,0.0,0.0,0.0,0.0,0.0,0.0,0.0,0.0,0.0,0.0,0.0,-4.1035,0.0,0.0,0.0,0.0,0.0,0.0,0.0,-4.3926,-4.3965,-4.4609,-4.4648,-4.4746,-4.498,-4.5605,-4.6055,-4.6289,-4.6308,-4.6308,-4.6308,-4.6933,-4.7793,-4.8906,-4.9531,-5.0391,-5.1406,-5.1406,-5.1406,-5.1406,-5.1406,-5.1406,-5.1406,-5.1406,-5.1406,-5.1406,-5.1406,-5.1221,-5.0977,-5.0977,-5.0966,-5.0945,-4.0496,-4.0496,0.0,0.0,0.0,0.0,0.0,0.0,0.0,0.0,0.0,0.0,0.0,0.0,0.0,0.0,0.0,-4.3066,-4.3104,-4.2277,-4.22,0.0,-4.2239,-4.1769,-4.1788,0.0,0.0,0.0,0.0,0.0,0.0,0.0,0.0,0.0,0.0,-4.1851,-4.3558,-4.3615,-4.4634,-4.6211,-4.625,-4.623,-4.6133,0.0,-4.5566,-4.6308,-4.6308,0.0,0.0,-4.6308,-4.6289,0.0,0.0,0.0,0.0,0.0,0.0,0.0,0.0,0.0,0.0,-4.3457,0.0,0.0,0.0,0.0,-4.1191,0.0,0.0,0.0,0.0,0.0,0.0,0.0,0.0,0.0,0.0,0.0,0.0,0.0,0.0,0.0,0.0,-4.3223,-4.3711,-4.373,-4.373,-4.4101,-4.4941,-4.5039,-4.543,-4.6269,-4.6308,-4.6308,-4.6308,-4.6328,-4.7207,-4.8906,-4.8926,-4.9805,-5.1406,-5.1406,-5.1406,-5.1406,-5.1406,-5.1406,-5.1406,-5.1406,-5.1406,-5.1406,-5.1406,-5.1319,-5.1196,-5.1196,-5.1144,-5.1084,-4.0496,-4.0496,0.0,0.0,0.0,0.0,0.0,-4.0496,0.0,0.0,-4.1354,0.0,0.0,-4.3162,-4.3335,-4.5017,-4.4374,-4.4143,-4.4729,-4.3932,-4.3835,-4.4729,-4.3412,-4.2662,-4.2662,0.0,0.0,0.0,0.0,0.0,0.0,0.0,0.0,0.0,0.0,-4.2262,0.0,0.0,0.0,0.0,0.0,-4.5098,-4.4668,0.0,-4.6035,-4.6308,-4.6308,-4.6308,0.0,-4.6308,-4.6308,-4.625,-4.5957,-4.5469,-4.4941,-4.4648,-4.4141,-4.3828,0.0,0.0,-4.4199,-4.4492,0.0,0.0,0.0,0.0,0.0,0.0,0.0,0.0,0.0,0.0,0.0,0.0,0.0,0.0,0.0,0.0,0.0,0.0,0.0,0.0,0.0,0.0,0.0,-4.2793,-4.2832,-4.3223,-4.4082,-4.4687,-4.5391,-4.6269,-4.6308,-4.6308,-4.6308,-4.6308,-4.7168,-4.8906,-4.8906,-4.9785,-5.1406,-5.1406,-5.1406,-5.1406,-5.1406,-5.1406,-5.1406,-5.1406,-5.1406,-5.1406,-5.1406,-5.1366,-5.1321,-5.1236,-5.1188,-5.1242,-4.0496,-4.0496,-4.0496,0.0,0.0,0.0,0.0,0.0,0.0,0.0,-4.1873,0.0,-4.3758,0.0,-4.4085,-4.5479,-4.5094,-4.4998,-4.5556,-4.4778,-4.4682,-4.5556,-4.4259,-4.3528,-4.3528,0.0,0.0,0.0,0.0,-4.0496,0.0,0.0,0.0,0.0,0.0,-4.1987,-4.3111,-4.3895,-4.4531,0.0,0.0,-4.4668,0.0,0.0,-4.584,-4.5879,0.0,-4.6308,-4.6308,-4.6308,-4.6308,-4.6308,-4.6308,-4.5918,-4.5469,-4.5469,-4.5058,-4.4746,-4.5312,-4.5234,0.0,-4.5371,-4.457,0.0,-4.3379,0.0,-4.209,0.0,0.0,0.0,0.0,0.0,0.0,0.0,0.0,0.0,0.0,-4.1191,0.0,0.0,0.0,0.0,0.0,0.0,-4.1406,-4.1933,-4.1973,-4.248,0.0,-4.4238,-4.5078,-4.6269,-4.6308,-4.6308,-4.6308,-4.6308,-4.7168,-4.8906,-4.8906,-4.9785,-5.1406,-5.1406,-5.1406,-5.1406,-5.1406,-5.1406,-5.1406,-5.1406,-5.1406,-5.1406,-5.1406,-5.1406,-5.1386,-5.1297,-5.1465,-5.1817,-4.0496,-4.0496,-4.0496,0.0,-4.0496,0.0,0.0,0.0,-4.145,0.0,-4.2047,-4.3124,-4.3162,-4.3874,-4.4701,-4.5537,-4.5594,-4.5594,-4.5594,-4.4816,0.0,0.0,-4.4797,-4.4335,-4.4297,0.0,0.0,0.0,0.0,0.0,0.0,0.0,0.0,0.0,-4.0496,0.0,-4.2152,-4.2973,-4.3987,-4.5,-4.5058,-4.5039,-4.5,-4.5058,-4.5039,-4.5117,-4.5996,-4.6308,-4.6308,-4.6308,-4.6308,-4.6308,-4.6308,-4.6308,-4.6308,-4.6308,-4.6308,-4.6308,-4.6308,-4.5703,-4.5254,-4.6094,-4.5019,0.0,0.0,0.0,-4.3691,0.0,0.0,0.0,0.0,0.0,0.0,0.0,0.0,0.0,0.0,0.0,0.0,0.0,0.0,0.0,0.0,-4.1191,-4.1191,-4.1191,-4.1191,0.0,0.0,-4.3672,-4.4473,-4.6172,-4.6289,-4.6308,-4.6308,-4.6308,-4.7168,-4.8906,-4.8906,-4.9785,-5.1406,-5.1406,-5.1406,-5.1406,-5.1406,-5.1406,-5.1406,-5.1406,-5.1406,-5.1406,-5.1406,-5.1406,-5.1406,-5.1445,-5.1992,-5.2715,-4.0496,-4.0496,-4.0496,-4.0496,-4.0496,-4.0496,-4.0496,0.0,0.0,0.0,-4.2412,-4.3335,-4.3932,-4.4739,-4.5364,-4.5575,-4.5594,0.0,0.0,0.0,0.0,-4.5594,-4.5383,-4.496,-4.4316,-4.3508,-4.2662,-4.1788,0.0,0.0,-4.0496,0.0,0.0,0.0,0.0,0.0,-4.2113,-4.2346,-4.3419,-4.5058,-4.5703,-4.5586,-4.5078,0.0,-4.5566,-4.5117,-4.5996,-4.6308,-4.6308,-4.6308,-4.6308,-4.6308,-4.6308,-4.6308,-4.6308,-4.6308,-4.6308,-4.6308,-4.6308,-4.6133,-4.6016,-4.623,-4.5488,-4.4726,0.0,0.0,0.0,0.0,0.0,0.0,0.0,0.0,0.0,0.0,0.0,0.0,0.0,0.0,0.0,-4.1191,0.0,0.0,-4.1191,-4.1191,-4.1191,-4.1191,-4.1191,0.0,0.0,0.0,-4.4199,-4.5293,-4.5957,-4.6308,-4.6308,-4.6308,-4.7168,-4.8906,-4.8906,-4.9785,-5.1406,-5.1406,-5.1406,-5.1406,-5.1406,-5.1406,-5.1406,-5.1406,-5.1406,-5.1406,-5.1406,-5.1406,-5.1484,-5.2129,-5.2519,-5.2891,-4.0496,-4.0496,-4.0496,-4.0496,0.0,0.0,-4.1008,-4.1681,0.0,-4.2835,-4.4297,0.0,-4.5432,-4.6182,-4.6682,-4.6682,-4.6682,0.0,-4.6682,0.0,0.0,-4.6182,-4.6163,-4.5759,-4.4893,-4.4047,0.0,-4.2374,0.0,0.0,-4.0496,0.0,0.0,0.0,0.0,-4.0874,-4.1534,-4.2396,-4.339,-4.4467,-4.5371,-4.5449,0.0,-4.5547,-4.5664,-4.5625,-4.6113,-4.6308,-4.6308,-4.6308,-4.6308,-4.6308,-4.6308,-4.6308,-4.6308,-4.6308,-4.6308,-4.6308,-4.6308,-4.6308,-4.6308,-4.6308,-4.5937,-4.5566,-4.5566,-4.5195,-4.4844,0.0,-4.4531,-4.4121,0.0,0.0,0.0,0.0,0.0,0.0,0.0,0.0,0.0,0.0,-4.1191,-4.1191,-4.1191,-4.1191,-4.1191,-4.1191,-4.1191,0.0,0.0,0.0,-4.3711,-4.4961,-4.5488,-4.5547,-4.5176,-4.5918,-4.6973,-4.834,-4.8711,-4.9785,-5.1406,-5.1406,-5.1406,-5.1406,-5.1406,-5.1406,-5.1406,-5.1406,-5.1406,-5.1406,-5.1406,-5.1621,-5.207,-5.2949,-5.3262,-5.3457,-4.0496,-4.0496,-4.0573,0.0,0.0,0.0,0.0,-4.3412,0.0,-4.4432,0.0,-4.7682,-4.6981,-4.7625,-4.8105,-4.8105,-4.8105,-4.8105,-4.8105,-4.8105,-4.7798,-4.7077,-4.6962,-4.6547,-4.5787,-4.4797,-4.3912,0.0,0.0,0.0,0.0,0.0,0.0,0.0,0.0,0.0,0.0,-4.2821,-4.3677,-4.3862,-4.4802,-4.5176,-4.5176,-4.5176,-4.5644,-4.6308,-4.6308,-4.6308,-4.6308,-4.6308,-4.6308,-4.6308,-4.6308,-4.6308,-4.6308,-4.6308,-4.6308,-4.6308,-4.6308,-4.6308,-4.6308,-4.6308,-4.6308,-4.6308,-4.6308,-4.6308,-4.6308,-4.6308,-4.5703,-4.5137,-4.5019,0.0,0.0,0.0,0.0,0.0,0.0,0.0,0.0,0.0,0.0,0.0,-4.1211,-4.1191,-4.1191,-4.1191,0.0,0.0,0.0,0.0,-4.3086,-4.4609,-4.4883,-4.4648,-4.3887,-4.5605,-4.6914,-4.7773,-4.8652,-4.9883,-5.1406,-5.1406,-5.1406,-5.1406,-5.1406,-5.1406,-5.1406,-5.1406,-5.1406,-5.1406,-5.1523,-5.2031,-5.2812,-5.3808,-5.418,-5.4297,-4.0496,-4.0496,0.0,0.0,0.0,-4.2566,-4.5538,-4.447,-4.3816,-4.519,-4.6394,-4.7058,-4.6923,-4.7625,-4.8105,-4.8105,-4.8105,0.0,0.0,0.0,0.0,-4.7894,-4.725,-4.6827,-4.6682,-4.5105,-4.3912,0.0,0.0,0.0,0.0,0.0,0.0,0.0,0.0,0.0,-4.1937,-4.3097,0.0,-4.4823,-4.5722,-4.6074,-4.6074,-4.6074,-4.6172,-4.6308,-4.6308,-4.6308,-4.6308,-4.6308,-4.6308,-4.6308,-4.6308,-4.6308,-4.6308,-4.6308,-4.6308,-4.6308,-4.6308,-4.6308,-4.6308,-4.6308,-4.6308,-4.6308,-4.6308,-4.6308,-4.6308,-4.6308,-4.6172,-4.5859,-4.5137,0.0,0.0,0.0,0.0,0.0,0.0,0.0,0.0,0.0,0.0,-4.1933,-4.1269,-4.1191,-4.1191,0.0,0.0,0.0,0.0,0.0,-4.2539,0.0,-4.4258,0.0,0.0,0.0,-4.7812,-4.8672,-4.9551,-5.0469,-5.1406,-5.1406,-5.1406,-5.1406,-5.1406,-5.1406,-5.1406,-5.1406,-5.1406,-5.1465,-5.2187,-5.2578,-5.2891,-5.4492,-5.5078,-5.5195,-4.1162,0.0,0.0,0.0,0.0,0.0,0.0,-4.622,-4.6144,-4.7413,-4.8336,-4.8875,-4.8875,-4.9221,-4.9452,-4.9452,-4.9452,-4.9452,-4.9452,-4.9452,-4.924,-4.8798,-4.8394,-4.799,-4.7528,-4.6297,-4.5028,-4.372,0.0,0.0,0.0,0.0,0.0,0.0,0.0,-4.1468,0.0,0.0,0.0,-4.4922,-4.5915,-4.6308,-4.6308,-4.6308,-4.6308,-4.6308,-4.6308,-4.6308,-4.6308,-4.6308,-4.6308,-4.6308,-4.6308,-4.6308,-4.6308,-4.6308,-4.6308,-4.6308,-4.6308,-4.6308,-4.6308,-4.6308,-4.6308,-4.6308,-4.6308,-4.6308,-4.6308,-4.6308,-4.6308,-4.6035,-4.5156,-4.4316,0.0,0.0,0.0,0.0,0.0,0.0,-4.2266,0.0,0.0,0.0,0.0,0.0,0.0,0.0,0.0,0.0,0.0,0.0,-4.2187,0.0,0.0,0.0,-4.3652,0.0,-4.7578,-4.7578,-4.9355,-5.0625,-5.1406,-5.1406,-5.1406,-5.1406,-5.1406,-5.1406,-5.1406,-5.1406,-5.1406,-5.1484,-5.2363,-5.2988,-5.3535,-5.4824,-5.5586,-5.6035,-4.2566,-4.3008,0.0,0.0,-4.4278,-4.522,-4.7144,-4.7971,-4.8682,-4.9548,-5.0269,-5.0712,-5.0712,-5.0712,-5.0712,-5.0712,-5.0712,-5.0712,-5.0712,-5.0712,-5.0385,-4.9702,-4.949,-4.9086,-4.8394,-4.7567,-4.6394,0.0,0.0,0.0,0.0,0.0,0.0,0.0,0.0,0.0,0.0,0.0,-4.479,-4.5078,-4.592,-4.6269,-4.6308,-4.6308,-4.6308,-4.6308,-4.6308,-4.6308,-4.6308,-4.6308,-4.6308,-4.6308,-4.6308,-4.6308,-4.6308,-4.6308,-4.6308,-4.6308,-4.6308,-4.6308,-4.6308,-4.6308,-4.6308,-4.6308,-4.6308,-4.6308,-4.6308,-4.6308,-4.6308,-4.6094,-4.5391,-4.5117,0.0,0.0,0.0,0.0,0.0,0.0,-4.2617,0.0,0.0,0.0,-4.2422,0.0,0.0,0.0,0.0,0.0,-4.2363,0.0,0.0,0.0,0.0,-4.3262,-4.2969,0.0,-4.7441,-4.7168,-4.9394,-5.0781,-5.1406,-5.1406,-5.1406,-5.1406,-5.1406,-5.1406,-5.1406,-5.1406,-5.1504,-5.1758,-5.2637,-5.3516,-5.4375,-5.5254,-5.6015,-5.6601,0.0,0.0,0.0,0.0,0.0,-4.6306,-4.8779,-4.9221,-4.9586,-5.0462,-5.0654,-5.0712,-5.0712,-5.0712,-5.0712,-5.0712,-5.0712,-5.0712,-5.0712,-5.0712,-5.0654,-5.0577,-4.9817,-4.9356,-4.9279,-4.8432,-4.7548,0.0,0.0,-4.3335,0.0,0.0,0.0,0.0,0.0,0.0,0.0,-4.444,-4.507,-4.5984,-4.6074,-4.6198,-4.6308,-4.6308,-4.6308,-4.6308,-4.6308,-4.6308,-4.6308,-4.6308,-4.6308,-4.6308,-4.6308,-4.6308,-4.6308,-4.6308,-4.6308,-4.6308,-4.6308,-4.6308,-4.6308,-4.6308,-4.6308,-4.6308,-4.6308,-4.6308,-4.6308,-4.6308,-4.6308,-4.6289,-4.6191,-4.5527,-4.4707,0.0,0.0,0.0,0.0,0.0,-4.3281,-4.248,0.0,0.0,-4.248,-4.168,0.0,0.0,-4.1191,0.0,0.0,0.0,0.0,-4.248,-4.2519,-4.3242,-4.4746,-4.6641,-4.8359,-4.9844,-5.082,-5.1328,-5.1406,-5.1406,-5.1406,-5.1406,-5.1406,-5.1406,-5.1406,-5.1406,-5.1875,-5.2656,-5.3535,-5.4414,-5.5273,-5.6152,-5.6523,-5.6601,0.0,0.0,0.0,0.0,0.0,0.0,0.0,-5.026,-5.1029,-5.1375,-5.0991,-5.0875,-5.1375,-5.1414,-5.1414,-5.1414,-5.1414,-5.1221,-5.0731,-5.0712,-5.0712,-5.0712,-5.0366,-5.0183,-5.0183,-4.9336,-4.8471,0.0,0.0,0.0,0.0,0.0,0.0,0.0,0.0,-4.3692,-4.4423,-4.5021,-4.5539,-4.5988,-4.6075,-4.6488,-4.707,-4.707,-4.7402,-4.7851,-4.7851,-4.7851,-4.7851,-4.7851,-4.7168,-4.6308,-4.6308,-4.6308,-4.6308,-4.6308,-4.6308,-4.6308,-4.6308,-4.6308,-4.6308,-4.6308,-4.6308,-4.6308,-4.6308,-4.6308,-4.6308,-4.6308,-4.6308,-4.6308,-4.6308,-4.6016,-4.5488,-4.4629,0.0,0.0,0.0,0.0,0.0,-4.2578,0.0,-4.3555,0.0,-4.1973,0.0,0.0,0.0,0.0,0.0,0.0,0.0,-4.3144,0.0,-4.4551,-4.5762,-4.7519,-4.873,-4.9433,-5.0762,-5.1406,-5.1406,-5.1406,-5.1406,-5.1406,-5.1406,-5.1406,-5.1445,-5.1953,-5.2383,-5.2832,-5.4238,-5.498,-5.541,-5.6289,-5.6601,-5.6601,-4.7855,0.0,-4.8567,0.0,-4.9375,-4.9856,-5.0106,-5.1356,-5.2269,-5.2269,-5.1798,-5.1645,-5.2212,-5.2269,-5.2269,-5.2269,-5.2269,-5.2049,-5.1471,-5.1202,-5.1048,-5.1048,-5.0827,0.0,-5.0712,-5.0087,-4.9471,-4.8856,-4.7163,0.0,0.0,0.0,0.0,0.0,-4.5066,-4.5201,-4.546,-4.6175,-4.6532,-4.663,-4.6745,-4.7249,-4.7926,-4.7968,-4.8359,-4.8906,-4.8906,-4.8906,-4.8906,-4.8906,-4.8086,-4.7051,-4.7051,-4.7051,-4.7051,-4.7051,-4.7051,-4.7051,-4.7051,-4.7051,-4.7051,-4.7051,-4.6875,-4.668,-4.668,-4.6484,-4.6308,-4.6308,-4.6308,-4.6308,-4.6308,-4.6308,-4.6016,-4.5137,0.0,0.0,0.0,-4.3906,0.0,-4.2617,-4.3164,-4.3691,-4.3691,-4.2402,0.0,0.0,0.0,0.0,0.0,0.0,0.0,0.0,0.0,0.0,-4.668,-4.7891,-4.8887,-4.9648,-5.082,-5.1406,-5.1406,-5.1406,-5.1406,-5.1406,-5.1406,-5.1543,-5.1836,-5.2441,-5.3008,-5.3594,-5.4824,-5.5469,-5.5762,-5.6367,-5.6601,-5.6601,-5.0481,-4.9971,-4.9663,-5.0519,-5.0673,-5.0952,-5.175,-5.2615,-5.3183,-5.3183,-5.3183,-5.3164,-5.3183,-5.3183,-5.3183,-5.3183,-5.3183,-5.3183,-5.3164,-5.2365,-5.1885,0.0,0.0,-5.0712,-5.0712,-5.0693,-5.0673,-5.0673,0.0,0.0,-4.6827,0.0,-4.522,-4.6865,-4.6865,-4.7317,-4.8048,-4.8067,-4.8161,-4.8275,-4.8418,-4.8553,-4.8708,-4.8825,-4.8887,-4.8906,-4.8906,-4.8906,-4.8906,-4.8906,-4.8887,-4.8867,-4.8867,-4.8867,-4.8867,-4.8867,-4.8867,-4.8867,-4.8867,-4.8867,-4.8867,-4.8867,-4.8223,-4.7578,-4.7578,-4.6914,-4.6308,-4.6308,-4.6308,-4.6308,-4.6308,-4.6308,-4.6016,-4.5137,0.0,0.0,0.0,-4.3906,0.0,-4.2617,-4.3164,-4.3691,-4.3691,-4.2891,0.0,0.0,0.0,0.0,0.0,0.0,0.0,-4.3652,-4.2871,0.0,-4.7558,-4.7617,-4.8887,-5.1367,-5.1387,-5.1406,-5.1406,-5.1406,-5.1406,-5.1406,-5.1406,-5.1894,-5.2695,-5.2695,-5.3711,-5.5273,-5.5293,-5.582,-5.6582,-5.6601,-5.6601,-5.6601,-5.2222,-5.2183,-5.2087,-5.2356,-5.2395,-5.2491,-5.276,-5.353,-5.4087,-5.4087,-5.4568,-5.4895,-5.4895,-5.4414,-5.4087,0.0,-5.4087,-5.3837,0.0,-5.2953,-5.2519,-5.1923,-5.1654,-5.126,-5.0712,-5.0712,-5.0712,-5.0712,0.0,0.0,0.0,-4.7432,-4.7509,-4.8586,-4.799,-4.7855,-4.8105,-4.8105,-4.8172,-4.8313,-4.8452,-4.8943,-4.9606,-4.9743,-5.0137,-5.0605,-5.0605,-5.0605,-5.0605,-5.0605,-5.0605,-5.0605,-5.0605,-4.9824,-4.8906,-4.8906,-4.8906,-4.8906,-4.8906,-4.8906,-4.8906,-4.8906,-4.8691,-4.8496,-4.8496,-4.8262,-4.7891,-4.7305,-4.7187,-4.6992,-4.6406,-4.6308,-4.6016,-4.5137,-4.5508,0.0,-4.3535,0.0,-4.457,-4.3418,-4.3535,-4.3926,-4.4531,-4.3808,0.0,0.0,0.0,0.0,0.0,0.0,0.0,0.0,-4.6367,0.0,-4.9355,-4.9375,-5.0058,-5.1406,-5.1406,-5.1406,-5.1406,-5.1406,-5.1406,-5.1426,-5.2031,-5.2441,-5.2793,-5.3984,-5.4805,-5.5351,-5.5957,-5.6367,-5.6601,-5.6601,-5.6601,-5.6601,-5.3087,-5.3203,-5.3299,-5.3626,-5.3683,-5.3799,-5.4087,-5.4607,-5.4953,-5.4953,-5.5395,-5.5703,-5.5703,-5.5241,0.0,-5.4953,-5.4953,-5.4722,-5.4164,-5.3857,-5.3453,-5.2895,-5.2558,-5.201,-5.1164,-5.1144,0.0,-5.0712,-5.0144,-4.9894,-4.9875,-4.9336,-4.9375,-4.9856,-4.9317,-4.9086,-4.9086,-4.9086,-4.9111,-4.9215,-4.9356,-4.9814,-5.0423,-5.0528,-5.0915,-5.1406,-5.1406,-5.1406,-5.1406,-5.1406,-5.1406,-5.1406,-5.1406,-5.0683,-4.9844,-4.9844,-4.9844,-4.9844,-4.9844,-4.9844,-4.9844,-4.9844,-4.9609,-4.9297,-4.8965,-4.8906,-4.875,-4.8203,-4.8086,-4.793,-4.7383,-4.7285,-4.6992,-4.6113,-4.6426,-4.6172,-4.4433,0.0,-4.5039,0.0,0.0,-4.4394,0.0,-4.4805,-4.4687,0.0,0.0,0.0,0.0,0.0,-4.5898,-4.6758,-4.7832,-4.8984,-5.0195,-5.0195,-5.0605,-5.1406,-5.1406,-5.1406,-5.1406,-5.1738,-5.1894,-5.1933,-5.2812,-5.3379,-5.3769,-5.4844,-5.5488,-5.584,-5.6387,-5.6601,-5.6601,-5.6601,-5.6601,-5.6601,-5.3376,-5.3376,-5.3626,-5.4434,-5.4587,-5.4838,-5.5588,-5.5703,-5.5703,-5.5703,-5.5703,-5.5703,-5.5703,-5.5703,-5.5703,-5.5703,0.0,0.0,-5.5703,-5.4991,-5.4549,-5.4491,-5.3722,-5.2876,-5.2,-5.1923,-5.151,-5.0712,-5.0712,-5.0712,-5.0712,-5.0712,-5.0712,-5.0712,-5.0712,-5.0712,-5.0712,-5.0712,-5.0712,-5.0712,-5.0844,-5.0972,-5.1094,-5.1171,-5.1271,-5.1386,-5.1406,-5.1406,-5.1406,-5.1406,-5.1406,-5.1406,-5.1406,-5.1406,-5.1406,-5.1406,-5.1406,-5.1406,-5.1406,-5.1406,-5.1406,-5.1406,-5.084,-5.0078,-4.9258,-4.9062,-4.9062,-4.9004,-4.8984,-4.8965,-4.8906,-4.8906,-4.8633,-4.7812,-4.7695,-4.7109,-4.543,-4.5879,-4.5781,-4.416,0.0,0.0,-4.5254,-4.5996,-4.6465,0.0,0.0,0.0,0.0,0.0,-4.6992,-4.7754,-4.7832,-4.8633,-5.0273,-5.0273,-5.0664,-5.1406,-5.1465,-5.1484,-5.1523,-5.2383,-5.2793,-5.2832,-5.3711,-5.4551,-5.5293,-5.5371,-5.5879,-5.6601,-5.6601,-5.6601,-5.6601,-5.6601,-5.6601,-5.6601,0.0,0.0,-5.5164,-5.5376,-5.5415,-5.5472,-5.5665,-5.5703,-5.5703,-5.5703,-5.5703,-5.5703,-5.5703,-5.5703,-5.5703,-5.5703,-5.5703,-5.5703,-5.5703,-5.5511,-5.5145,-5.453,-5.4299,-5.378,-5.2914,-5.2231,-5.151,-5.0712,-5.0712,-5.0712,-5.0712,-5.0712,-5.0712,-5.0712,-5.0712,-5.0712,-5.0712,-5.0712,-5.0712,-5.0712,-5.0844,-5.0918,-5.0972,-5.1147,-5.1213,-5.1267,-5.1366,-5.1406,-5.1406,-5.1406,-5.1406,-5.1406,-5.1406,-5.1406,-5.1406,-5.1406,-5.1406,-5.1406,-5.1406,-5.1406,-5.1406,-5.1406,-5.1269,-5.1055,-5.0859,-5.0801,-5.0625,-5.0019,-4.9883,-4.9687,-4.9023,-4.8906,-4.8828,-4.8633,-4.8594,-4.8223,-4.7148,-4.7168,-4.7148,0.0,-4.6855,-4.7246,-4.791,-4.8164,-4.8008,0.0,0.0,-4.8789,-4.7656,-4.9258,-5.0019,-4.9609,-5.0176,-5.0703,-5.1113,-5.1113,-5.1211,-5.1406,-5.207,-5.2383,-5.2422,-5.3281,-5.3691,-5.373,-5.4609,-5.5117,-5.5351,-5.6015,-5.6406,-5.6601,-5.6601,-5.6601,-5.6601,-5.6601,-5.6601,-5.6601,-5.5703,-5.5703,-5.5703,-5.5703,-5.5703,-5.5703,-5.5703,-5.5703,-5.5703,-5.5703,-5.5703,-5.5703,-5.5703,-5.5703,-5.5703,-5.5703,-5.5703,-5.5703,-5.5703,-5.5703,-5.5511,-5.5068,-5.5049,-5.4645,-5.3818,-5.3337,-5.2491,-5.1241,-5.1241,-5.1048,-5.0712,-5.0712,-5.0712,-5.0712,-5.0712,-5.0712,-5.0712,-5.0712,-5.0712,-5.0702,-5.0773,-5.0844,-5.0911,-5.1019,-5.1117,-5.1208,-5.1273,-5.1344,-5.1406,-5.1406,-5.1406,-5.1406,-5.1406,-5.1406,-5.1406,-5.1406,-5.1406,-5.1406,-5.1406,-5.1406,-5.1406,-5.1406,-5.1406,-5.1406,-5.1406,-5.1406,-5.1289,-5.084,-5.0742,-5.0605,-5.0137,-5.0039,-4.9922,-4.9551,-4.916,-4.8594,-4.7715,-4.7598,-4.7598,-4.7598,-4.7949,-4.8379,-4.8848,-4.9258,-4.9297,-4.8828,-4.9668,0.0,-4.9375,-5.0293,-5.0644,-5.0215,-5.0976,-5.1406,-5.1406,-5.1797,-5.1992,-5.1992,-5.2871,-5.3281,-5.332,-5.4199,-5.459,-5.4648,-5.5527,-5.5898,-5.5937,-5.6406,-5.6601,-5.6601,-5.6601,-5.6601,-5.6601,-5.6601,-5.6601,-5.6601,-5.5703,-5.5703,-5.5703,-5.5703,-5.5703,-5.5703,-5.5703,-5.5703,-5.5703,-5.5703,-5.5703,-5.5703,-5.5703,-5.5703,-5.5703,-5.5703,-5.5703,-5.5703,-5.5703,-5.5703,-5.5703,-5.5703,-5.5703,-5.5376,-5.4703,-5.4549,-5.3703,-5.2096,-5.2096,-5.176,-5.1077,-5.0933,-5.0875,-5.0875,-5.075,-5.0712,-5.0712,-5.0712,-5.0712,-5.0712,-5.0712,-5.0775,-5.0863,-5.0894,-5.1011,-5.1154,-5.1196,-5.127,-5.1366,-5.1387,-5.1406,-5.1406,-5.1406,-5.1406,-5.1406,-5.1406,-5.1406,-5.1406,-5.1406,-5.1406,-5.1406,-5.1406,-5.1406,-5.1406,-5.1406,-5.1406,-5.1406,-5.1406,-5.1406,-5.1406,-5.1406,-5.1406,-5.1133,-5.0332,-4.957,-4.8789,-4.793,0.0,-4.7988,-4.7988,-4.875,-4.9277,-4.9277,-4.9941,-5.0371,-5.0371,-5.0371,-5.0625,-5.1191,-5.0683,-5.0332,-5.0195,-5.0976,-5.1465,-5.1582,-5.2324,-5.2773,-5.291,-5.3789,-5.4199,-5.4238,-5.5098,-5.5508,-5.5547,-5.6289,-5.6601,-5.6601,-5.6601,-5.6601,-5.6601,-5.6601,-5.6601,-5.6601,-5.6601,-5.6601,-5.6601,-5.5703,-5.5703,-5.5703,-5.5703,-5.5703,-5.5703,-5.5703,-5.5703,-5.5703,-5.5703,-5.5703,-5.5703,-5.5703,-5.5703,-5.5703,-5.5703,-5.5703,-5.5703,-5.5703,-5.5703,-5.5703,-5.5703,-5.5703,-5.5645,-5.5511,-5.4857,-5.401,-5.301,-5.301,-5.2933,-5.2799,-5.2068,-5.1712,-5.1673,-5.0991,-5.0712,-5.0712,-5.0712,-5.0712,-5.0712,-5.0712,-5.0712,-5.073,-5.0867,-5.0925,-5.0972,-5.1135,-5.1208,-5.1242,-5.1366,-5.1406,-5.1406,-5.1406,-5.1406,-5.1406,-5.1406,-5.1406,-5.1406,-5.1406,-5.1406,-5.1406,-5.1406,-5.1406,-5.1406,-5.1406,-5.1406,-5.1406,-5.1406,-5.1406,-5.1406,-5.1406,-5.1406,-5.1133,-5.0332,-5.0098,-4.9687,-4.8828,0.0,-4.9805,-4.9805,-5.0527,-5.1016,-5.1016,-5.1133,-5.1211,-5.1211,-5.1211,-5.0976,-5.043,-5.0918,-5.0898,-5.0215,-5.0976,-5.1758,-5.248,-5.2637,-5.3066,-5.3808,-5.4687,-5.5098,-5.5137,-5.5996,-5.6406,-5.6406,-5.6543,-5.6601,-5.6601,-5.6601,-5.6601,-5.6601,-5.6601,-5.6601,-5.6601,-5.6601,-5.6601,-5.6601,-5.5703,-5.5703,-5.5703,-5.5703,-5.5703,-5.5703,-5.5703,-5.5703,-5.5703,-5.5703,-5.5703,-5.5703,-5.5703,-5.5703,-5.5703,-5.5703,-5.5703,-5.5703,-5.5703,-5.5703,-5.5703,-5.5703,-5.5703,-5.5703,-5.5703,-5.5338,-5.4741,-5.3895,-5.3895,-5.3664,-5.3203,-5.2799,-5.2596,-5.2577,-5.2202,-5.2049,-5.2049,-5.2049,-5.1779,-5.1356,-5.1356,-5.1087,-5.0702,-5.0775,-5.0835,-5.0911,-5.1011,-5.1083,-5.116,-5.1222,-5.1256,-5.1295,-5.1295,-5.1344,-5.1406,-5.1406,-5.1406,-5.1406,-5.1406,-5.1406,-5.1406,-5.1406,-5.1406,-5.1406,-5.1406,-5.1406,-5.1406,-5.1406,-5.1406,-5.1406,-5.1406,-5.1406,-5.1133,-5.0332,-5.0195,-4.9902,-4.9023,-4.9648,-5.0195,-5.0195,-5.0918,-5.1406,-5.1406,-5.1406,-5.1406,-5.1406,-5.1406,-5.123,-5.0879,-5.1641,-5.1933,-5.1562,-5.1914,-5.2519,-5.3398,-5.3867,-5.4297,-5.4707,-5.5586,-5.5996,-5.6015,-5.6426,-5.6601,-5.6601,-5.6601,-5.6601,-5.6601,-5.6601,-5.6601,-5.6601,-5.6601,-5.6601,-5.6601,-5.6601,-5.6601,-5.6601,-5.5703,-5.5703,-5.5703,-5.5703,-5.5703,-5.5703,-5.5703,-5.5703,-5.5703,-5.5703,-5.5703,-5.5703,-5.5703,-5.5703,-5.5703,-5.5703,-5.5703,-5.5703,-5.5703,-5.5703,-5.5703,-5.5703,-5.5703,-5.5703,-5.5703,-5.5703,-5.5395,-5.478,-5.478,-5.4434,-5.378,-5.3587,-5.351,-5.3491,-5.3299,-5.3203,-5.3203,-5.3203,-5.2818,-5.2192,-5.2192,-5.1837,-5.1279,-5.1279,-5.1344,-5.1439,-5.1467,-5.1561,-5.165,-5.1662,-5.1717,-5.1762,-5.1781,-5.1874,-5.195,-5.1992,-5.1992,-5.1992,-5.1992,-5.1992,-5.1992,-5.1992,-5.1992,-5.1953,-5.1758,-5.1699,-5.1641,-5.1445,-5.1406,-5.1406,-5.1406,-5.1406,-5.1133,-5.0332,0.0,-4.9961,-4.9297,-4.9785,-5.0273,-5.0469,-5.1016,-5.1406,-5.1406,-5.1406,-5.1406,-5.1406,-5.1582,-5.1699,-5.1699,-5.2539,-5.3105,-5.3301,-5.3105,-5.3418,-5.4297,-5.4961,-5.539,-5.5605,-5.6289,-5.6601,-5.6601,-5.6601,-5.6601,-5.6601,-5.6601,-5.6601,-5.6601,-5.6601,-5.6601,-5.6601,-5.6601,-5.6601,-5.6601,-5.6601,-5.6601,-5.6601,-5.5703,-5.5703,-5.5703,-5.5703,-5.5703,-5.5703,-5.5703,-5.5703,-5.5703,-5.5703,-5.5703,-5.5703,-5.5703,-5.5703,-5.5703,-5.5703,-5.5703,-5.5703,-5.5703,-5.5703,-5.5703,-5.5703,-5.5703,-5.5703,-5.5703,-5.5703,-5.5665,-5.5607,-5.5607,-5.5568,-5.5491,-5.4741,-5.4395,-5.4376,-5.3568,-5.3203,-5.3203,-5.3203,-5.3164,-5.3106,-5.3106,-5.3068,-5.3029,-5.3029,-5.302,-5.3051,-5.3172,-5.3213,-5.325,-5.3369,-5.3418,-5.3448,-5.3572,-5.3618,-5.3654,-5.3767,-5.3808,-5.3808,-5.3808,-5.3808,-5.3808,-5.3808,-5.3808,-5.3594,-5.2793,-5.2598,-5.2383,-5.1562,-5.1406,-5.1406,-5.1406,-5.1406,-5.1133,-5.0332,0.0,0.0,-5.0117,-5.0156,-5.0488,-5.1211,-5.1367,-5.1406,-5.1406,-5.1406,-5.1406,-5.1406,-5.2148,-5.2598,-5.2598,-5.3437,-5.4277,-5.5078,-5.4336,-5.4316,-5.5195,-5.5273,-5.5703,-5.6504,-5.6562,-5.6601,-5.6601,-5.6601,-5.6601,-5.6601,-5.6601,-5.6601,-5.6601,-5.6601,-5.6601,-5.6601,-5.6601,-5.6601,-5.6601,-5.6601,-5.6601,-5.6601,-5.7319,-5.7319,-5.7319,-5.7319,-5.7319,-5.7319,-5.7319,-5.7319,-5.7126,-5.6579,-5.6522,-5.631,-5.5761,-5.5703,-5.5703,-5.5703,-5.5703,-5.5703,-5.5703,-5.5703,-5.5703,-5.5703,-5.5703,-5.5703,-5.5703,-5.5703,-5.5703,-5.5703,-5.5703,-5.5703,-5.5684,-5.5395,-5.5241,-5.5222,-5.4895,-5.4741,-5.4741,-5.4741,-5.4453,-5.401,-5.401,-5.3683,-5.3203,-5.3203,-5.3203,-5.3213,-5.3253,-5.3291,-5.3281,-5.3331,-5.3406,-5.3475,-5.3539,-5.3676,-5.3921,-5.4607,-5.4805,-5.4922,-5.5469,-5.4824,-5.4004,-5.4004,-5.4004,-5.3906,-5.3574,-5.3516,-5.3418,-5.3086,-5.3008,-5.3008,-5.3008,-5.3008,-5.2734,-5.1894,0.0,-5.1562,-5.1016,-5.0937,-5.1055,-5.1367,-5.1406,-5.1601,-5.2148,-5.2207,-5.2422,-5.2969,-5.332,-5.3516,-5.3516,-5.4336,-5.5215,-5.6074,-5.5781,-5.5762,-5.6094,-5.6113,-5.6269,-5.6601,-5.6601,-5.6601,-5.6601,-5.6601,-5.6601,-5.6601,-5.6601,-5.6601,-5.6601,-5.6601,-5.6601,-5.6601,-5.6601,-5.6601,-5.6601,-5.6601,-5.6601,-5.6601,-5.83,-5.83,-5.83,-5.83,-5.83,-5.83,-5.83,-5.83,-5.8088,-5.7492,-5.7407,-5.7184,-5.6588,-5.6261,-5.6107,-5.6107,-5.5857,-5.5703,-5.5703,-5.5703,-5.5703,-5.5703,-5.5703,-5.5703,-5.5703,-5.5703,-5.5703,-5.5703,-5.5703,-5.5703,-5.5703,-5.5703,-5.5703,-5.5703,-5.5703,-5.5703,-5.5703,-5.5703,-5.5376,-5.4876,-5.4876,-5.4511,-5.3991,-5.3991,-5.3991,-5.3991,-5.3991,-5.3991,-5.3991,-5.3991,-5.4053,-5.4141,-5.4169,-5.4346,-5.4681,-5.5378,-5.5585,-5.5702,-5.6307,-5.5632,-5.4762,-5.4804,-5.4824,-5.4746,-5.4473,-5.4414,-5.4336,-5.4062,-5.4004,-5.4004,-5.4004,-5.4004,-5.3808,-5.3203,-5.3105,-5.2891,-5.2305,-5.2226,-5.2226,-5.2226,-5.2226,-5.2441,-5.3047,-5.3105,-5.3359,-5.3965,-5.4258,-5.4531,-5.4805,-5.5371,-5.5976,-5.6582,-5.6601,-5.6601,-5.6601,-5.6601,-5.6601,-5.6601,-5.6601,-5.6601,-5.6601,-5.6601,-5.6601,-5.6601,-5.6601,-5.6601,-5.6601,-5.6601,-5.6601,-5.6601,-5.6601,-5.6601,-5.6601,-5.6601,-5.6601,-5.6601,-5.8319,-5.8319,-5.8319,-5.8319,-5.8319,-5.8319,-5.8319,-5.8319,-5.8319,-5.8319,-5.8319,-5.8319,-5.83,-5.753,-5.7003,-5.7003,-5.6214,-5.5703,-5.5703,-5.5703,-5.5703,-5.5703,-5.5703,-5.5703,-5.5703,-5.5703,-5.5703,-5.5703,-5.5703,-5.5703,-5.5703,-5.5703,-5.5703,-5.5703,-5.5703,-5.5703,-5.5703,-5.5703,-5.5703,-5.5703,-5.5703,-5.5703,-5.5703,-5.5703,-5.5703,-5.5703,-5.5703,-5.5703,-5.5703,-5.5703,-5.5703,-5.5717,-5.5868,-5.6038,-5.6191,-5.6191,-5.6191,-5.6191,-5.6191,-5.6301,-5.6426,-5.6561,-5.6601,-5.6367,-5.5508,-5.5312,-5.5058,-5.4199,-5.4023,-5.4023,-5.4023,-5.4023,-5.4023,-5.4023,-5.4004,-5.4004,-5.4004,-5.4004,-5.4004,-5.4004,-5.4004,-5.4004,-5.4004,-5.4004,-5.4004,-5.4023,-5.4824,-5.5683,-5.6543,-5.6601,-5.6601,-5.6601,-5.6601,-5.6601,-5.6601,-5.6601,-5.6601,-5.6601,-5.6601,-5.6601,-5.6601,-5.6601,-5.6601,-5.6601,-5.6601,-5.6601,-5.6601,-5.6601,-5.6601,-5.6601,-5.6601,-5.6601,-5.6601,-5.6601,-5.6601,-5.6601,-6.005,-6.005,-6.005,-6.005,-6.005,-6.005,-6.005,-6.005,-5.9838,-5.9223,-5.9146,-5.8934,-5.8357,-5.8069,-5.7915,-5.7915,-5.7107,-5.6349,-5.5742,-5.5703,-5.5703,-5.5703,-5.5703,-5.5703,-5.5703,-5.5703,-5.5703,-5.5703,-5.5703,-5.5703,-5.5703,-5.5703,-5.5703,-5.5703,-5.5703,-5.5703,-5.5703,-5.5703,-5.5703,-5.5703,-5.5703,-5.5703,-5.5703,-5.5703,-5.5703,-5.5703,-5.5703,-5.5703,-5.5703,-5.5703,-5.5703,-5.5717,-5.5868,-5.5944,-5.6017,-5.6164,-5.6191,-5.6191,-5.6191,-5.6222,-5.6297,-5.6424,-5.6536,-5.6523,-5.6269,-5.6211,-5.6133,-5.5879,-5.582,-5.582,-5.582,-5.582,-5.582,-5.582,-5.5312,-5.4902,-5.4902,-5.4394,-5.4004,-5.4004,-5.4004,-5.4238,-5.4844,-5.4902,-5.5176,-5.5781,-5.6074,-5.6328,-5.6582,-5.6601,-5.6601,-5.6601,-5.6601,-5.6601,-5.6601,-5.6601,-5.6601,-5.6601,-5.6601,-5.6601,-5.6601,-5.6601,-5.6601,-5.6601,-5.6601,-5.6601,-5.6601,-5.6601,-5.6601,-5.6601,-5.6601,-5.6601,-5.6601,-5.6601,-5.6601,-5.6601,-6.08,-6.08,-6.08,-6.08,-6.08,-6.08,-6.08,-6.08,-6.0608,-6.0089,-6.0012,-5.9838,-5.9338,-5.8973,-5.8781,-5.8781,-5.7992,-5.728,-5.6761,-5.6722,-5.6569,-5.6233,-5.6214,-5.6049,-5.5703,-5.5703,-5.5703,-5.5703,-5.5703,-5.5703,-5.5703,-5.5703,-5.5703,-5.5703,-5.5703,-5.5703,-5.5703,-5.5703,-5.5703,-5.5703,-5.5703,-5.5703,-5.5703,-5.5703,-5.5703,-5.5703,-5.5703,-5.5703,-5.5703,-5.5703,-5.5703,-5.5716,-5.5798,-5.5825,-5.5833,-5.5975,-5.5993,-5.5993,-5.5993,-5.6044,-5.6103,-5.6173,-5.6315,-5.6456,-5.6512,-5.6515,-5.6537,-5.6582,-5.6601,-5.6601,-5.6601,-5.6601,-5.6601,-5.6601,-5.6152,-5.5801,-5.5801,-5.5351,-5.5039,-5.5039,-5.5039,-5.5234,-5.5762,-5.5801,-5.6035,-5.6562,-5.6601,-5.6601,-5.6601,-5.6601,-5.6601,-5.6601,-5.6601,-5.6601,-5.6601,-5.6601,-5.6601,-5.6601,-5.6601,-5.6601,-5.6601,-5.6601,-5.6601,-5.6601,-5.6601,-5.6601,-5.6601,-5.6601,-5.6601,-5.6601,-5.6601,-5.6601,-5.6601,-5.6601,-5.6601,-5.6601,-6.08,-6.08,-6.08,-6.08,-6.08,-6.08,-6.08,-6.08,-6.08,-6.08,-6.08,-6.08,-6.08,-6.0089,-5.9627,-5.9627,-5.8877,-5.8377,-5.83,-5.83,-5.7953,-5.7157,-5.7118,-5.6753,-5.5953,-5.578,-5.5703,-5.5703,-5.5703,-5.5703,-5.5703,-5.5703,-5.5703,-5.5703,-5.5703,-5.5703,-5.5703,-5.5703,-5.5703,-5.5703,-5.5703,-5.5703,-5.5703,-5.5703,-5.5703,-5.5703,-5.5703,-5.5703,-5.5703,-5.5703,-5.5703,-5.5703,-5.5703,-5.5703,-5.5703,-5.5703,-5.5703,-5.5703,-5.5703,-5.5789,-5.5872,-5.5872,-5.6017,-5.6197,-5.6358,-5.638,-5.6421,-5.656,-5.6581,-5.6582,-5.6601,-5.6601,-5.6601,-5.6601,-5.6601,-5.6601,-5.6601,-5.6601,-5.6601,-5.6601,-5.6601,-5.6601,-5.6601,-5.6601,-5.6601,-5.6601,-5.6601,-5.6601,-5.6601,-5.6601,-5.6601,-5.6601,-5.6601,-5.6601,-5.6601,-5.6601,-5.6601,-5.6601,-5.6601,-5.6601,-5.6601,-5.6601,-5.6601,-5.6601,-5.6601,-5.6601,-5.6601,-5.6601,-5.6601,-5.6601,-5.6601,-5.6601,-5.6601,-5.6601,-5.6601,-5.6601,-6.08,-6.08,-6.08,-6.08,-6.08,-6.08,-6.08,-6.08,-6.08,-6.08,-6.08,-6.08,-6.08,-6.0627,-6.0512,-6.0512,-5.9723,-5.8973,-5.8338,-5.83,-5.8223,-5.803,-5.8011,-5.7934,-5.7742,-5.6395,-5.5703,-5.5703,-5.5703,-5.5703,-5.5703,-5.5703,-5.5703,-5.5703,-5.5703,-5.5703,-5.5703,-5.5703,-5.5703,-5.5703,-5.5703,-5.5703,-5.5703,-5.5703,-5.5703,-5.5703,-5.5703,-5.5703,-5.5703,-5.5703,-5.5703,-5.5703,-5.5703,-5.5703,-5.5703,-5.5703,-5.5703,-5.5703,-5.5703,-5.5707,-5.5739,-5.5739,-5.5779,-5.5879,-5.6181,-5.6237,-5.6288,-5.6419,-5.643,-5.6483,-5.6581,-5.6601,-5.6601,-5.6601,-5.6601,-5.6601,-5.6601,-5.6601,-5.6601,-5.6601,-5.6601,-5.6601,-5.6601,-5.6601,-5.6601,-5.6601,-5.6601,-5.6601,-5.6601,-5.6601,-5.6601,-5.6601,-5.6601,-5.6601,-5.6601,-5.6601,-5.6601,-5.6601,-5.6601,-5.6601,-5.6601,-5.6601,-5.6601,-5.6601,-5.6601,-5.6601,-5.6601,-5.6601,-5.6601,-5.6601,-5.6601,-5.6601,-5.6601,-5.6601,-5.6601,-5.6699,-6.08,-6.08,-6.08,-6.08,-6.08,-6.08,-6.08,-6.08,-6.08,-6.08,-6.08,-6.08,-6.08,-6.08,-6.08,-6.08,-6.0377,-5.9935,-5.9511,-5.9492,-5.9319,-5.8896,-5.8877,-5.8684,-5.8319,-5.7415,-5.6934,-5.6934,-5.6934,-5.6934,-5.6934,-5.6511,-5.6329,-5.631,-5.5876,-5.5703,-5.5703,-5.5703,-5.5703,-5.5703,-5.5703,-5.5703,-5.5703,-5.5703,-5.5703,-5.5703,-5.5703,-5.5703,-5.5703,-5.5703,-5.5703,-5.5703,-5.5703,-5.5703,-5.5703,-5.5703,-5.5703,-5.5703,-5.5703,-5.5703,-5.5703,-5.5703,-5.5703,-5.5759,-5.5996,-5.6058,-5.6103,-5.6264,-5.6365,-5.6391,-5.6416,-5.6514,-5.6581,-5.6514,-5.656,-5.6601,-5.6601,-5.6601,-5.6601,-5.6601,-5.6601,-5.6601,-5.6601,-5.6601,-5.6601,-5.6601,-5.6601,-5.6601,-5.6601,-5.6601,-5.6601,-5.6601,-5.6601,-5.6601,-5.6601,-5.6601,-5.6601,-5.6601,-5.6601,-5.6601,-5.6601,-5.6601,-5.6601,-5.6601,-5.6601,-5.6601,-5.6601,-5.6601,-5.6601,-5.6601,-5.6601,-5.6601,-5.664,-5.707,-5.748,-5.7969,-6.08,-6.08,-6.08,-6.08,-6.08,-6.08,-6.08,-6.08,-6.08,-6.08,-6.08,-6.08,-6.08,-6.08,-6.08,-6.08,-6.08,-6.08,-6.08,-6.08,-6.0473,-5.9742,-5.9723,-5.9415,-5.8742,-5.8723,-5.8588,-5.83,-5.83,-5.83,-5.828,-5.755,-5.7234,-5.7195,-5.6472,-5.6145,-5.6145,-5.6145,-5.6145,-5.6145,-5.6145,-5.6049,-5.5915,-5.5915,-5.5818,-5.5703,-5.5703,-5.5703,-5.5703,-5.5703,-5.5703,-5.5703,-5.5703,-5.5703,-5.5703,-5.5703,-5.5703,-5.5703,-5.5703,-5.5703,-5.5703,-5.5703,-5.5703,-5.5728,-5.5842,-5.5866,-5.5924,-5.6103,-5.6246,-5.6289,-5.6207,-5.6383,-5.6508,-5.638,-5.6483,-5.6561,-5.6561,-5.6582,-5.6601,-5.6601,-5.6601,-5.6601,-5.6601,-5.6601,-5.6601,-5.6601,-5.6601,-5.6601,-5.6601,-5.6601,-5.6601,-5.6601,-5.6601,-5.6601,-5.6601,-5.6601,-5.6601,-5.6601,-5.6601,-5.6601,-5.6601,-5.6601,-5.6601,-5.6601,-5.6601,-5.6601,-5.6601,-5.6601,-5.6601,-5.6601,-5.6601,-5.6699,-5.6933,-5.7793,-5.8672,-5.9492,-6.08,-6.08,-6.08,-6.08,-6.08,-6.08,-6.08,-6.08,-6.08,-6.08,-6.08,-6.08,-6.08,-6.08,-6.08,-6.08,-6.08,-6.08,-6.08,-6.08,-6.0742,-6.0627,-6.0608,-6.0569,-6.0454,-6.0454,-5.9742,-5.83,-5.83,-5.83,-5.83,-5.8184,-5.8127,-5.8127,-5.8011,-5.7953,-5.7953,-5.7953,-5.7953,-5.7953,-5.7953,-5.7492,-5.683,-5.683,-5.6368,-5.5703,-5.5703,-5.5703,-5.5703,-5.5703,-5.5703,-5.5703,-5.5703,-5.5703,-5.5703,-5.5703,-5.5703,-5.5703,-5.5703,-5.5703,-5.5703,-5.5703,-5.5703,-5.5695,-5.5717,-5.5728,-5.576,-5.5915,-5.5966,-5.6024,-5.6175,-5.6222,-5.6242,-5.6222,-5.6335,-5.6424,-5.6424,-5.6535,-5.6601,-5.6601,-5.6601,-5.6601,-5.6601,-5.6601,-5.6601,-5.6601,-5.6601,-5.6601,-5.6601,-5.6601,-5.6601,-5.6601,-5.6601,-5.6601,-5.6601,-5.6601,-5.6601,-5.6601,-5.6601,-5.6601,-5.6601,-5.6601,-5.6601,-5.6601,-5.6601,-5.6601,-5.6601,-5.6601,-5.6601,-5.6601,-5.6601,-5.7051,-5.7832,-5.8691,-5.9531,-6.0254,-6.08,-6.08,-6.08,-6.08,-6.08,-6.08,-6.08,-6.08,-6.08,-6.08,-6.08,-6.08,-6.08,-6.08,-6.08,-6.08,-6.08,-6.08,-6.08,-6.08,-6.08,-6.08,-6.08,-6.08,-6.08,-6.08,-6.0435,-5.9704,-5.9704,-5.9704,-5.9685,-5.9204,-5.8973,-5.8954,-5.8511,-5.83,-5.83,-5.83,-5.83,-5.83,-5.83,-5.8069,-5.7723,-5.7723,-5.7492,-5.7088,-5.6588,-5.6426,-5.6349,-5.5857,-5.5703,-5.5703,-5.5703,-5.5703,-5.5703,-5.5703,-5.5703,-5.5703,-5.5703,-5.5703,-5.5703,-5.5703,-5.5703,-5.5703,-5.5703,-5.5703,-5.5726,-5.5779,-5.5851,-5.5896,-5.591,-5.6071,-5.6164,-5.6051,-5.6172,-5.6317,-5.6383,-5.6383,-5.638,-5.638,-5.643,-5.6458,-5.6383,-5.6514,-5.6561,-5.6488,-5.656,-5.6601,-5.6601,-5.6601,-5.6601,-5.6601,-5.6601,-5.6601,-5.6601,-5.6601,-5.6601,-5.6601,-5.709,-5.707,-5.6601,-5.6601,-5.6601,-5.6601,-5.6601,-5.6601,-5.6601,-5.6601,-5.6894,-5.7324,-5.7324,-5.8125,-5.9336,-5.9726,-6.039,-6.1133]},{"header":{"parameterUnit":"m.s-1","parameterCategory":1,"la1":30.6,"la2":28.766,"lo1":-90.7593,"lo2":-88.6598,"dy":0.0162,"dx":0.0183,"nx":116,"ny":114,"refTime":"2024-02-21T06:00:00:Z","depth":0,"parameterNumber":3,"parameterNumberName":"V-component_of_WINDS"},"data":[0.0,0.0,0.0,0.0,0.0,0.0,0.0,0.0,0.0,0.0,0.0,0.0,0.0,0.0,0.0,0.0,0.0,0.0,0.0,0.0,0.0,0.0,0.0,0.0,0.0,0.0,0.0,0.0,0.0,0.0,0.0,0.0,0.0,0.0,0.0,0.0,0.0,0.0,0.0,0.0,0.0,0.0,0.0,0.0,0.0,0.0,0.0,0.0,0.0,0.0,0.0,0.0,0.0,0.0,0.0,0.0,0.0,0.0,0.0,0.0,0.0,0.0,0.0,0.0,0.0,0.0,0.0,0.0,0.0,0.0,0.0,0.0,0.0,0.0,0.0,0.0,0.0,0.0,0.0,0.0,0.0,0.0,0.0,0.0,0.0,0.0,0.0,0.0,0.0,0.0,0.0,0.0,0.0,0.0,0.0,0.0,0.0,0.0,0.0,0.0,0.0,0.0,0.0,0.0,0.0,0.0,0.0,0.0,0.0,0.0,0.0,0.0,0.0,0.0,0.0,0.0,0.0,0.0,0.0,0.0,0.0,0.0,0.0,0.0,0.0,0.0,0.0,0.0,0.0,0.0,0.0,0.0,0.0,0.0,0.0,0.0,0.0,0.0,0.0,0.0,0.0,0.0,0.0,0.0,0.0,0.0,0.0,0.0,0.0,0.0,0.0,0.0,0.0,0.0,0.0,0.0,0.0,0.0,0.0,0.0,0.0,0.0,0.0,0.0,0.0,0.0,0.0,0.0,0.0,0.0,0.0,0.0,0.0,0.0,0.0,0.0,0.0,0.0,0.0,0.0,0.0,0.0,0.0,0.0,0.0,0.0,0.0,0.0,0.0,0.0,0.0,0.0,0.0,0.0,0.0,0.0,0.0,0.0,0.0,0.0,0.0,0.0,0.0,0.0,0.0,0.0,0.0,0.0,0.0,0.0,0.0,0.0,0.0,0.0,0.0,0.0,0.0,0.0,0.0,0.0,0.0,0.0,0.0,0.0,0.0,0.0,0.0,0.0,0.0,0.0,0.0,0.0,0.0,0.0,0.0,0.0,0.0,0.0,0.0,0.0,0.0,0.0,0.0,0.0,0.0,0.0,0.0,0.0,0.0,0.0,0.0,0.0,0.0,0.0,0.0,0.0,0.0,0.0,0.0,0.0,0.0,0.0,0.0,0.0,0.0,0.0,0.0,0.0,0.0,0.0,0.0,0.0,0.0,0.0,0.0,0.0,0.0,0.0,0.0,0.0,0.0,0.0,0.0,0.0,0.0,0.0,0.0,0.0,0.0,0.0,0.0,0.0,0.0,0.0,0.0,0.0,0.0,0.0,0.0,0.0,0.0,0.0,0.0,0.0,0.0,0.0,0.0,0.0,0.0,0.0,0.0,0.0,0.0,0.0,0.0,0.0,0.0,0.0,0.0,0.0,0.0,0.0,0.0,0.0,0.0,0.0,0.0,0.0,0.0,0.0,0.0,0.0,0.0,0.0,0.0,0.0,0.0,0.0,0.0,0.0,0.0,0.0,0.0,0.0,0.0,0.0,0.0,0.0,0.0,0.0,0.0,0.0,0.0,0.0,0.0,0.0,0.0,0.0,0.0,0.0,0.0,0.0,0.0,0.0,0.0,0.0,0.0,0.0,0.0,0.0,0.0,0.0,0.0,0.0,0.0,0.0,0.0,0.0,0.0,0.0,0.0,0.0,0.0,0.0,0.0,0.0,0.0,0.0,0.0,0.0,0.0,0.0,0.0,0.0,0.0,0.0,0.0,0.0,0.0,0.0,0.0,0.0,0.0,0.0,0.0,0.0,0.0,0.0,0.0,0.0,0.0,0.0,0.0,0.0,0.0,0.0,0.0,0.0,0.0,0.0,0.0,0.0,0.0,0.0,0.0,0.0,0.0,0.0,0.0,0.0,0.0,0.0,0.0,0.0,0.0,0.0,0.0,0.0,0.0,0.0,0.0,0.0,0.0,0.0,0.0,0.0,0.0,0.0,0.0,0.0,0.0,0.0,0.0,0.0,0.0,0.0,0.0,0.0,0.0,0.0,0.0,0.0,0.0,0.0,0.0,0.0,0.0,0.0,0.0,0.0,0.0,0.0,0.0,0.0,0.0,0.0,0.0,0.0,0.0,0.0,0.0,0.0,0.0,0.0,0.0,0.0,0.0,0.0,0.0,0.0,0.0,0.0,0.0,0.0,0.0,0.0,0.0,0.0,0.0,0.0,0.0,0.0,0.0,0.0,0.0,0.0,0.0,0.0,0.0,0.0,0.0,0.0,0.0,0.0,0.0,0.0,0.0,0.0,0.0,0.0,0.0,0.0,0.0,0.0,0.0,0.0,0.0,0.0,0.0,0.0,0.0,0.0,0.0,0.0,0.0,0.0,0.0,0.0,0.0,0.0,0.0,0.0,0.0,0.0,0.0,0.0,0.0,0.0,0.0,0.0,0.0,0.0,0.0,0.0,0.0,0.0,0.0,0.0,0.0,0.0,0.0,0.0,0.0,0.0,0.0,0.0,0.0,0.0,0.0,0.0,0.0,0.0,0.0,0.0,0.0,0.0,0.0,0.0,0.0,0.0,0.0,0.0,0.0,0.0,0.0,0.0,0.0,0.0,0.0,0.0,0.0,0.0,0.0,0.0,0.0,0.0,0.0,0.0,0.0,0.0,0.0,0.0,0.0,0.0,0.0,0.0,0.0,0.0,0.0,0.0,0.0,0.0,0.0,0.0,0.0,0.0,0.0,0.0,0.0,0.0,0.0,0.0,0.0,0.0,0.0,0.0,0.0,0.0,0.0,0.0,0.0,0.0,0.0,0.0,0.0,0.0,0.0,0.0,0.0,0.0,0.0,0.0,0.0,0.0,0.0,0.0,0.0,0.0,0.0,0.0,0.0,0.0,0.0,0.0,0.0,0.0,0.0,0.0,0.0,0.0,0.0,0.0,0.0,0.0,0.0,0.0,0.0,0.0,0.0,0.0,0.0,0.0,0.0,0.0,0.0,0.0,0.0,0.0,0.0,0.0,0.0,0.0,0.0,0.0,0.0,0.0,0.0,0.0,0.0,0.0,0.0,0.0,0.0,0.0,0.0,0.0,0.0,0.0,0.0,0.0,0.0,0.0,0.0,0.0,0.0,0.0,0.0,0.0,0.0,0.0,0.0,0.0,0.0,0.0,0.0,0.0,0.0,0.0,0.0,0.0,0.0,0.0,0.0,0.0,0.0,0.0,0.0,0.0,0.0,0.0,0.0,0.0,0.0,0.0,0.0,0.0,0.0,0.0,0.0,0.0,0.0,0.0,0.0,0.0,0.0,0.0,0.0,0.0,0.0,0.0,0.0,0.0,0.0,0.0,0.0,0.0,0.0,0.0,0.0,0.0,0.0,0.0,0.0,0.0,0.0,0.0,0.0,0.0,0.0,0.0,0.0,0.0,0.0,0.0,0.0,0.0,0.0,0.0,0.0,0.0,0.0,0.0,0.0,0.0,0.0,0.0,0.0,0.0,0.0,0.0,0.0,0.0,0.0,0.0,0.0,0.0,0.0,0.0,0.0,0.0,0.0,0.0,0.0,0.0,0.0,0.0,0.0,0.0,0.0,0.0,0.0,0.0,0.0,0.0,0.0,0.0,0.0,0.0,0.0,0.0,0.0,0.0,0.0,0.0,0.0,0.0,0.0,0.0,0.0,0.0,0.0,0.0,0.0,0.0,0.0,0.0,0.0,0.0,0.0,0.0,0.0,0.0,0.0,0.0,0.0,0.0,0.0,0.0,0.0,0.0,0.0,0.0,0.0,0.0,0.0,0.0,0.0,0.0,0.0,0.0,0.0,0.0,0.0,0.0,0.0,0.0,0.0,0.0,0.0,0.0,0.0,0.0,0.0,0.0,0.0,0.0,0.0,0.0,0.0,0.0,0.0,0.0,0.0,0.0,0.0,0.0,0.0,0.0,0.0,0.0,0.0,0.0,0.0,0.0,0.0,0.0,0.0,0.0,0.0,0.0,0.0,0.0,0.0,0.0,0.0,0.0,0.0,0.0,0.0,0.0,0.0,0.0,0.0,0.0,0.0,0.0,0.0,0.0,0.0,0.0,0.0,0.0,0.0,0.0,0.0,0.0,0.0,0.0,0.0,0.0,0.0,0.0,0.0,0.0,0.0,0.0,0.0,0.0,0.0,0.0,0.0,0.0,0.0,0.0,0.0,0.0,0.0,0.0,0.0,0.0,0.0,0.0,0.0,0.0,0.0,0.0,0.0,0.0,0.0,0.0,0.0,0.0,0.0,0.0,0.0,0.0,0.0,0.0,0.0,0.0,0.0,0.0,0.0,0.0,0.0,0.0,0.0,0.0,0.0,0.0,0.0,0.0,0.0,0.0,0.0,0.0,0.0,0.0,0.0,0.0,0.0,0.0,0.0,0.0,0.0,0.0,0.0,0.0,0.0,0.0,0.0,0.0,0.0,0.0,0.0,0.0,0.0,0.0,0.0,0.0,0.0,0.0,0.0,0.0,0.0,0.0,0.0,0.0,0.0,0.0,0.0,0.0,0.0,0.0,0.0,0.0,0.0,0.0,0.0,0.0,0.0,0.0,0.0,0.0,0.0,0.0,0.0,0.0,0.0,0.0,0.0,0.0,0.0,0.0,0.0,0.0,0.0,0.0,0.0,0.0,0.0,0.0,0.0,0.0,0.0,0.0,0.0,0.0,0.0,0.0,0.0,0.0,0.0,0.0,0.0,0.0,0.0,0.0,0.0,0.0,0.0,0.0,0.0,0.0,0.0,0.0,0.0,0.0,0.0,0.0,0.0,0.0,0.0,0.0,0.0,0.0,0.0,0.0,0.0,0.0,0.0,0.0,0.0,0.0,0.0,0.0,0.0,0.0,0.0,0.0,0.0,0.0,0.0,0.0,0.0,0.0,0.0,0.0,0.0,0.0,0.0,0.0,0.0,0.0,0.0,0.0,0.0,0.0,0.0,0.0,0.0,0.0,0.0,0.0,0.0,0.0,0.0,0.0,0.0,0.0,0.0,0.0,0.0,0.0,0.0,0.0,0.0,0.0,0.0,0.0,0.0,0.0,0.0,0.0,0.0,0.0,0.0,0.0,0.0,0.0,0.0,0.0,0.0,0.0,0.0,0.0,0.0,0.0,0.0,0.0,0.0,0.0,0.0,0.0,0.0,0.0,0.0,0.0,0.0,0.0,0.0,0.0,0.0,0.0,0.0,0.0,0.0,0.0,0.0,0.0,0.0,0.0,0.0,0.0,0.0,0.0,0.0,0.0,0.0,0.0,0.0,0.0,0.0,0.0,0.0,0.0,0.0,0.0,0.0,0.0,0.0,0.0,0.0,0.0,0.0,0.0,0.0,0.0,0.0,0.0,0.0,0.0,0.0,0.0,0.0,0.0,0.0,0.0,0.0,0.0,0.0,0.0,0.0,0.0,0.0,0.0,0.0,0.0,0.0,0.0,0.0,0.0,0.0,0.0,0.0,0.0,0.0,0.0,0.0,0.0,0.0,0.0,0.0,0.0,0.0,0.0,0.0,0.0,0.0,0.0,0.0,0.0,0.0,0.0,0.0,0.0,0.0,0.0,0.0,0.0,0.0,0.0,0.0,0.0,0.0,0.0,0.0,0.0,0.0,0.0,0.0,0.0,0.0,0.0,0.0,0.0,0.0,0.0,0.0,0.0,0.0,0.0,0.0,0.0,0.0,0.0,0.0,0.0,0.0,0.0,0.0,0.0,0.0,0.0,0.0,0.0,0.0,0.0,0.0,0.0,0.0,0.0,0.0,0.0,0.0,0.0,0.0,0.0,0.0,0.0,0.0,0.0,0.0,0.0,0.0,0.0,0.0,0.0,0.0,0.0,0.0,0.0,0.0,0.0,0.0,0.0,0.0,0.0,0.0,0.0,0.0,0.0,0.0,0.0,0.0,0.0,0.0,0.0,0.0,0.0,0.0,0.0,0.0,0.0,0.0,0.0,0.0,0.0,0.0,0.0,0.0,0.0,0.0,0.0,0.0,0.0,0.0,0.0,0.0,0.0,0.0,0.0,0.0,0.0,0.0,0.0,0.0,0.0,0.0,0.0,0.0,0.0,0.0,0.0,0.0,0.0,0.0,0.0,0.0,0.0,-1.485,-1.4522,0.0,0.0,0.0,0.0,0.0,0.0,0.0,0.0,0.0,0.0,0.0,0.0,0.0,0.0,0.0,0.0,0.0,0.0,0.0,0.0,0.0,0.0,0.0,0.0,0.0,0.0,-0.7988,-0.7988,-0.7988,-0.7988,-0.7988,-0.7988,-0.7988,-0.7988,-0.7988,-0.7988,-0.7988,-0.7988,-0.8113,-0.8225,-0.837,-0.8289,-0.8174,-0.8024,0.0,0.0,0.0,0.0,0.0,0.0,0.0,0.0,0.0,0.0,0.0,0.0,0.0,0.0,0.0,0.0,0.0,0.0,0.0,0.0,0.0,0.0,0.0,0.0,0.0,0.0,0.0,0.0,0.0,0.0,0.0,0.0,0.0,0.0,0.0,0.0,0.0,0.0,0.0,0.0,0.0,0.0,0.0,0.0,0.0,0.0,0.0,0.0,0.0,0.0,0.0,0.0,0.0,0.0,0.0,0.0,0.0,0.0,0.0,0.0,0.0,0.0,0.0,0.0,0.0,0.0,0.0,0.0,0.0,0.0,-1.493,-1.4816,0.0,0.0,0.0,0.0,0.0,0.0,0.0,0.0,0.0,0.0,0.0,0.0,0.0,0.0,0.0,0.0,0.0,0.0,0.0,0.0,0.0,0.0,0.0,-0.7988,-0.7988,-0.7988,-0.7988,-0.7988,-0.7988,-0.7988,-0.7988,-0.7988,-0.7988,-0.7988,-0.7988,-0.7988,-0.8002,-0.8029,-0.8258,-0.8408,-0.8523,-0.8523,-0.8459,0.0,0.0,0.0,0.0,0.0,0.0,0.0,0.0,0.0,0.0,0.0,0.0,0.0,0.0,0.0,0.0,0.0,0.0,0.0,0.0,0.0,0.0,0.0,0.0,0.0,0.0,0.0,0.0,0.0,0.0,0.0,0.0,0.0,0.0,0.0,0.0,0.0,0.0,0.0,0.0,0.0,0.0,0.0,0.0,0.0,0.0,0.0,0.0,0.0,0.0,0.0,0.0,0.0,0.0,0.0,0.0,0.0,0.0,0.0,0.0,0.0,0.0,0.0,0.0,0.0,-1.5162,-1.5162,-1.5162,-1.5162,-1.5162,-1.5156,-1.5109,-1.5223,-1.5357,-1.4877,0.0,0.0,0.0,0.0,0.0,0.0,0.0,0.0,0.0,0.0,0.0,0.0,0.0,0.0,0.0,0.0,0.0,0.0,0.0,0.0,0.0,-0.7988,-0.7988,-0.7988,-0.7988,-0.7988,-0.7988,-0.7988,-0.7988,-0.7988,-0.7988,-0.7988,-0.7988,-0.7988,-0.8106,-0.8241,-0.8516,-0.8662,-0.8679,-0.8679,-0.8669,-0.8645,-0.8472,0.0,0.0,0.0,0.0,0.0,0.0,0.0,0.0,0.0,0.0,0.0,0.0,0.0,0.0,0.0,0.0,0.0,0.0,0.0,0.0,0.0,0.0,0.0,0.0,0.0,0.0,0.0,0.0,0.0,0.0,0.0,0.0,0.0,0.0,0.0,0.0,0.0,0.0,0.0,0.0,0.0,0.0,0.0,-0.9546,-1.0886,0.0,0.0,0.0,0.0,0.0,0.0,0.0,0.0,0.0,0.0,0.0,0.0,0.0,-1.5089,-1.5337,-1.5337,-1.5464,-1.5712,-1.5712,-1.5712,-1.5712,-1.5712,-1.5712,-1.5698,-1.5451,0.0,-1.5391,-1.5311,0.0,0.0,0.0,0.0,0.0,0.0,0.0,0.0,0.0,0.0,0.0,0.0,0.0,0.0,0.0,0.0,0.0,0.0,0.0,0.0,0.0,-0.8116,-0.817,-0.817,-0.8241,-0.8255,-0.8174,-0.817,-0.813,-0.7992,-0.7988,-0.7988,-0.7988,-0.8126,-0.8286,-0.852,-0.8648,-0.8754,-0.8838,-0.8838,-0.8838,-0.8835,-0.8767,-0.8608,-0.8381,-0.8231,0.0,0.0,0.0,0.0,0.0,0.0,0.0,0.0,0.0,0.0,0.0,0.0,0.0,0.0,0.0,0.0,0.0,0.0,0.0,0.0,0.0,0.0,0.0,0.0,0.0,0.0,0.0,0.0,0.0,0.0,0.0,0.0,0.0,0.0,0.0,0.0,0.0,0.0,0.0,-0.933,-1.0159,-1.2224,-1.2831,-1.3531,0.0,0.0,0.0,0.0,0.0,0.0,0.0,0.0,0.0,-1.5197,-1.5204,-1.5344,-1.5638,-1.5638,-1.5705,-1.5784,-1.5784,-1.5784,-1.5784,-1.5784,-1.5784,-1.5771,-1.5698,-1.5638,-1.5625,-1.5464,-1.5398,-1.5371,0.0,0.0,0.0,0.0,-1.477,-1.4783,0.0,0.0,0.0,0.0,0.0,0.0,0.0,0.0,0.0,0.0,0.0,0.0,-0.8099,-0.8235,-0.8378,-0.8378,-0.8421,-0.8421,-0.833,-0.8323,-0.8201,-0.7995,-0.7988,-0.7988,-0.7988,-0.8228,-0.8452,-0.871,-0.875,-0.8825,-0.8885,-0.8885,-0.8885,-0.8885,-0.8885,-0.8767,-0.8476,-0.837,-0.8214,0.0,0.0,0.0,0.0,0.0,0.0,0.0,0.0,0.0,0.0,0.0,0.0,0.0,0.0,0.0,0.0,0.0,0.0,0.0,0.0,0.0,0.0,0.0,0.0,0.0,0.0,0.0,0.0,0.0,0.0,0.0,0.0,0.0,0.0,0.0,0.0,0.0,0.0,-1.0177,-1.084,-1.3129,-1.357,-1.4077,0.0,0.0,0.0,0.0,0.0,0.0,-1.5115,-1.5122,-1.5244,-1.5611,-1.5618,-1.5758,-1.6052,-1.6052,-1.6052,-1.6052,-1.6052,-1.6052,-1.6052,-1.6052,-1.6052,-1.6052,-1.6052,-1.6052,-1.5977,-1.5658,-1.5504,-1.5504,-1.5424,-1.5264,-1.5122,-1.5122,-1.5122,-1.5129,0.0,0.0,0.0,0.0,0.0,0.0,0.0,0.0,0.0,0.0,0.0,-0.831,-0.831,-0.8387,-0.8472,-0.8472,-0.8479,-0.8421,-0.833,-0.8323,-0.8201,-0.7995,-0.7988,-0.7988,-0.7988,-0.8323,-0.855,-0.871,-0.8801,-0.8875,-0.8885,-0.8885,-0.8885,-0.8885,-0.8885,-0.8767,-0.8482,-0.8476,-0.8306,-0.7965,0.0,0.0,0.0,0.0,0.0,0.0,0.0,0.0,0.0,0.0,0.0,0.0,0.0,0.0,0.0,0.0,0.0,0.0,0.0,0.0,0.0,0.0,0.0,0.0,0.0,0.0,0.0,0.0,0.0,0.0,0.0,0.0,0.0,0.0,0.0,0.0,0.0,0.0,0.0,-1.3222,-1.4754,0.0,0.0,0.0,0.0,-1.5008,-1.5001,-1.5129,-1.5357,-1.5378,-1.5638,-1.6261,-1.6226,-1.6366,-1.666,-1.666,-1.666,-1.666,-1.666,-1.666,-1.666,-1.666,-1.666,-1.666,-1.666,-1.666,-1.662,-1.5997,-1.5758,-1.5731,-1.5504,-1.5391,-1.5378,-1.5378,-1.5378,-1.5418,0.0,0.0,0.0,0.0,0.0,0.0,0.0,0.0,-0.7988,-0.7988,-0.8174,-0.8323,-0.8323,-0.8486,-0.8628,-0.8628,-0.872,-0.8713,-0.8564,-0.8462,-0.834,-0.8194,-0.8092,-0.8076,-0.8319,-0.8523,-0.8703,-0.8804,-0.8858,-0.8885,-0.8885,-0.8885,-0.8885,-0.8885,-0.8885,-0.8821,-0.8621,-0.8523,-0.837,-0.8163,-0.7858,-0.7682,0.0,0.0,0.0,0.0,0.0,0.0,0.0,0.0,0.0,0.0,0.0,0.0,0.0,0.0,0.0,0.0,0.0,0.0,0.0,0.0,0.0,0.0,0.0,0.0,0.0,0.0,0.0,0.0,0.0,0.0,0.0,0.0,0.0,0.0,0.0,0.0,0.0,-1.3269,-1.4674,0.0,-1.5404,-1.5398,-1.5351,-1.5251,-1.5638,-1.5899,-1.5952,-1.6139,-1.6333,-1.6547,-1.6553,-1.66,-1.6707,-1.6707,-1.6707,-1.6707,-1.6707,-1.6707,-1.6707,-1.6707,-1.6707,-1.6707,-1.6707,-1.6707,-1.6693,-1.648,-1.6393,-1.6386,-1.6279,-1.6239,-1.6239,-1.6239,-1.6239,-1.6226,0.0,0.0,0.0,0.0,0.0,0.0,0.0,0.0,-0.8008,-0.8109,-0.8248,-0.8364,-0.8414,-0.8638,-0.8788,-0.8788,-0.8824,-0.8797,-0.8648,-0.8537,-0.8394,-0.8201,-0.8143,-0.8255,-0.8554,-0.8659,-0.8808,-0.9011,-0.9011,-0.9039,-0.9086,-0.9086,-0.9086,-0.9086,-0.9086,-0.8977,-0.8781,-0.8679,-0.8492,-0.8299,-0.7991,-0.7773,-0.7594,0.0,0.0,0.0,0.0,0.0,0.0,0.0,0.0,0.0,0.0,0.0,0.0,0.0,0.0,0.0,0.0,0.0,0.0,0.0,0.0,0.0,0.0,0.0,0.0,0.0,0.0,0.0,0.0,0.0,0.0,0.0,0.0,0.0,0.0,0.0,-1.2183,-1.3851,-1.4953,-1.5585,-1.5678,-1.5691,-1.5732,-1.5832,-1.6199,-1.642,-1.642,-1.66,-1.6747,-1.6854,-1.6854,-1.6954,-1.7154,-1.7161,-1.7208,-1.7308,-1.7308,-1.7308,-1.7308,-1.7308,-1.7308,-1.7308,-1.7308,-1.7248,-1.7161,-1.7161,-1.7101,-1.6981,-1.678,-1.6707,-1.6707,-1.6707,-1.6707,-1.6673,0.0,0.0,0.0,0.0,0.0,0.0,0.0,-0.7985,-0.8089,-0.8245,-0.8384,-0.8526,-0.8686,-0.8842,-0.8878,-0.8885,-0.8885,-0.8811,-0.8509,-0.8486,-0.835,-0.8008,-0.8201,-0.8418,-0.8703,-0.872,-0.8866,-0.921,-0.9214,-0.9292,-0.9381,-0.9381,-0.9381,-0.9381,-0.9381,-0.9222,-0.8898,-0.8892,-0.8693,-0.8279,-0.8116,-0.7875,-0.7597,0.0,0.0,0.0,0.0,0.0,0.0,0.0,0.0,0.0,0.0,0.0,0.0,0.0,0.0,0.0,0.0,0.0,0.0,0.0,0.0,0.0,0.0,0.0,0.0,0.0,0.0,0.0,0.0,0.0,0.0,0.0,0.0,0.0,-1.1125,-1.1568,-1.2648,-1.5074,-1.5618,-1.5952,-1.6295,-1.6328,-1.64,-1.6687,-1.6714,-1.672,-1.672,-1.674,-1.6881,-1.7219,-1.7239,-1.7475,-1.8002,-1.8009,-1.8203,-1.849,-1.849,-1.849,-1.849,-1.849,-1.849,-1.849,-1.849,-1.833,-1.8009,-1.8009,-1.7883,-1.7555,-1.6961,-1.6734,-1.6734,-1.6734,-1.6727,-1.672,0.0,0.0,0.0,0.0,0.0,0.0,0.0,-0.7894,-0.7929,-0.8082,-0.8136,-0.8258,-0.8516,-0.8682,-0.8818,-0.8871,-0.8885,-0.8801,-0.8662,-0.8543,-0.8397,-0.8214,-0.8452,-0.8628,-0.871,-0.892,-0.9129,-0.921,-0.932,-0.934,-0.9381,-0.9381,-0.9381,-0.9381,-0.9381,-0.9334,-0.9252,-0.914,-0.8964,-0.873,-0.8469,-0.8184,-0.7867,0.0,0.0,0.0,0.0,0.0,0.0,0.0,0.0,0.0,0.0,0.0,0.0,0.0,0.0,0.0,0.0,0.0,0.0,0.0,0.0,0.0,0.0,0.0,0.0,0.0,0.0,0.0,0.0,0.0,0.0,0.0,0.0,-1.0092,-1.1266,-1.2417,-1.3432,-1.4236,-1.5425,-1.6186,-1.6315,-1.6466,-1.662,-1.67,-1.6907,-1.7079,-1.7079,-1.7442,-1.7662,-1.7802,-1.8009,-1.8196,-1.837,-1.837,-1.841,-1.849,-1.849,-1.849,-1.849,-1.849,-1.849,-1.849,-1.849,-1.8444,-1.837,-1.837,-1.8317,-1.8183,-1.7575,-1.7341,-1.7341,-1.7341,-1.7208,-1.7079,0.0,0.0,0.0,0.0,0.0,0.0,0.0,-0.778,-0.7797,-0.7961,-0.7988,-0.8153,-0.8448,-0.856,-0.8652,-0.874,-0.8693,-0.8621,-0.8533,-0.8442,0.0,0.0,0.0,-0.8767,-0.8893,-0.9122,-0.9272,-0.9344,-0.9435,-0.9507,-0.9564,-0.9564,-0.9564,-0.9564,-0.9564,-0.9534,-0.9469,-0.9381,-0.9222,-0.9011,-0.8835,-0.8513,-0.813,-0.8015,-0.7843,-0.7682,-0.7621,-0.76,-0.7587,-0.7499,0.0,0.0,0.0,0.0,0.0,0.0,0.0,0.0,0.0,0.0,0.0,0.0,0.0,0.0,0.0,0.0,0.0,0.0,0.0,0.0,0.0,0.0,0.0,0.0,-0.9643,-1.0862,-1.1661,-1.3041,-1.4172,-1.4805,-1.582,-1.6506,-1.6677,-1.6844,-1.6994,-1.7248,-1.7428,-1.7582,-1.7755,-1.8043,-1.823,-1.823,-1.8404,-1.8551,-1.8671,-1.8671,-1.8738,-1.8858,-1.8858,-1.8858,-1.8858,-1.8858,-1.8858,-1.8858,-1.8858,-1.8433,-1.7685,-1.7685,-1.7216,0.0,0.0,0.0,0.0,0.0,-1.7589,-1.738,0.0,0.0,0.0,0.0,0.0,0.0,0.0,-0.7587,-0.7682,-0.7924,-0.7948,-0.8109,-0.8425,-0.8459,-0.8465,-0.8479,-0.835,-0.8313,-0.8245,0.0,0.0,-0.8672,-0.8716,-0.8869,-0.9204,-0.9228,-0.932,-0.9608,-0.9625,-0.9696,-0.9822,-0.9822,-0.9822,-0.9822,-0.9822,-0.9751,-0.9632,-0.9615,-0.9452,-0.9258,-0.9224,-0.8873,-0.8306,-0.8167,-0.8011,-0.7845,-0.7719,-0.7665,-0.7648,-0.7631,0.0,0.0,0.0,0.0,0.0,0.0,0.0,0.0,0.0,0.0,0.0,0.0,0.0,0.0,0.0,0.0,0.0,0.0,0.0,0.0,0.0,0.0,0.0,0.0,-1.0674,-1.1819,-1.1964,-1.3358,-1.4788,-1.597,-1.6474,-1.6803,-1.696,-1.7156,-1.7416,-1.7726,-1.7968,-1.8217,-1.8477,0.0,0.0,0.0,0.0,-1.8711,-1.8971,-1.8978,-1.9105,-1.9424,-1.9424,-1.9424,-1.9424,-1.9424,-1.9424,-1.9366,-1.9185,-1.8147,-1.6563,-1.6333,-1.5273,-1.4106,-1.708,-1.8206,-1.8229,-1.8087,-1.7923,-1.7682,0.0,0.0,0.0,0.0,0.0,0.0,0.0,-0.7495,-0.7519,-0.7818,-0.7756,-0.7845,-0.8265,-0.8364,-0.8357,-0.8472,-0.835,-0.8218,0.0,0.0,-0.8465,-0.8523,-0.8764,-0.8974,-0.9207,-0.933,-0.9425,-0.9608,-0.9724,-0.9795,-0.9822,-0.9822,-0.9822,-0.9822,-0.9822,-0.9805,-0.9774,-0.9659,-0.9578,-0.95,-0.9309,-0.894,-0.8621,-0.8591,-0.8414,-0.8177,-0.815,-0.8058,-0.7887,-0.7811,-0.777,-0.775,-0.7634,0.0,0.0,0.0,0.0,0.0,0.0,0.0,0.0,0.0,0.0,0.0,0.0,0.0,0.0,0.0,0.0,0.0,0.0,0.0,0.0,-0.8284,-1.0374,-1.1771,-1.0751,-1.3083,-1.4857,-1.4859,-1.6158,-1.6664,-1.5509,-1.6882,-1.7419,-1.6357,-1.7586,-1.843,-1.849,-1.8718,-1.8838,-1.8838,-1.9072,-1.9225,-1.9279,-1.9279,-1.9312,-1.9424,0.0,0.0,-1.9424,-1.9424,-1.9424,-1.9307,-1.8046,-1.7237,-1.6774,-1.5478,-1.4749,-1.455,-1.6023,-1.654,-1.6708,-1.7968,-1.8364,-1.8145,0.0,0.0,0.0,0.0,0.0,0.0,0.0,-0.7305,-0.7336,-0.756,-0.7529,-0.76,-0.7902,-0.7936,-0.7963,-0.8035,-0.8041,-0.8007,0.0,-0.8275,-0.8516,-0.8594,-0.8815,-0.9042,-0.932,-0.9344,-0.949,-0.9717,-0.9785,-0.9822,-0.9822,-0.9822,-0.9822,-0.9822,-0.9822,-0.9822,-0.9815,-0.9744,-0.9632,-0.9483,-0.9327,-0.9089,-0.8815,-0.874,-0.857,-0.8367,-0.8347,-0.817,-0.7978,-0.7901,-0.7877,-0.7864,-0.7841,-0.7712,-0.7577,0.0,0.0,0.0,0.0,0.0,0.0,0.0,0.0,0.0,0.0,0.0,0.0,0.0,0.0,-0.7782,-0.8426,0.0,-0.9031,-0.9744,-1.0627,-1.1286,-1.1489,-1.3517,-1.4936,-1.4756,-1.5777,-1.6187,-1.5429,-1.6393,-1.6796,-1.6242,-1.7752,-1.8771,-1.8925,-1.9065,-1.9145,-1.9145,-1.9292,-1.9424,-1.9424,-1.9424,-1.9424,-1.9424,-1.9424,-1.9424,-1.9424,-1.9424,-1.8946,-1.8163,-1.7325,-1.6074,-1.447,-1.2868,-1.2213,-1.2316,-1.3649,-1.4536,-1.5238,-1.6046,-1.6253,-1.5968,0.0,0.0,0.0,0.0,0.0,0.0,0.0,-0.7095,-0.7149,-0.7353,-0.7415,-0.7431,-0.7584,-0.76,-0.7587,-0.7556,-0.7712,0.0,0.0,-0.8191,-0.8509,-0.8659,-0.8811,-0.9032,-0.933,-0.9364,-0.951,-0.9781,-0.9805,-0.9822,-0.9822,-0.9822,-0.9822,-0.9822,-0.9822,-0.9822,-0.9819,-0.9791,-0.9642,-0.9418,-0.9361,-0.9195,-0.896,-0.8777,-0.8615,-0.8469,-0.8353,-0.8174,-0.7948,-0.7978,-0.7971,-0.7951,-0.7982,-0.7884,-0.7787,-0.7675,-0.7621,0.0,0.0,0.0,0.0,0.0,0.0,0.0,0.0,0.0,-0.7648,-0.7678,-0.7685,-0.8011,-0.9028,-0.8697,-0.8905,-1.086,-1.0683,-1.0681,-1.1833,-1.3283,-1.4226,-1.4276,-1.5127,-1.5482,-1.4927,-1.5356,-1.5841,-1.604,-1.7627,-1.8818,-1.9352,-1.9424,-1.9424,-1.9424,-1.9424,-1.9424,-1.9424,-1.9424,-1.9424,-1.9424,-1.9068,-1.8946,-1.8946,-1.859,-1.7753,-1.6492,-1.6197,-1.4411,-1.1615,-1.0301,-0.9822,-0.994,-1.1257,-1.2413,-1.3445,-1.4029,-1.4089,-1.3824,0.0,0.0,0.0,0.0,0.0,0.0,0.0,0.0,-0.7149,-0.7353,-0.7415,-0.7431,-0.7584,-0.76,-0.7546,-0.7453,0.0,0.0,-0.7631,-0.8045,-0.836,-0.8503,-0.8655,-0.8876,-0.9228,-0.931,-0.9462,-0.9632,-0.9758,-0.9822,-0.9822,-0.9822,-0.9822,-0.9822,-0.9822,-0.9822,-0.9812,-0.9686,-0.9615,-0.9561,-0.9347,-0.9214,-0.9152,-0.8818,-0.8615,-0.8479,-0.8465,-0.8191,-0.7858,-0.7944,-0.7901,-0.7862,-0.7948,-0.7884,-0.7807,-0.779,0.0,-0.7567,-0.7414,-0.7429,-0.7443,-0.7443,-0.7485,-0.7611,0.0,0.0,-0.7828,-0.7914,-0.7941,-0.7991,-0.8135,-0.9141,-0.9664,-0.8842,-0.9771,-1.031,-0.9287,-1.0542,-1.1568,-1.1675,-1.4059,-1.4652,-1.2037,-1.3398,-1.4462,-1.4608,-1.6268,-1.7833,-1.9301,-1.9424,-1.9424,-1.9424,-1.9424,-1.9424,-1.9424,-1.9424,-1.9424,-1.9366,-1.7923,-1.7267,-1.7208,-1.5784,-1.502,-1.4777,-1.3347,-1.1736,-1.0061,-0.9879,-0.9822,-0.9822,-1.0001,-1.0169,-1.0631,-1.3494,-1.4548,-1.4287,0.0,0.0,0.0,0.0,0.0,0.0,0.0,0.0,0.0,-0.7227,-0.7238,-0.7261,-0.728,-0.7287,-0.7305,0.0,0.0,0.0,-0.7604,-0.8021,-0.8347,-0.8357,-0.8584,-0.8811,-0.9025,-0.9174,-0.9323,-0.9476,-0.9537,-0.9608,-0.9696,-0.9696,-0.9741,-0.9819,-0.9734,-0.9696,-0.969,-0.954,-0.9425,-0.9334,-0.9262,-0.9103,-0.9005,-0.8791,-0.8615,-0.8459,-0.8286,-0.8045,0.0,0.0,-0.7865,-0.7838,-0.7941,-0.7884,-0.7811,-0.7811,-0.7709,0.0,-0.7624,-0.7567,-0.7546,0.0,-0.774,-0.7763,-0.7909,-0.7894,-0.7914,-0.7975,-0.7988,-0.8261,-0.9141,-0.917,-0.9233,0.0,-0.9629,-0.9646,-1.0066,-1.0682,-1.1173,-1.129,-1.2478,-1.2824,-1.1689,-1.2466,-1.304,-1.3104,-1.4662,-1.6321,-1.7923,-1.7987,-1.8402,-1.9366,-1.9424,-1.9424,-1.9424,-1.846,-1.7987,-1.7981,-1.638,-1.5607,-1.5607,-1.4896,-1.4068,-1.3108,-1.1495,-1.0418,-0.9822,-0.9822,-0.9822,-0.9822,-0.9822,-0.9822,-0.994,-1.1318,-1.1796,-1.1736,0.0,0.0,0.0,0.0,0.0,0.0,0.0,0.0,0.0,0.0,-0.7095,-0.7095,-0.7095,-0.7095,-0.7095,0.0,0.0,0.0,0.0,-0.7943,-0.8184,-0.832,-0.8476,0.0,-0.8817,-0.9018,-0.9167,-0.9317,-0.9361,-0.9439,-0.9547,-0.9547,-0.9602,-0.9696,-0.9591,-0.9547,-0.9537,-0.9384,-0.9313,-0.9204,-0.9122,-0.8967,-0.8801,-0.8662,-0.8492,-0.8333,-0.8066,-0.7867,0.0,0.0,-0.7726,-0.7716,-0.7872,-0.7841,-0.7753,-0.7753,-0.7651,-0.7567,-0.7712,0.0,0.0,-0.7864,-0.7877,-0.7902,-0.7965,-0.7988,-0.7988,-0.7988,-0.7988,-0.8332,-0.9485,-0.8955,-0.8772,-0.9937,-0.9384,-0.9189,-1.0331,-1.0511,-1.0536,-1.0755,-1.0837,-1.1007,-1.1229,-1.1423,-1.1736,-1.2157,-1.3287,-1.4658,-1.6256,-1.6791,-1.7507,-1.87,-1.8765,-1.8765,-1.8765,-1.7149,-1.6315,-1.6315,-1.4718,-1.3949,-1.3944,-1.3467,-1.2633,-1.1499,-1.0301,-0.9822,-0.9822,-0.9822,-0.9822,-0.9822,-0.9822,-0.9822,-0.9822,-0.9822,-0.9822,-0.9822,0.0,0.0,0.0,0.0,0.0,0.0,0.0,0.0,0.0,0.0,0.0,0.0,0.0,0.0,0.0,0.0,0.0,0.0,0.0,-0.774,-0.7957,-0.831,-0.833,-0.8421,-0.871,-0.8811,-0.9015,-0.9217,-0.931,-0.9384,-0.9388,-0.9388,-0.9391,-0.9395,-0.9391,-0.9388,-0.9378,-0.9282,-0.9214,-0.9183,-0.8838,-0.872,-0.8686,-0.8394,-0.8187,-0.8002,-0.7992,0.0,0.0,0.0,-0.7506,-0.7456,-0.7563,-0.7611,0.0,-0.7607,-0.7499,0.0,0.0,0.0,-0.7634,-0.778,-0.7926,-0.7985,-0.7988,-0.7988,-0.7988,-0.7988,-0.7988,-0.8085,-0.8292,-0.8436,-0.8526,-0.8736,-0.8835,-0.8933,-0.8937,-0.8992,-0.9101,-0.9398,-0.9436,-0.9552,0.0,-0.9879,-1.0539,-1.2097,-1.2273,-1.2993,-1.4604,-1.6138,-1.7026,-1.7085,-1.7085,-1.7085,-1.7085,-1.5488,-1.4663,-1.4658,-1.3053,-1.2273,-1.2217,-1.066,-0.994,-0.9879,-0.9819,-0.9822,-0.9822,-0.9822,-0.9822,-0.9822,-0.9822,-0.9822,-0.9822,-0.9822,-0.9822,-0.9822,0.0,0.0,0.0,0.0,0.0,0.0,0.0,0.0,0.0,0.0,0.0,0.0,0.0,0.0,0.0,0.0,0.0,0.0,0.0,-0.7675,-0.7858,-0.796,-0.816,-0.8316,-0.8418,-0.856,-0.8659,-0.8763,-0.876,-0.8889,-0.9086,-0.9086,-0.9191,-0.9371,-0.9174,-0.9086,-0.9072,-0.8815,-0.8763,-0.8753,-0.8598,-0.8503,-0.8397,-0.8194,-0.8021,-0.7862,0.0,0.0,0.0,0.0,-0.746,-0.7443,-0.7553,-0.7529,0.0,-0.7448,-0.7485,-0.7553,-0.7699,0.0,-0.7777,-0.7877,-0.7951,-0.7988,-0.7988,-0.7988,-0.7988,-0.7988,-0.7988,-0.8039,-0.8241,-0.8361,-0.8421,-0.8669,-0.8754,-0.8821,-0.8868,-0.8885,-0.9049,-0.9347,-0.9381,0.0,0.0,0.0,0.0,-1.0539,-1.06,-1.1318,-1.2933,-1.3522,-1.4297,-1.537,-1.5429,-1.5429,-1.5429,-1.3825,-1.2993,-1.2988,-1.1378,-1.06,-1.06,-1.0061,-0.9822,-0.9822,-0.9822,-0.9822,-0.9822,-0.9822,-0.9822,-0.9822,-0.9822,-0.9822,-0.9822,-0.9822,-0.9822,-0.9822,0.0,0.0,0.0,0.0,0.0,0.0,0.0,0.0,0.0,0.0,0.0,0.0,0.0,0.0,0.0,0.0,0.0,0.0,0.0,0.0,-0.7678,-0.7733,-0.7926,-0.8055,-0.8106,-0.8197,-0.8269,-0.8323,-0.8381,-0.8506,-0.8703,-0.8754,-0.8879,-0.9052,-0.8859,-0.8774,-0.8764,-0.8567,-0.8452,-0.8401,-0.8347,-0.8235,-0.8089,-0.794,-0.7787,0.0,0.0,0.0,0.0,0.0,-0.7288,-0.7316,-0.7468,-0.7451,-0.7429,-0.7438,-0.7485,-0.756,-0.7756,-0.7811,-0.7848,-0.7951,-0.7988,-0.7988,-0.7988,-0.7988,-0.7975,-0.7921,-0.7911,-0.8004,-0.816,-0.8187,-0.8303,-0.8655,-0.871,-0.8764,-0.8861,-0.8885,-0.9049,-0.9347,-0.9381,-0.9496,0.0,0.0,0.0,-0.9822,-0.9822,-1.024,-1.1318,-1.1916,-1.2693,-1.3706,-1.3765,-1.3765,-1.3765,-1.2153,-1.1318,-1.1318,-1.0301,-0.9822,-0.9822,-0.9822,-0.9822,-0.9822,-0.9822,-0.9822,-0.9822,-0.9822,-0.9822,-0.9822,-0.9822,-0.9822,-0.9822,-0.9822,-0.9822,-0.9822,0.0,0.0,0.0,0.0,0.0,0.0,0.0,0.0,0.0,0.0,0.0,0.0,0.0,0.0,0.0,0.0,0.0,0.0,0.0,0.0,0.0,-0.7584,-0.7597,-0.7662,-0.7797,-0.7801,-0.7872,-0.7968,-0.8163,-0.8292,-0.8299,-0.8384,-0.8452,-0.8459,-0.8452,-0.8448,-0.8445,-0.8438,-0.836,-0.8225,-0.8075,-0.7877,-0.7773,-0.7638,0.0,0.0,0.0,0.0,0.0,0.0,0.0,0.0,0.0,-0.7429,-0.746,-0.7567,-0.7509,-0.7455,-0.7743,-0.7824,-0.7858,-0.7955,-0.7988,-0.7988,-0.7988,-0.7985,-0.7938,-0.7841,-0.7804,-0.7845,0.0,0.0,-0.8133,-0.8618,-0.8699,-0.8764,-0.8861,-0.8885,-0.9049,0.0,0.0,0.0,0.0,0.0,0.0,-0.9822,0.0,-0.9822,-0.9822,-1.1257,-1.2097,-1.2097,-1.2097,-1.2097,-1.2097,-1.0539,-0.9822,-0.9822,-0.9822,-0.9822,-0.9822,-0.9822,-0.9822,-0.9822,-0.9822,-0.9822,-0.9822,-0.9822,-0.9822,-0.9822,-0.9822,-0.9822,-0.9822,-0.9822,-0.9822,-0.9822,0.0,0.0,0.0,0.0,0.0,0.0,0.0,0.0,0.0,0.0,0.0,0.0,0.0,0.0,0.0,0.0,0.0,0.0,0.0,0.0,0.0,0.0,0.0,0.0,0.0,0.0,0.0,0.0,0.0,-0.7824,-0.7929,-0.7963,-0.8045,0.0,-0.8035,-0.7984,-0.7974,-0.7868,-0.7804,-0.7767,0.0,-0.7621,-0.7482,0.0,0.0,0.0,0.0,0.0,0.0,0.0,0.0,0.0,0.0,-0.7543,-0.757,-0.7716,-0.7729,-0.774,-0.788,-0.7931,-0.7941,-0.7978,-0.7988,-0.7988,-0.7988,-0.7901,-0.7858,-0.7821,-0.7726,-0.7665,0.0,0.0,0.0,-0.8347,-0.8567,0.0,-0.8861,-0.8885,0.0,-0.9347,0.0,-0.9496,-0.9791,-0.9822,0.0,0.0,-0.9822,-0.9822,-0.9822,-1.0179,-1.0422,-1.0422,-1.0422,-1.0422,-1.0422,-1.0001,-0.9822,-0.9822,-0.9822,-0.9822,-0.9822,-0.9822,-0.9822,-0.9822,-0.9822,-0.9822,-0.9822,-0.9822,-0.9822,-0.9822,-0.9822,-0.9822,-0.9822,-0.9822,-0.9822,-0.9822,0.0,0.0,0.0,0.0,0.0,0.0,0.0,0.0,0.0,0.0,0.0,0.0,0.0,0.0,0.0,0.0,0.0,0.0,0.0,0.0,0.0,0.0,0.0,0.0,0.0,0.0,0.0,0.0,0.0,0.0,0.0,-0.7685,-0.7763,-0.7841,-0.7756,-0.7719,-0.7712,0.0,0.0,0.0,0.0,0.0,0.0,0.0,0.0,0.0,0.0,0.0,0.0,0.0,0.0,-0.758,-0.7665,-0.7692,-0.7723,-0.7868,0.0,-0.7845,-0.7948,-0.7988,-0.7988,-0.7988,-0.7988,-0.7971,-0.7907,-0.7872,-0.7773,-0.7645,-0.7553,0.0,0.0,0.0,0.0,0.0,0.0,0.0,-0.8851,-0.8885,-0.9049,0.0,-0.9381,0.0,-0.9791,-0.9822,-0.9822,0.0,-0.9822,-0.9822,-0.9822,-0.9822,-0.9822,-0.9822,-0.9822,-0.9822,-0.9822,-0.9822,-0.9822,-0.9822,-0.9822,-0.9822,-0.9822,-0.9822,-0.9822,-0.9822,0.0,-0.9822,-0.9822,-0.9822,-0.9822,-0.9822,-0.9822,-0.9822,-0.9822,-0.9822,-0.9822,-0.9822,0.0,0.0,0.0,0.0,0.0,0.0,0.0,0.0,0.0,0.0,0.0,0.0,0.0,0.0,0.0,0.0,0.0,0.0,0.0,0.0,0.0,0.0,0.0,0.0,0.0,0.0,0.0,0.0,0.0,0.0,0.0,0.0,0.0,0.0,0.0,0.0,0.0,0.0,0.0,0.0,0.0,0.0,0.0,0.0,0.0,0.0,0.0,0.0,0.0,0.0,-0.7709,-0.7814,-0.7834,-0.7841,-0.7868,-0.7951,-0.7894,-0.7872,-0.7955,-0.7988,-0.7988,-0.7988,-0.7988,-0.7948,-0.7845,-0.7797,-0.7706,-0.7473,0.0,-0.7387,-0.7543,-0.7587,-0.7787,-0.836,0.0,-0.8587,-0.8841,-0.8885,-0.9042,-0.9317,-0.9367,-0.949,-0.9768,-0.9812,-0.9822,-0.9822,-0.9822,-0.9822,-0.9822,-0.9822,-0.9822,-0.9822,-0.9822,-0.9822,-0.9822,-0.9822,-0.9822,-0.9822,-0.9822,-0.9822,-0.9822,-0.9822,-0.9822,-0.9822,-0.9822,-0.9822,-0.9822,-0.9822,-0.9822,-0.9822,-0.9822,-0.9822,-0.9822,-0.9822,-0.9822,-0.9822,0.0,0.0,0.0,0.0,0.0,0.0,0.0,0.0,0.0,0.0,-0.0314,0.0,0.0,0.0,0.0,0.0,0.0,0.0,0.0,0.0,0.0,0.0,0.0,0.0,0.0,0.0,0.0,0.0,0.0,0.0,0.0,0.0,0.0,0.0,0.0,0.0,0.0,0.0,0.0,0.0,0.0,0.0,0.0,0.0,0.0,0.0,0.0,0.0,0.0,0.0,-0.779,-0.7834,-0.7911,-0.7948,-0.7955,-0.7982,-0.7971,-0.7958,-0.7982,-0.7988,-0.7988,-0.7988,-0.7988,-0.7948,-0.7845,-0.7723,0.0,0.0,0.0,-0.7227,-0.738,-0.7512,0.0,-0.8231,0.0,0.0,0.0,0.0,-0.9001,0.0,0.0,0.0,0.0,0.0,0.0,0.0,0.0,-0.9822,-0.9822,-0.9822,-0.9822,-0.9822,-0.9822,-0.9822,-0.9822,-0.9822,-0.9822,-0.9822,-0.9822,-0.9822,-0.9822,-0.9822,-0.9822,-0.9822,-0.9822,0.0,-0.9822,-0.9822,-0.9822,-0.9822,-0.9822,-0.9822,-0.9822,-0.9822,-0.9822,-0.9822,0.0,0.0,0.0,0.0,0.0,0.0,0.0,0.0,0.0,0.0,0.0,0.0,0.0,0.0,0.0,0.0,0.0,0.0,0.0,0.0,0.0,0.0,0.0,0.0,0.0,0.0,0.0,0.0,0.0,0.0,0.0,0.0,0.0,0.0,0.0,0.0,0.0,0.0,0.0,0.0,0.0,0.0,0.0,0.0,0.0,0.0,0.0,0.0,0.0,0.0,-0.7634,-0.774,-0.7917,-0.7988,-0.7975,-0.7894,-0.7928,-0.7971,-0.7894,-0.7928,-0.7988,-0.7988,-0.7988,-0.7931,-0.7753,0.0,0.0,0.0,-0.7146,-0.7142,-0.7343,0.0,0.0,0.0,0.0,0.0,0.0,0.0,0.0,0.0,0.0,0.0,0.0,0.0,0.0,0.0,0.0,-0.9822,-0.9822,-0.9822,-0.9822,-0.9822,-0.9822,-0.9822,-0.9822,-0.9822,-0.9822,-0.9822,-0.9822,-0.9822,-0.9822,-0.9822,-0.9822,-0.9822,-0.9822,-0.9822,-0.9822,-0.9822,-0.9822,-0.9822,-0.9822,-0.9822,-0.9822,-0.9822,-0.9822,-0.9822,0.0,0.0,0.0,0.0,0.0,0.0,0.0,0.0,0.0,0.0,0.0,0.0,0.0,0.0,0.0,0.0,0.0,0.0,0.0,0.0,0.0,0.0,0.0,0.0,0.0,0.0,0.0,0.0,0.0,0.0,0.0,0.0,0.0,0.0,0.0,0.0,0.0,0.0,0.0,0.0,0.0,0.0,0.0,0.0,0.0,0.0,0.0,0.0,0.0,0.0,-0.7472,-0.7641,-0.7872,-0.7894,-0.7877,-0.7838,-0.7896,-0.7921,-0.7882,-0.7897,-0.7988,-0.7988,-0.7988,-0.7914,-0.7665,-0.76,0.0,0.0,-0.7095,-0.7142,-0.7343,0.0,0.0,0.0,0.0,0.0,0.0,0.0,0.0,0.0,0.0,0.0,0.0,0.0,0.0,0.0,0.0,-0.9822,-0.9822,-0.9822,-0.9822,-0.9822,-0.9822,-0.9822,-0.9822,-0.9822,-0.9822,-0.9822,-0.9822,-0.9822,-0.9822,-0.9822,-0.9822,-0.9822,-0.9822,-0.9822,-0.9822,-0.9822,-0.9822,-0.9822,-0.9822,-0.9822,-0.9822,-0.9822,-0.9822,-0.9822,0.0,0.0,0.0,0.0,0.0,0.0,0.0,0.0,0.0,0.0,0.0,0.0,0.0,0.0,0.0,0.0,0.0,0.0,0.0,0.0,0.0,0.0,0.0,0.0,0.0,0.0,0.0,0.0,0.0,0.0,0.0,0.0,0.0,0.0,0.0,0.0,0.0,0.0,0.0,0.0,0.0,0.0,0.0,0.0,0.0,0.0,0.0,0.0,0.0,0.0,0.0,-0.7604,-0.7631,-0.7641,-0.7662,-0.7777,0.0,0.0,-0.7934,-0.7978,-0.7988,-0.7988,-0.7988,-0.7914,-0.7665,0.0,0.0,-0.7159,-0.7095,-0.7142,-0.7343,-0.7255,-0.726,0.0,0.0,0.0,0.0,0.0,0.0,0.0,0.0,0.0,0.0,0.0,0.0,0.0,0.0,-0.9822,-0.9822,-0.9822,-0.9822,-0.9822,-0.9822,-0.9822,-0.9822,-0.9822,-0.9822,-0.9822,-0.9822,-0.9822,-0.9822,-0.9822,-0.9822,-0.9822,-0.9822,-0.9822,0.0,-0.9822,-0.9822,-0.9822,-0.9822,-0.9822,-0.9822,-0.9822,-0.9822,-0.9822,0.0,0.0,0.0,0.0,0.0,0.0,0.0,0.0,0.0,0.0,0.0,0.0,0.0,0.0,0.0,0.0,0.0,0.0,0.0,0.0,0.0,0.0,0.0,0.0,0.0,0.0,0.0,-0.6071,-0.6071,0.0,0.0,0.0,0.0,0.0,0.0,0.0,0.0,0.0,0.0,0.0,0.0,0.0,0.0,0.0,0.0,0.0,0.0,0.0,0.0,0.0,0.0,0.0,-0.7277,-0.7277,0.0,0.0,-0.7672,-0.7804,-0.778,-0.7853,-0.7988,-0.7988,-0.7988,-0.7914,-0.7665,0.0,-0.7512,-0.7159,-0.7095,-0.7115,-0.7221,-0.7136,-0.7152,0.0,0.0,0.0,0.0,0.0,0.0,0.0,0.0,0.0,0.0,0.0,0.0,0.0,0.0,-0.9822,-0.9822,-0.9822,-0.9822,-0.9822,-0.9822,-0.9822,-0.9822,-0.9822,-0.9822,-0.9822,-0.9822,-0.9822,-0.9822,-0.9822,-0.9822,-0.9822,-0.9822,-0.9822,0.0,-0.9822,-0.9822,-0.9822,-0.9822,-0.9822,-0.9822,-0.9822,-0.9822,-0.9822,0.0,0.0,0.0,0.0,0.0,0.0,0.0,0.0,0.0,0.0,0.0,0.0,0.0,0.0,0.0,0.0,0.0,0.0,0.0,0.0,0.0,0.0,0.0,0.0,0.0,0.0,-0.4016,-0.4865,-0.4865,-0.5445,0.0,0.0,0.0,0.0,0.0,0.0,0.0,0.0,0.0,0.0,0.0,0.0,0.0,0.0,0.0,0.0,0.0,0.0,0.0,0.0,0.0,0.0,0.0,0.0,0.0,0.0,-0.7519,-0.7678,-0.7665,-0.7814,-0.7934,-0.7978,-0.7958,-0.7857,0.0,0.0,-0.7458,-0.7149,-0.7095,-0.7095,-0.7095,-0.7095,-0.7095,0.0,0.0,0.0,0.0,0.0,0.0,0.0,0.0,0.0,0.0,0.0,0.0,0.0,0.0,-0.9822,-0.9822,-0.9822,-0.9822,-0.9822,-0.9822,-0.9822,-0.9822,-0.9822,-0.9822,-0.9822,-0.9822,-0.9822,-0.9822,-0.9822,-0.9822,-0.9822,-0.9822,-0.9822,0.0,-0.9822,-0.9822,-0.9822,-0.9822,-0.9822,-0.9822,-0.9822,-0.9822,-0.9822,0.0,0.0,0.0,0.0,0.0,0.0,0.0,0.0,0.0,0.0,0.0,0.0,0.0,0.0,0.0,0.0,0.0,0.0,0.0,0.0,0.0,0.0,0.0,0.0,0.0,0.0,-0.3614,-0.3614,-0.3614,-0.4239,-0.5403,-0.5403,-0.6027,-0.7051,0.0,0.0,0.0,0.0,0.0,0.0,0.0,0.0,0.0,0.0,0.0,0.0,0.0,0.0,0.0,0.0,0.0,0.0,0.0,0.0,0.0,0.0,-0.7419,-0.7441,-0.7729,-0.7811,-0.7848,-0.7951,-0.7877,-0.7777,0.0,0.0,-0.7329,-0.7129,-0.7095,-0.7095,-0.7095,-0.7095,-0.7095,-0.7095,0.0,0.0,0.0,0.0,0.0,0.0,0.0,0.0,0.0,0.0,0.0,0.0,0.0,0.0,-0.9822,-0.9822,-0.9822,-0.9822,-0.9822,-0.9822,-0.9822,-0.9822,-0.9822,-0.9822,-0.9822,-0.9822,-0.9822,-0.9822,-0.9822,-0.9822,-0.9822,-0.9822,0.0,-0.9822,-0.9822,-0.9822,-0.9822,-0.9822,-0.9822,-0.9822,-0.9822,-0.9822,0.0,0.0,0.0,0.0,0.0,0.0,0.0,0.0,0.0,0.0,0.0,0.0,0.0,0.0,0.0,0.0,0.0,0.0,0.0,0.0,0.0,0.0,0.0,0.0,0.0,0.0,-0.1522,-0.237,-0.237,-0.2994,-0.415,-0.415,-0.4372,-0.4683,-0.4328,0.0,0.0,0.0,0.0,0.0,0.0,0.0,0.0,0.0,0.0,0.0,0.0,0.0,0.0,0.0,0.0,0.0,0.0,0.0,0.0,-0.7156,-0.7288,-0.7439,-0.7485,-0.7587,-0.7678,-0.7726,-0.7702,-0.7628,-0.7478,0.0,-0.7326,-0.7129,-0.7095,-0.7095,-0.7095,-0.7095,-0.7095,-0.7095,0.0,0.0,0.0,0.0,0.0,0.0,0.0,0.0,0.0,0.0,0.0,0.0,0.0,-0.9822,-0.9822,-0.9822,-0.9822,-0.9822,-0.9822,-0.9822,-0.9822,-0.9822,-0.9822,-0.9822,-0.9822,-0.9822,-0.9822,-0.9822,-0.9822,-0.9822,-0.9822,-0.9822,-0.9822,-0.9822,-0.9822,-0.9822,-0.9822,-0.9822,-0.9822,-0.9822,-0.9822,-0.9822,0.0,0.0,0.0,0.0,0.0,0.0,0.0,0.0,0.0,0.0,0.0,0.0,0.0,0.0,0.0,0.0,0.0,0.0,0.0,0.0,0.0,0.0,0.0,0.0,0.0,0.0,-0.0359,-0.1121,-0.1121,-0.1746,-0.2903,-0.2903,-0.317,-0.357,-0.3126,0.0,0.0,0.0,0.0,0.0,0.0,0.0,-0.7095,0.0,0.0,0.0,0.0,0.0,0.0,0.0,0.0,0.0,0.0,0.0,0.0,0.0,-0.7207,-0.7295,0.0,-0.7441,-0.7529,-0.7587,-0.7556,0.0,0.0,0.0,-0.7258,-0.7115,-0.7095,-0.7095,-0.7095,-0.7095,-0.7095,-0.7095,0.0,0.0,0.0,0.0,0.0,0.0,0.0,0.0,0.0,0.0,0.0,0.0,-0.9822,-0.9822,-0.9822,-0.9822,-0.9822,-0.9822,-0.9822,-0.9822,-0.9822,-0.9822,-0.9822,-0.9822,-0.9822,-0.9822,-0.9822,-0.9822,-0.9822,-0.9822,-0.9822,-0.9822,0.0,-0.9822,-0.9822,-0.9822,-0.9822,-0.9822,-0.9822,-0.9822,-0.9822,-0.9822,0.0,0.0,0.0,0.0,0.0,0.0,0.0,0.0,0.0,0.0,0.0,0.0,0.0,0.0,0.0,0.0,0.0,0.0,0.0,0.0,0.0,0.0,0.0,0.0,0.0,0.0,0.0,0.0,0.0,-0.0584,-0.1656,-0.1656,-0.2281,-0.3303,-0.2191,-0.2325,-0.3525,-0.4688,-0.5802,-0.6871,-0.6962,-0.6962,0.0,0.0,0.0,0.0,0.0,0.0,0.0,0.0,0.0,0.0,0.0,0.0,0.0,0.0,0.0,0.0,0.0,-0.7402,-0.739,-0.7533,-0.7461,-0.7402,0.0,0.0,0.0,0.0,0.0,-0.7095,-0.7095,-0.7095,-0.7095,-0.7095,0.0,0.0,0.0,0.0,0.0,0.0,0.0,0.0,0.0,0.0,0.0,0.0,-0.9822,-0.9822,-0.9822,-0.9822,-0.9822,-0.9822,-0.9822,-0.9822,-0.9822,-0.9822,-0.9822,-0.9822,-0.9822,-0.9822,-0.9822,-0.9822,-0.9822,0.0,-0.9822,-0.9822,-0.9822,-0.9822,-0.9822,-0.9822,-0.9822,-0.9822,-0.9822,-0.9822,-0.9822,-0.9822,0.0,0.0,0.0,0.0,0.0,0.0,0.0,0.0,0.0,0.0,0.0,0.0,0.0,0.0,0.0,0.0,0.0,0.0,0.0,0.0,0.0,0.0,0.0,0.0,0.0,0.0,0.0,0.0,0.0,-0.0135,-0.0404,-0.0404,-0.0584,-0.0852,-0.0539,-0.1076,-0.2236,-0.2504,-0.3349,-0.4505,-0.5445,-0.5802,0.0,0.0,0.0,0.0,-0.7095,-0.7095,0.0,0.0,0.0,0.0,0.0,0.0,0.0,0.0,-0.7095,-0.7102,-0.7139,0.0,-0.7159,-0.7193,-0.7176,-0.7149,0.0,0.0,0.0,0.0,0.0,0.0,0.0,0.0,0.0,0.0,0.0,0.0,0.0,0.0,0.0,0.0,0.0,0.0,0.0,0.0,0.0,-0.9822,-0.9822,-0.9822,-0.9822,-0.9822,-0.9822,-0.9822,-0.9822,-0.9822,-0.9822,-0.9822,-0.9822,-0.9822,-0.9822,-0.9822,-0.9822,-0.9822,-0.9822,-0.9822,-0.9822,-0.9822,-0.9822,-0.9822,-0.9822,-0.9822,-0.9822,-0.9822,-0.9822,-0.9822,-0.9822,-0.9822,0.0,0.0,0.0,0.0,0.0,0.0,0.0,0.0,0.0,0.0,0.0,0.0,0.0,0.0,0.0,0.0,0.0,0.0,0.0,0.0,0.0,0.0,0.0,0.0,0.0,0.0,0.0,0.0,0.0,0.0,0.0,0.0,0.0,0.0,0.0,-0.0673,-0.179,-0.179,-0.2503,-0.3659,-0.433,0.0,0.0,0.0,0.0,0.0,-0.7095,-0.7095,0.0,-0.7095,-0.7095,-0.7095,0.0,0.0,0.0,0.0,-0.7095,-0.7095,-0.7095,-0.7095,-0.7095,-0.7095,-0.7095,-0.7095,-0.7095,0.0,0.0,0.0,0.0,0.0,0.0,0.0,0.0,0.0,0.0,0.0,0.0,0.0,0.0,0.0,0.0,0.0,0.0,0.0,0.0,-0.9815,-0.9822,-0.9822,-0.9822,-0.9822,-0.9822,-0.9822,-0.9822,-0.9822,-0.9822,-0.9822,-0.9822,-0.9822,-0.9822,-0.9822,-0.9822,-0.9822,-0.9822,-0.9822,-0.9822,-0.9822,-0.9822,-0.9822,-0.9822,-0.9822,-0.9822,-0.9822,-0.9822,-0.9822,-0.9822,-0.9822,0.0,0.0,0.0,0.0,0.0,0.0,0.0,0.0,0.0,0.0,0.0,0.0,0.0,0.0,0.0,0.0,0.0,0.0,0.0,0.0,0.0,0.0,0.0,0.0,0.0,0.0,0.0,0.0,0.0,0.0,0.0,0.0,0.0,0.0,0.0,-0.0584,-0.1522,-0.1522,-0.2102,-0.3081,-0.326,0.0,0.0,0.0,0.0,0.0,0.0,0.0,0.0,-0.7095,-0.7095,-0.7095,-0.7095,0.0,0.0,0.0,0.0,0.0,-0.7095,-0.7095,-0.7095,-0.7095,-0.7095,-0.7095,-0.7095,0.0,0.0,0.0,0.0,0.0,0.0,0.0,0.0,0.0,0.0,0.0,0.0,0.0,0.0,0.0,0.0,0.0,0.0,-0.9507,-0.9659,-0.9781,-0.9808,-0.9822,-0.9822,-0.9822,-0.9822,-0.9822,-0.9822,-0.9822,-0.9822,-0.9822,-0.9822,-0.9822,-0.9822,-0.9822,-0.9822,-0.9822,-0.9822,-0.9822,0.0,0.0,-0.9822,-0.9822,-0.9822,-0.9822,-0.9822,-0.9822,-0.9822,-0.9822,-0.9822,-0.9822,0.0,0.0,0.0,0.0,0.0,0.0,0.0,0.0,0.0,0.0,0.0,0.0,0.0,0.0,0.0,0.0,0.0,0.0,0.0,0.0,0.0,0.0,0.0,0.0,0.0,0.0,0.0,0.0,0.0,0.0,0.0,0.0,0.0,0.0,0.0,-0.009,-0.0269,-0.0269,-0.0404,-0.0628,-0.1656,0.0,0.0,0.0,0.0,0.0,0.0,0.0,0.0,-0.7095,-0.7095,-0.7095,-0.7095,0.0,0.0,0.0,0.0,0.0,-0.7095,-0.7095,-0.7095,-0.7095,-0.7095,-0.7095,0.0,0.0,0.0,0.0,0.0,0.0,0.0,0.0,0.0,0.0,0.0,0.0,0.0,0.0,0.0,0.0,0.0,0.0,0.0,-0.9445,-0.9618,-0.9639,-0.9754,-0.9822,-0.9822,-0.9822,-0.9822,-0.9822,-0.9822,-0.9822,-0.9822,-0.9822,-0.9822,-0.9822,-0.9822,-0.9822,-0.9822,-0.9822,-0.9822,-0.9822,0.0,-0.9822,-0.9822,-0.9822,-0.9822,-0.9822,-0.9822,-0.9822,-0.9822,-0.9822,-0.9822,-0.9822,0.0,0.0,0.0,0.0,0.0,0.0,0.0,0.0,0.0,0.0,0.0,0.0,0.0,0.0,0.0,0.0,0.0,0.0,0.0,0.0,0.0,0.0,0.0,0.0,0.0,0.0,0.0,0.0,0.0,0.0,0.0,0.0,0.0,0.0,0.0,0.0,0.0,0.0,0.0,-0.0045,0.0,0.0,0.0,0.0,0.0,0.0,0.0,0.0,0.0,0.0,-0.6605,-0.7007,-0.6384,0.0,0.0,0.0,0.0,0.0,-0.7095,-0.7095,-0.7115,-0.7244,-0.7204,-0.7095,0.0,0.0,0.0,0.0,0.0,0.0,0.0,0.0,0.0,0.0,0.0,0.0,0.0,0.0,0.0,0.0,0.0,0.0,-0.9204,-0.9337,-0.9432,-0.9598,-0.9669,-0.9741,-0.9819,-0.9822,-0.9822,-0.9822,-0.9822,-0.9822,-0.9822,-0.9822,-0.9822,-0.9822,-0.9822,-0.9822,-0.9822,-0.9822,-0.9822,-0.9822,0.0,-0.9822,-0.9822,-0.9822,-0.9822,-0.9822,-0.9822,-0.9822,-0.9822,-0.9822,-0.9822,-0.9822,0.0,0.0,0.0,0.0,0.0,0.0,0.0,0.0,0.0,0.0,0.0,0.0,0.0,0.0,0.0,0.0,0.0,0.0,0.0,0.0,0.0,0.0,0.0,0.0,0.0,0.0,0.0,0.0,0.0,0.0,0.0,0.0,0.0,0.0,0.0,0.0,0.0,0.0,0.0,0.0,0.0,0.0,0.0,0.0,0.0,0.0,0.0,0.0,0.0,0.0,0.0,0.0,0.0,0.0,0.0,-0.6694,-0.6871,-0.7051,-0.6782,-0.6915,-0.7125,-0.7288,0.0,0.0,0.0,0.0,0.0,0.0,0.0,0.0,0.0,0.0,0.0,0.0,0.0,0.0,0.0,0.0,-0.8885,-0.8885,-0.8885,-0.8981,-0.9093,-0.919,-0.9306,-0.9486,-0.9537,-0.9602,-0.9713,-0.9717,-0.9734,-0.9771,-0.9771,-0.9788,-0.9822,-0.9822,-0.9822,-0.9822,-0.9822,-0.9822,-0.9822,-0.9822,-0.9822,-0.9822,-0.9822,-0.9822,-0.9822,-0.9822,-0.9822,-0.9822,-0.9822,-0.9822,-0.9822,-0.9822,-0.9822,-0.9822,0.0,0.0,0.0,0.0,0.0,0.0,0.0,0.0,0.0,0.0,0.0,0.0,0.0,0.0,0.0,0.0,0.0,0.0,0.0,0.0,0.0,0.0,0.0,0.0,0.0,0.0,0.0,0.0,0.0,0.0,0.0,0.0,0.0,0.0,0.0,0.0,0.0,0.0,0.0,0.0,0.0,0.0,0.0,0.0,0.0,0.0,0.0,0.0,0.0,0.0,0.0,0.0,0.0,0.0,-0.5536,-0.5536,-0.6248,-0.6874,-0.5802,-0.6293,-0.7098,-0.7109,0.0,0.0,0.0,0.0,0.0,0.0,0.0,0.0,0.0,0.0,0.0,0.0,0.0,0.0,0.0,0.0,-0.8885,-0.8885,-0.8885,-0.8888,-0.8898,-0.9076,-0.9217,-0.9241,-0.9317,-0.9401,-0.9412,-0.9412,-0.9479,-0.9618,-0.9625,-0.9686,-0.9819,-0.9822,-0.9822,-0.9822,-0.9822,-0.9822,-0.9822,-0.9822,-0.9822,-0.9822,-0.9822,-0.9822,-0.9822,-0.9822,-0.9822,-0.9822,-0.9822,-0.9822,-0.9822,-0.9822,-0.9822,-0.9822,0.0,0.0,0.0,0.0,0.0,0.0,0.0,0.0,0.0,0.0,0.0,0.0,0.0,0.0,0.0,0.0,0.0,0.0,0.0,0.0,0.0,0.0,0.0,0.0,0.0,0.0,0.0,0.0,0.0,0.0,0.0,0.0,0.0,0.0,0.0,0.0,0.0,0.0,0.0,0.0,0.0,0.0,0.0,0.0,0.0,0.0,0.0,0.0,0.0,0.0,-0.3304,-0.4152,0.0,0.0,0.0,0.0,-0.4596,-0.4816,-0.4419,-0.5183,-0.621,-0.6285,0.0,0.0,0.0,0.0,0.0,0.0,0.0,0.0,0.0,0.0,0.0,0.0,0.0,0.0,0.0,0.0,-0.8885,-0.8885,-0.8885,-0.8885,-0.8885,-0.8988,-0.9055,-0.9204,-0.9265,-0.934,-0.9374,-0.9381,-0.9408,-0.9466,-0.9466,-0.9493,-0.9547,-0.9547,-0.9595,-0.969,-0.9778,-0.9822,-0.9822,-0.9822,-0.9822,-0.9822,-0.9822,-0.9822,-0.9822,-0.9822,-0.9822,-0.9822,-0.9822,-0.9822,-0.9822,-0.9822,-0.9822,-0.9822,0.0,0.0,0.0,0.0,0.0,0.0,0.0,0.0,0.0,0.0,0.0,0.0,0.0,0.0,0.0,0.0,0.0,0.0,0.0,0.0,0.0,0.0,0.0,0.0,0.0,0.0,0.0,0.0,0.0,0.0,0.0,0.0,0.0,0.0,0.0,0.0,0.0,0.0,0.0,0.0,0.0,0.0,0.0,0.0,0.0,0.0,0.0,0.0,0.0,0.0,0.0,0.0,0.0,0.0,0.0,0.0,-0.3536,-0.3932,-0.3227,-0.422,-0.5501,0.0,0.0,0.0,0.0,0.0,0.0,0.0,0.0,0.0,0.0,0.0,0.0,0.0,0.0,0.0,0.0,0.0,-0.8885,-0.8885,-0.8885,-0.8885,-0.8885,-0.8885,-0.8981,-0.9079,-0.9086,-0.913,-0.9235,-0.9242,-0.9262,-0.9306,-0.931,-0.9334,-0.9381,-0.9381,-0.9435,-0.954,-0.9635,-0.973,-0.9822,-0.9822,-0.9822,-0.9822,-0.9822,-0.9822,-0.9822,-0.9822,-0.9822,-0.9822,-0.9822,-0.9822,-0.9822,-0.9822,-0.9822,-0.9822,0.0,0.0,0.0,0.0,0.0,0.0,0.0,0.0,0.0,0.0,0.0,0.0,0.0,0.0,0.0,0.0,0.0,0.0,0.0,0.0,0.0,0.0,0.0,0.0,0.0,0.0,0.0,0.0,0.0,0.0,0.0,0.0,0.0,0.0,0.0,0.0,0.0,0.0,0.0,0.0,0.0,0.0,0.0,0.0,0.0,0.0,0.0,0.0,0.0,0.0,-0.0807,0.0,0.0,0.0,0.0,0.0,-0.3331,-0.4581,-0.2382,-0.3385,-0.5163,0.0,0.0,0.0,0.0,0.0,0.0,0.0,0.0,0.0,0.0,0.0,0.0,0.0,0.0,0.0,0.0,0.0,-0.8885,-0.8885,-0.8885,-0.8885,-0.8885,-0.8885,-0.8885,-0.8885,-0.8885,-0.8885,-0.8885,-0.8885,-0.9005,-0.9204,-0.9207,-0.9279,-0.9374,-0.9378,-0.9378,-0.9381,-0.9381,-0.9534,-0.9819,-0.9819,-0.9819,-0.9822,-0.9822,-0.9822,-0.9822,-0.9822,-0.9822,-0.9822,-0.9822,-0.9822,-0.9822,-0.9822,-0.9822,-0.9822,0.0,0.0,0.0,0.0,0.0,0.0,0.0,0.0,0.0,0.0,0.0,0.0,0.0,0.0,0.0,0.0,0.0,0.0,0.0,0.0,0.0,0.0,0.0,0.0,0.0,0.0,0.0,0.0,0.0,0.0,0.0,0.0,0.0,0.0,0.0,0.0,0.0,0.0,0.0,0.0,0.0,0.0,0.0,0.0,0.0,0.0,0.0,0.0,0.0,0.0,0.0,0.0,0.0,0.0,0.0,-0.0523,-0.0999,-0.135,-0.0708,-0.2411,0.0,0.0,0.0,0.0,0.0,0.0,0.0,0.0,0.0,0.0,0.0,0.0,0.0,-0.8547,-0.8655,-0.8764,0.0,0.0,0.0,-0.8885,-0.8885,-0.8885,-0.8885,-0.8885,-0.8885,-0.8885,-0.8885,-0.8885,-0.8885,-0.8885,-0.8902,-0.9001,-0.9001,-0.9025,-0.9069,-0.9069,-0.912,-0.9279,-0.9279,-0.9381,-0.9673,-0.9673,-0.9727,-0.9822,-0.9822,-0.9822,-0.9822,-0.9822,-0.9822,-0.9822,-0.9822,-0.9822,-0.9822,-0.9822,-0.9822,-0.9822,0.0,0.0,0.0,0.0,0.0,0.0,0.0,0.0,0.0,0.0,0.0,0.0,0.0,0.0,0.0,0.0,0.0,0.0,0.0,0.0,0.0,0.0,0.0,0.0,0.0,0.0,0.0,0.0,0.0,0.0,0.0,0.0,0.0,0.0,0.0,0.0,0.0,0.0,0.0,0.0,0.0,0.0,0.0,0.0,0.0,0.0,0.0,0.0,0.0,0.0,0.0,0.0,0.0,0.0,0.0,0.0,-0.03,-0.0523,-0.0133,0.0,0.0,0.0,0.0,0.0,0.0,0.0,0.0,0.0,0.0,0.0,0.0,0.0,0.0,-0.8581,-0.8669,-0.8764,-0.8861,-0.8885,0.0,-0.8885,-0.8885,-0.8885,-0.8885,-0.8885,-0.8885,-0.8885,-0.8885,-0.8885,-0.8885,-0.8885,-0.8885,-0.8885,-0.8885,-0.8885,-0.8885,-0.8885,-0.8981,-0.9066,-0.9066,-0.9195,-0.9432,-0.9493,-0.9598,-0.9741,-0.9795,-0.9822,-0.9822,-0.9822,-0.9822,-0.9822,-0.9822,-0.9822,-0.9822,-0.9822,-0.9822,-0.9822,0.0,0.0,0.0,0.0,0.0,0.0,0.0,0.0,0.0,0.0,0.0,0.0,0.0,0.0,0.0,0.0,0.0,0.0,0.0,0.0,0.0,0.0,0.0,0.0,0.0,0.0,0.0,0.0,0.0,0.0,0.0,0.0,0.0,0.0,0.0,0.0,0.0,0.0,0.0,0.0,0.0,0.0,0.0,0.0,0.0,0.0,0.0,0.0,0.0,0.0,0.0,0.0,0.0,0.0,0.0,0.0,-0.067,-0.1255,0.0,0.0,0.0,0.0,0.0,0.0,0.0,0.0,0.0,0.0,0.0,0.0,0.0,0.0,0.0,-0.8442,-0.8601,-0.876,-0.8844,-0.8875,0.0,-0.8885,-0.8885,-0.8885,-0.8885,-0.8771,-0.8771,-0.8881,-0.8771,-0.8771,-0.8881,-0.8885,-0.8885,-0.8885,-0.8885,-0.8885,-0.8885,-0.8885,-0.8885,-0.8885,-0.8885,-0.9008,-0.9193,-0.9293,-0.9445,-0.9598,-0.9741,-0.9802,-0.9802,-0.9815,-0.9822,-0.9822,-0.9822,-0.9822,-0.9822,-0.9822,-0.9822,-0.9822,0.0,0.0,0.0,0.0,0.0,0.0,0.0,0.0,0.0,0.0,0.0,0.0,0.0,0.0,0.0,0.0,0.0,0.0,0.0,0.0,0.0,0.0,0.0,0.0,0.0,0.0,0.0,0.0,0.0,0.0,0.0,0.0,0.0,0.0,0.0,0.0,0.0,0.0,0.0,0.0,0.0,0.0,0.0,0.0,0.0,0.0,0.0,0.0,0.0,0.0,0.0,0.0,0.0,0.0,0.0,0.0,-0.0166,-0.0299,0.0,-0.0922,0.0,0.0,0.0,0.0,0.0,0.0,0.0,0.0,0.0,0.0,0.0,0.0,0.0,0.0,-0.8537,-0.8723,-0.8754,-0.8807,-0.8885,-0.8885,-0.8885,-0.8885,-0.8885,-0.7875,-0.7651,-0.8826,-0.782,-0.7706,-0.8826,-0.8885,-0.8885,-0.8885,-0.8885,-0.8885,-0.8885,-0.8885,-0.8885,-0.8885,-0.8885,-0.8898,-0.8991,-0.9137,-0.9344,-0.9439,-0.9591,-0.9656,-0.9663,-0.9774,-0.9822,-0.9822,-0.9822,-0.9822,-0.9822,-0.9822,-0.9822,-0.9822,0.0,0.0,0.0,0.0,0.0,0.0,0.0,0.0,0.0,0.0,0.0,0.0,0.0,0.0,0.0,0.0,0.0,0.0,0.0,0.0,0.0,0.0,0.0,0.0,0.0,0.0,0.0,0.0,0.0,0.0,0.0,0.0,0.0,0.0,0.0,0.0,0.0,0.0,0.0,0.0,0.0,0.0,0.0,0.0,0.0,0.0,0.0,0.0,0.0,0.0,0.0,0.0,0.0,0.0,0.0,0.0,0.0,0.0,0.0,0.0,0.0,0.0,0.0,0.0,0.0,0.0,0.0,0.0,0.0,0.0,0.0,0.0,0.0,0.0,0.0,-0.6812,-0.7567,-0.7693,-0.8011,-0.8612,-0.8784,-0.8828,-0.8828,-0.817,-0.81,-0.883,-0.8211,-0.8097,-0.8881,-0.8885,-0.8885,-0.8885,-0.8885,-0.8885,-0.8885,-0.8885,-0.8885,-0.8885,-0.8885,-0.8885,-0.8888,-0.9086,-0.9255,-0.934,-0.9435,-0.954,-0.9615,-0.969,-0.9758,-0.9822,-0.9822,-0.9822,-0.9822,-0.9822,-0.9822,-0.9822,0.0,0.0,0.0,0.0,0.0,0.0,0.0,0.0,0.0,0.0,0.0,0.0,0.0,0.0,0.0,0.0,0.0,0.0,0.0,0.0,0.0,0.0,0.0,0.0,0.0,0.0,0.0,0.0,0.0,0.0,0.0,0.0,0.0,0.0,0.0,0.0,0.0,0.0,0.0,0.0,0.0,0.0,0.0,0.0,0.0,0.0,0.0,0.0,0.0,0.0,0.0,0.0,0.0,0.0,0.0,0.0,0.0,0.0,0.0,0.0,0.0,0.0,0.0,0.0,0.0,0.0,0.0,0.0,0.0,0.0,0.0,0.0,0.0,0.0,0.0,0.0,0.0,0.0,-0.6571,-0.7685,-0.8109,-0.8344,-0.8344,-0.84,-0.8591,-0.8841,-0.8397,-0.8352,-0.8881,-0.8657,-0.8657,-0.8881,-0.8885,-0.8885,-0.8885,-0.8885,-0.8885,-0.8885,-0.8885,-0.8885,-0.8888,-0.9062,-0.9173,-0.918,-0.9276,-0.9412,-0.9534,-0.9557,-0.9639,-0.9747,-0.9774,-0.9785,-0.9788,-0.9812,-0.9822,-0.9822,0.0,0.0,0.0,0.0,0.0,0.0,0.0,0.0,0.0,0.0,0.0,0.0,0.0,0.0,0.0,0.0,0.0,0.0,0.0,0.0,0.0,0.0,0.0,0.0,0.0,0.0,0.0,0.0,0.0,0.0,0.0,0.0,0.0,0.0,0.0,0.0,0.0,0.0,0.0,0.0,0.0,0.0,0.0,0.0,0.0,0.0,0.0,0.0,0.0,0.0,0.0,0.0,0.0,0.0,0.0,0.0,0.0,0.0,0.0,0.0,0.0,0.0,0.0,0.0,0.0,0.0,0.0,0.0,0.0,0.0,0.0,0.0,0.0,0.0,0.0,0.0,0.0,0.0,0.0,-0.5039,-0.6056,-0.6809,-0.6809,-0.6714,-0.7251,-0.8622,-0.628,-0.6046,-0.8764,-0.7706,-0.7595,-0.8881,-0.8885,-0.8885,-0.8885,-0.8885,-0.8885,-0.8885,-0.8885,-0.8885,-0.8885,-0.8902,-0.8967,-0.8977,-0.912,-0.9251,-0.9282,-0.9357,-0.9422,-0.9452,-0.9588,-0.9639,-0.9652,-0.9774,-0.9822,-0.9822,0.0,0.0,0.0,0.0,0.0,0.0,0.0,0.0,0.0,0.0,0.0,0.0,0.0,0.0,0.0,0.0,0.0,0.0,0.0,0.0,0.0,0.0,0.0,0.0,0.0,0.0,0.0,0.0,0.0,0.0,0.0,0.0,0.0,0.0,0.0,0.0,0.0,0.0,0.0,0.0,0.0,0.0,0.0,0.0,0.0,0.0,0.0,0.0,0.0,0.0,0.0,0.0,0.0,0.0,0.0,0.0,0.0,0.0,0.0,0.0,0.0,0.0,0.0,0.0,0.0,0.0,0.0,0.0,0.0,0.0,0.0,0.0,0.0,0.0,0.0,0.0,0.0,0.0,0.0,0.0,-0.4826,-0.5222,-0.5222,-0.5953,-0.6698,-0.7396,-0.6917,-0.6861,-0.7535,-0.7707,-0.7795,-0.7648,-0.8491,-0.8885,-0.8885,-0.8885,-0.8885,-0.8885,-0.8885,-0.8885,-0.8885,-0.8885,-0.8885,-0.8888,-0.9005,-0.9079,-0.9214,-0.9282,-0.9303,-0.9388,-0.9456,-0.9483,-0.949,-0.9551,-0.9629,-0.9703,0.0,0.0,0.0,0.0,0.0,0.0,0.0,0.0,0.0,0.0,0.0,0.0,0.0,0.0,0.0,0.0,0.018,0.0,0.0,0.0,0.0,0.0,0.0,0.0,0.0,0.0,0.0,0.0,0.0,0.0,0.0,0.0,0.0,0.0,0.0,0.0,0.0,0.0,0.0,0.0,0.0,0.0,0.0,0.0,0.0,0.0,0.0,0.0,0.0,0.0,0.0,0.0,0.0,0.0,0.0,0.0,0.0,0.0,0.0,0.0,0.0,0.0,0.0,0.0,0.0,0.0,0.0,0.0,0.0,0.0,0.0,0.0,0.0,0.0,0.0,0.0,0.0,0.0,0.0,0.0,-0.3358,-0.3642,-0.3642,-0.4981,-0.6024,-0.6419,-0.7,-0.7109,-0.6534,-0.7546,-0.772,-0.6711,-0.8134,-0.8885,-0.8885,-0.8885,-0.8885,-0.8885,-0.8885,-0.8885,-0.8885,-0.8885,-0.8885,-0.8885,-0.8885,-0.8998,-0.91,-0.91,-0.9167,-0.9273,-0.931,-0.9323,-0.9327,-0.9367,-0.9452,-0.9551,0.0,0.0,0.0,0.0,0.0,0.0,0.0,0.0,0.0,0.0,0.0,0.0,0.0,0.1701,0.1701,0.1701,0.0673,0.0,0.0,0.0,0.0,0.0,0.0,0.0,0.0,0.0,0.0,0.0,0.0,0.0,0.0,0.0,0.0,0.0,0.0,0.0,0.0,0.0,0.0,0.0,0.0,0.0,0.0,0.0,0.0,0.0,0.0,0.0,0.0,0.0,0.0,0.0,0.0,0.0,0.0,0.0,0.0,0.0,0.0,0.0,0.0,0.0,0.0,0.0,0.0,0.0,0.0,0.0,0.0,0.0,0.0,0.0,0.0,0.0,0.0,0.0,0.0,0.0,0.0,0.0,0.0,-0.2116,-0.2116,-0.3323,-0.4714,-0.619,-0.501,-0.4894,-0.6416,-0.6577,-0.6642,-0.6704,-0.8142,-0.8885,-0.8885,-0.8885,-0.8885,-0.8885,-0.8885,-0.8885,-0.8885,-0.8885,-0.8885,-0.8885,-0.8885,-0.8888,-0.8895,-0.8895,-0.8898,-0.8922,-0.9113,-0.9221,-0.9241,-0.9327,-0.9388,-0.9395,0.0,0.0,0.0,0.0,0.0,0.0,0.0,0.0,0.0,0.0,0.0,0.0,0.0,0.2948,0.2948,0.2948,0.2547,0.2324,0.2324,0.2324,0.2324,0.2324,0.1567,0.1165,0.1165,0.0404,0.0,0.0,0.0,0.0,0.0,0.0,0.0,0.0,0.0,0.0,0.0,0.0,0.0,0.0,0.0,0.0,0.0,0.0,0.0,0.0,0.0,0.0,0.0,0.0,0.0,0.0,0.0,0.0,0.0,0.0,0.0,0.0,0.0,0.0,0.0,0.0,0.0,0.0,0.0,0.0,0.0,0.0,0.0,0.0,0.0,0.0,0.0,0.0,0.0,0.0,0.0,0.0,0.0,0.0,0.0,-0.0706,-0.0706,-0.1913,-0.3324,-0.4712,-0.5122,-0.5523,-0.6147,-0.6292,-0.5975,-0.5137,-0.6642,-0.7953,-0.8881,-0.8885,-0.8885,-0.8885,-0.8885,-0.8885,-0.8885,-0.8885,-0.8885,-0.8885,-0.8885,-0.8885,-0.8885,-0.8885,-0.8885,-0.8888,-0.8994,-0.9015,-0.9022,-0.9076,-0.9154,-0.9292,0.0,0.0,0.0,0.0,0.0,0.6204,0.0,0.0,0.0,0.0,0.0,0.0,0.0,0.0,0.326,0.2458,0.2769,0.2815,0.2413,0.2413,0.2413,0.2413,0.1612,0.121,0.121,0.0,0.0,0.0,0.0,0.0,0.0,0.0,0.0,0.0,0.0,0.0,0.0,0.0,0.0,0.0,0.0,0.0,0.0,0.0,0.0,0.0,0.0,0.0,0.0,0.0,0.0,0.0,0.0,0.0,0.0,0.0,0.0,0.0,0.0,0.0,0.0,0.0,0.0,0.0,0.0,0.0,0.0,0.0,0.0,0.0,0.0,0.0,0.0,0.0,0.0,0.0,0.0,0.0,0.0,0.0,0.0,0.0,0.0,-0.0807,-0.1862,-0.3215,-0.4169,0.0,-0.5317,-0.5502,-0.5203,-0.4348,-0.588,-0.7171,-0.8139,-0.8634,-0.8885,-0.8885,-0.8885,-0.8885,-0.8885,-0.8885,-0.8885,-0.8885,-0.8885,-0.8885,-0.8885,-0.8885,-0.8885,-0.8885,-0.8885,-0.8885,-0.8885,-0.8885,-0.8998,-0.9083,0.0,0.7095,0.7095,0.7095,0.7095,0.7095,0.7095,0.0,0.0,0.0,0.0,0.0,0.0,0.0,0.0,0.0404,0.1254,0.1389,0.0225,0.0135,0.009,0.009,0.009,0.0045,0.0045,0.0,0.0,0.0,0.0,0.0,0.0,0.0,0.0,0.0,0.0,0.0,0.0,0.0,0.0,0.0,0.0,0.0,0.0,0.0,0.0,0.0,0.0,0.0,0.0,0.0,0.0,0.0,0.0,0.0,0.0,0.0,0.0,0.0,0.0,0.0,0.0,0.0,0.0,0.0,0.0,0.0,0.0,0.0,0.0,0.0,0.0,0.0,0.0,0.0,0.0,0.0,0.0,0.0,0.0,0.0,0.0,0.0,0.0,0.0,-0.0555,-0.1913,-0.2013,-0.2614,-0.3966,-0.4136,-0.4266,-0.445,-0.5822,-0.6637,-0.6696,-0.8142,-0.8881,-0.8885,-0.8885,-0.8885,-0.8885,-0.8885,-0.8885,-0.8885,-0.8885,-0.8885,-0.8885,-0.8885,-0.8885,-0.8885,-0.8885,-0.8885,-0.8885,-0.8885,-0.8885,-0.8885,0.7095,0.7095,0.7095,0.7095,0.7095,0.7095,0.0,0.0,0.0,0.0,0.0,0.0,0.0,0.0,0.5844,0.5176,0.4688,0.4243,0.3933,0.3083,0.2592,0.2592,0.179,0.1299,0.1299,0.0,0.0,0.0,0.0,0.0,0.0,0.0,0.0,0.0,0.0,0.0,0.0,0.0,0.0,0.0,0.0,0.0,0.0,0.0,0.0,0.0,0.0,0.0,0.0,0.0,0.0,0.0,0.0,0.0,0.0,0.0,0.0,0.0,0.0,0.0,0.0,0.0,0.0,0.0,0.0,0.0,0.0,0.0,0.0,0.0,0.0,0.0,0.0,0.0,0.0,0.0,0.0,0.0,0.0,0.0,0.0,0.0,0.0,0.0,-0.0555,0.0,-0.2013,-0.3016,-0.5325,-0.4541,-0.3675,-0.2863,-0.3232,-0.4516,-0.6694,-0.7089,-0.782,-0.8885,-0.8885,-0.8885,-0.8885,-0.8885,-0.8885,-0.8885,-0.8885,-0.8885,-0.8885,-0.8885,-0.8885,-0.8885,-0.8885,-0.8885,-0.8885,-0.8885,-0.8885,-0.8885,0.7095,0.7095,0.7095,0.7095,0.7095,0.7095,0.0,0.0,0.0,0.0,0.0,0.0,0.0,0.0,0.0,0.562,0.5043,0.4641,0.4641,0.3972,0.3614,0.3614,0.2948,0.2324,0.0,0.0,0.0,0.0,0.0,0.0,0.0,0.0,0.0,0.0,0.0,0.0,0.0,0.0,0.0,0.0,0.0,0.0,0.0,0.0,0.0,0.0,0.0,0.0,0.0,0.0,0.0,0.0,0.0,0.0,0.0,0.0,0.0,0.0,0.0,0.0,0.0,0.0,0.0,0.0,0.0,0.0,0.0,0.0,0.0,0.0,0.0,0.0,0.0,0.0,0.0,0.0,0.0,0.0,0.0,0.0,0.0,0.0,0.0,0.0,-0.0303,-0.1109,-0.1159,-0.2114,-0.4221,-0.3566,-0.2828,-0.2148,-0.2187,-0.3019,-0.4794,-0.5479,-0.621,-0.7093,-0.7706,-0.7651,-0.7091,-0.8322,-0.8546,-0.8042,-0.8657,-0.8885,-0.8885,-0.8885,-0.8885,-0.8885,-0.8885,-0.8885,-0.8885,-0.8885,-0.8885,-0.8885,0.0,0.7095,0.7095,0.7095,0.7095,0.0,0.0,0.0,0.0,0.0,0.0,0.0,0.0,0.0,0.0,0.0,0.0,0.3792,0.3792,0.3659,0.0,0.0,0.0,0.0,0.0,0.0,0.0,0.0,0.0,0.0,0.0,0.0,0.0,0.0,0.0,0.0,0.0,0.0,0.0,0.0,0.0,0.0,0.0,0.0,0.0,0.0,0.0,0.0,0.0,0.0,0.0,0.0,0.0,0.0,0.0,0.0,0.0,0.0,0.0,0.0,0.0,0.0,0.0,0.0,0.0,0.0,0.0,0.0,0.0,0.0,0.0,0.0,0.0,0.0,0.0,0.0,0.0,0.0,0.0,0.0,0.0,0.0,0.0,0.0,0.0,0.0,-0.0151,-0.0656,-0.1712,-0.1913,-0.1913,-0.1762,-0.1897,-0.2034,-0.2173,-0.3563,-0.4337,-0.4514,-0.5804,-0.5753,-0.4582,-0.7204,-0.7706,-0.6533,-0.782,-0.8432,-0.8432,-0.8432,-0.8602,-0.8885,-0.8885,-0.8885,-0.8885,-0.8885,-0.8885,-0.8885,0.7095,0.7095,0.7095,0.7095,0.0,0.0,0.0,0.0,0.0,0.0,0.0,0.0,0.0,0.0,0.0,0.0,0.0,0.0,0.0,0.0,0.0,0.0,0.0,0.0,0.0,0.0,0.0,0.0,0.0,0.0,0.0,0.0,0.0,0.0,0.0,0.0,0.0,0.0,0.0,0.0,0.0,0.0,0.0,0.0,0.0,0.0,0.0,0.0,0.0,0.0,0.0,0.0,0.0,0.0,0.0,0.0,0.0,0.0,0.0,0.0,0.0,0.0,0.0,0.0,0.0,0.0,0.0,0.0,0.0,0.0,0.0,0.0,0.0,0.0,0.0,0.0,0.0,0.0,0.0,0.0,0.0,0.0,0.0,0.0,0.0,0.0,-0.1008,-0.126,-0.0454,-0.1411,-0.1511,-0.0404,-0.0411,-0.0986,-0.2184,-0.2524,-0.3277,-0.4489,-0.4773,-0.4804,-0.4528,-0.5085,-0.5196,-0.4973,-0.525,-0.5363,-0.5363,-0.5363,-0.6755,-0.8885,-0.8885,-0.8885,-0.8885,-0.8885,-0.8885,-0.8885,0.7095,0.7095,0.7095,0.7095,0.0,0.0,0.0,0.0,0.0,0.0,0.0,0.0,0.0,0.0,0.0,0.0,0.0,0.0,0.0,0.0,0.0,0.0,0.0,0.0,0.0,0.0,0.0,0.0,0.0,0.0,0.0,0.0,0.0,0.0,0.0,0.0,0.0,0.0,0.0,0.0,0.0,0.0,0.0,0.0,0.0,0.0,0.0,0.0,0.0,0.0,0.0,0.0,0.0,0.0,0.0,0.0,0.0,0.0,0.0,0.0,0.0,0.0,0.0,0.0,0.0,0.0,0.0,0.0,0.0,0.0,0.0,0.0,0.0,0.0,0.0,0.0,0.0,0.0,0.0,0.0,0.0,0.0,0.0,0.0,0.0,0.0,-0.0605,-0.1008,-0.1008,-0.1008,-0.1008,-0.1008,-0.0357,-0.036,-0.1088,-0.1118,-0.1517,-0.2238,-0.2994,-0.2962,-0.2294,-0.3801,-0.408,-0.3409,-0.4191,-0.4526,-0.4526,-0.4526,-0.5363,-0.6758,-0.754,-0.8266,-0.8885,-0.8885,-0.8885,-0.8885,0.7095,0.7095,0.7095,0.7095,0.0,0.0,0.0,0.0,0.0,0.0,0.0,0.0,0.0,0.0,0.0,0.0,0.0,0.0,0.0,0.0,0.0,0.0,0.0,0.665,0.0,0.0,0.0,0.0,0.0,0.0,0.0,0.0,0.0,0.0,0.0,0.0,0.0,0.0,0.0,0.0,0.0,0.0,0.0,0.0,0.0,0.0,0.0,0.0,0.0,0.0,0.0,0.0,0.0,0.0,0.0,0.0,0.0,0.0,0.0,0.0,0.0,0.0,0.0,0.0,0.0,0.0,0.0,0.0,0.0,0.0,0.0,0.0,0.0,0.0,0.0,0.0,0.0,0.0,0.0,0.0,0.0,0.0,0.0,0.0,0.0,0.0,0.0,-0.0454,-0.1561,-0.0605,-0.0504,-0.1561,-0.0555,0.0,0.0,0.0,0.0,0.0,-0.1216,-0.1172,-0.0056,-0.2517,-0.2962,-0.1845,-0.3074,-0.3634,-0.3634,-0.3634,-0.3801,-0.4191,-0.5697,-0.7204,-0.8491,-0.8491,-0.8657,-0.8885,0.7095,0.7095,0.7095,0.7095,0.0,0.0,0.0,0.0,0.0,0.0,0.0,0.0,0.0,0.0,0.0,0.0,0.0,0.0,0.7095,0.0,0.0,0.0,0.0,0.0,0.6918,0.0,0.0,0.0,0.0,0.0,0.0,0.0,0.0,0.0,0.0,0.0,0.0,0.0,0.0,0.0,0.0,0.0,0.0,0.0,0.0,0.0,0.0,0.0,0.0,0.0,0.0,0.0,0.0,0.0,0.0,0.0,0.0,0.0,0.0,0.0,0.0,0.0,0.0,0.0,0.0,0.0,0.0,0.0,0.0,0.0,0.0,0.0,0.0,0.0,0.0,0.0,0.0,0.0,0.0,0.0,0.0,0.0,0.0,0.0,0.0,0.0,0.0,-0.005,-0.0202,-0.0101,-0.005,-0.0202,-0.0101,0.0,0.0,0.0,0.0,0.0,-0.0163,-0.0166,0.0,-0.0336,-0.0392,-0.028,-0.0448,-0.0504,-0.0504,-0.0504,-0.1287,-0.2626,-0.4134,-0.5641,-0.6924,-0.6924,-0.7762,-0.8885,0.7095,0.7095,0.7095,0.7095,0.0,0.0,0.0,0.0,0.0,0.0,0.0,0.0,0.0,0.0,0.0,0.0,0.7363,0.7312,0.74,0.0,0.0,0.0,0.0,0.0,0.0,0.0,0.0,0.0,0.5666,0.0,0.0,0.0,0.0,0.0,0.1869,0.0,0.0046,0.0,0.0716,0.0,0.0,0.0,0.0,0.0,0.0,0.0,0.0,0.0,0.0,0.0,0.0,0.0,0.0,0.0,0.0,0.0,0.0,0.0,0.0,0.0,0.0,0.0,0.0,0.0,0.0,0.0,0.0,0.0,0.0,0.0,0.0,0.0,0.0,0.0,0.0,0.0,0.0,0.0,0.0,0.0,0.0,0.0,0.0,0.0,0.0,0.0,0.0,0.0,0.0,0.0,0.0,0.0,0.0,0.0,0.0,0.0,0.0,0.0,0.0,0.0,0.0,0.0,0.0,0.0,0.0,0.0,0.0,0.0,-0.0392,-0.1008,-0.1623,-0.3855,-0.6702,-0.6702,-0.7091,-0.7762,0.7095,0.7095,0.7095,0.0,0.0,0.0,0.0,0.0,0.0,0.0,0.0,0.0,0.7414,0.7295,0.0,0.0,0.7519,0.7482,0.7594,0.7455,0.7441,0.0,0.0,0.7255,0.0,0.0,0.0,0.0,0.0,0.0,0.0,0.0,0.0,0.0,0.0,0.253,0.056,0.0,0.1213,0.0,0.0,0.0,0.0,0.0,0.0,0.0,0.0,0.0,0.0,0.0,0.0,0.0,0.0,0.0,0.0,0.0,0.0,0.0,0.0,0.0,0.0,0.0,0.0,0.0,0.0,0.0,0.0,0.0,0.0,0.0,0.0,0.0,0.0,0.0,0.0,0.0,0.0,0.0,0.0,0.0,0.0,0.0,0.0,0.0,0.0,0.0,0.0,0.0,0.0,0.0,0.0,0.0,0.0,0.0,0.0,0.0,0.0,0.0,0.0,0.0,0.0,0.0,0.0,0.0,0.0,0.0,0.0,0.0,0.0,0.0,0.0,-0.2236,-0.547,-0.547,-0.575,-0.6255,0.7095,0.7095,0.0,0.0,0.0,0.0,0.0,0.0,0.0,0.0,0.0,0.0,0.0,0.0,0.0,0.0,0.0,0.7594,0.76,0.7455,0.7441,0.0,0.7448,0.7412,0.7415,0.0,0.0,0.0,0.0,0.0,0.0,0.0,0.0,0.0,0.0,0.2926,0.1759,0.1809,0.112,0.0,0.0,0.0,0.0,0.0,0.0,0.0,0.0,0.0,0.0,0.0,0.0,0.0,0.0,0.0,0.0,0.0,0.0,0.0,0.0,0.0,0.0,0.0,0.0,0.0,0.0,0.0,0.0,0.0,0.0,0.0,0.0,0.0,0.0,0.0,0.0,0.0,0.0,0.0,0.0,0.0,0.0,0.0,0.0,0.0,0.0,0.0,0.0,0.0,0.0,0.0,0.0,0.0,0.0,0.0,0.0,0.0,0.0,0.0,0.0,0.0,0.0,0.0,0.0,0.0,0.0,0.0,0.0,0.0,0.0,0.0,0.0,-0.0952,-0.2347,-0.2347,-0.3296,-0.4582,0.7095,0.7095,0.0,0.0,0.0,0.0,0.0,0.7095,0.0,0.0,0.7292,0.0,0.0,0.7611,0.7641,0.7887,0.7824,0.7784,0.7837,0.7746,0.7729,0.7837,0.7655,0.7522,0.7522,0.0,0.0,0.0,0.0,0.0,0.0,0.0,0.0,0.0,0.0,0.4489,0.0,0.0,0.0,0.0,0.0,0.0,0.0,0.0,0.0,0.0,0.0,0.0,0.0,0.0,0.0,0.0,0.0,0.0,0.0,0.0,0.0,0.0,0.0,0.0,0.0,0.0,0.0,0.0,0.0,0.0,0.0,0.0,0.0,0.0,0.0,0.0,0.0,0.0,0.0,0.0,0.0,0.0,0.0,0.0,0.0,0.0,0.0,0.0,0.0,0.0,0.0,0.0,0.0,0.0,0.0,0.0,0.0,0.0,0.0,0.0,0.0,0.0,0.0,0.0,0.0,0.0,0.0,0.0,0.0,0.0,0.0,0.0,0.0,0.0,0.0,-0.028,-0.084,-0.1845,-0.2515,-0.2966,0.7095,0.7095,0.7095,0.0,0.0,0.0,0.0,0.0,0.0,0.0,0.7383,0.0,0.7716,0.0,0.7773,0.7968,0.7901,0.7884,0.7982,0.7896,0.7879,0.7982,0.7804,0.7675,0.7675,0.0,0.0,0.0,0.0,0.7095,0.0,0.0,0.0,0.0,0.0,0.5481,0.2495,0.3358,0.2285,0.0,0.0,0.0,0.0,0.0,0.0,0.0,0.0,0.0,0.0,0.0,0.0,0.0,0.0,0.0,0.0,0.0,0.0,0.0,0.0,0.0,0.0,0.0,0.0,0.0,0.0,0.0,0.0,0.0,0.0,0.0,0.0,0.0,0.0,0.0,0.0,0.0,0.0,0.0,0.0,0.0,0.0,0.0,0.0,0.0,0.0,0.0,0.0,0.0,0.0,0.0,0.0,0.0,0.0,0.0,0.0,0.0,0.0,0.0,0.0,0.0,0.0,0.0,0.0,0.0,0.0,0.0,0.0,0.0,0.0,0.0,0.0,0.0,-0.0112,-0.1063,-0.1404,-0.1413,0.7095,0.7095,0.7095,0.0,0.7095,0.0,0.0,0.0,0.7309,0.0,0.7414,0.7604,0.7611,0.7736,0.7882,0.7978,0.7988,0.7988,0.7988,0.7902,0.0,0.0,0.7899,0.7818,0.7811,0.0,0.0,0.0,0.0,0.0,0.0,0.0,0.0,0.0,0.7095,0.0,0.3595,0.3618,0.2209,0.0,0.0,0.0,0.0,0.0,0.0,0.0,0.0,0.0,0.0,0.0,0.0,0.0,0.0,0.0,0.0,0.0,0.0,0.0,0.0,0.0,0.0,0.0,0.0,0.0,0.0,0.0,0.0,0.0,0.0,0.0,0.0,0.0,0.0,0.0,0.0,0.0,0.0,0.0,0.0,0.0,0.0,0.0,0.0,0.0,0.0,0.0,0.0,0.0,0.0,0.0,0.0,0.0,0.0,0.0,0.0,0.0,0.0,0.0,0.0,0.0,0.0,0.0,0.0,0.0,0.0,0.0,0.0,0.0,0.0,0.0,0.0,0.0,0.0,0.0,0.0,0.0,0.7095,0.7095,0.7095,0.7095,0.7095,0.7095,0.7095,0.0,0.0,0.0,0.7478,0.7641,0.7746,0.7889,0.7948,0.7985,0.7988,0.0,0.0,0.0,0.0,0.7988,0.7951,0.7877,0.7814,0.7672,0.7522,0.7415,0.0,0.0,0.7095,0.0,0.0,0.0,0.0,0.0,0.3592,0.3612,0.2228,0.0,0.0,0.0,0.0,0.0,0.0,0.0,0.0,0.0,0.0,0.0,0.0,0.0,0.0,0.0,0.0,0.0,0.0,0.0,0.0,0.0,0.0,0.0,0.0,0.0,0.0,0.0,0.0,0.0,0.0,0.0,0.0,0.0,0.0,0.0,0.0,0.0,0.0,0.0,0.0,0.0,0.0,0.0,0.0,0.0,0.0,0.0,0.0,0.0,0.0,0.0,0.0,0.0,0.0,0.0,0.0,0.0,0.0,0.0,0.0,0.0,0.0,0.0,0.0,0.0,0.0,0.0,0.0,0.0,0.0,0.0,0.0,0.0,0.0,0.0,0.0,0.0,0.7095,0.7095,0.7095,0.7095,0.0,0.0,0.7231,0.735,0.0,0.7553,0.7811,0.0,0.8011,0.8143,0.8231,0.8231,0.8231,0.0,0.8231,0.0,0.0,0.8143,0.814,0.8069,0.7916,0.7767,0.0,0.7472,0.0,0.0,0.7095,0.0,0.0,0.0,0.0,0.6109,0.432,0.3244,0.2037,0.0728,0.0198,0.0,0.0,0.0,0.0,0.0,0.0,0.0,0.0,0.0,0.0,0.0,0.0,0.0,0.0,0.0,0.0,0.0,0.0,0.0,0.0,0.0,0.0,0.0,0.0,0.0,0.0,0.0,0.0,0.0,0.0,0.0,0.0,0.0,0.0,0.0,0.0,0.0,0.0,0.0,0.0,0.0,0.0,0.0,0.0,0.0,0.0,0.0,0.0,0.0,0.0,0.0,0.0,0.0,0.0,0.0,0.0,0.0,0.0,0.0,0.0,0.0,0.0,0.0,0.0,0.0,0.0,0.0,0.0,0.0,0.0,0.0,0.0,0.0,0.0,0.0,0.7095,0.7095,0.7109,0.0,0.0,0.0,0.0,0.7655,0.0,0.7834,0.0,0.8408,0.8337,0.8397,0.8482,0.8482,0.8482,0.8482,0.8482,0.8482,0.8428,0.8354,0.8333,0.8208,0.8022,0.7899,0.7743,0.0,0.0,0.0,0.0,0.0,0.0,0.0,0.0,0.0,0.0,0.276,0.1716,0.1484,0.044,0.0,0.0,0.0,0.0,0.0,0.0,0.0,0.0,0.0,0.0,0.0,0.0,0.0,0.0,0.0,0.0,0.0,0.0,0.0,0.0,0.0,0.0,0.0,0.0,0.0,0.0,0.0,0.0,0.0,0.0,0.0,0.0,0.0,0.0,0.0,0.0,0.0,0.0,0.0,0.0,0.0,0.0,0.0,0.0,0.0,0.0,0.0,0.0,0.0,0.0,0.0,0.0,0.0,0.0,0.0,0.0,0.0,0.0,0.0,0.0,0.0,0.0,0.0,0.0,0.0,0.0,0.0,0.0,0.0,0.0,0.0,0.0,0.0,0.0,0.0,0.7095,0.7095,0.0,0.0,0.0,0.7506,0.8081,0.7841,0.7726,0.7917,0.818,0.835,0.8327,0.8397,0.8482,0.8482,0.8482,0.0,0.0,0.0,0.0,0.8445,0.8385,0.831,0.8231,0.7953,0.7743,0.0,0.0,0.0,0.0,0.0,0.0,0.0,0.0,0.0,0.3807,0.24,0.0,0.0293,0.01,0.0,0.0,0.0,0.0,0.0,0.0,0.0,0.0,0.0,0.0,0.0,0.0,0.0,0.0,0.0,0.0,0.0,0.0,0.0,0.0,0.0,0.0,0.0,0.0,0.0,0.0,0.0,0.0,0.0,0.0,0.0,0.0,0.0,0.0,0.0,0.0,0.0,0.0,0.0,0.0,0.0,0.0,0.0,0.0,0.0,0.0,0.0,0.0,0.0,0.0,0.0,0.0,0.0,0.0,0.0,0.0,0.0,0.0,0.0,0.0,0.0,0.0,0.0,0.0,0.0,0.0,0.0,0.0,0.0,0.0,0.0,0.0,0.0,0.0,0.0,0.7258,0.0,0.0,0.0,0.0,0.0,0.0,0.815,0.8136,0.836,0.8523,0.8618,0.8618,0.8679,0.872,0.872,0.872,0.872,0.872,0.872,0.8682,0.8604,0.8533,0.8462,0.8381,0.8163,0.794,0.7709,0.0,0.0,0.0,0.0,0.0,0.0,0.0,0.6614,0.0,0.0,0.0,0.1863,0.0551,0.0,0.0,0.0,0.0,0.0,0.0,0.0,0.0,0.0,0.0,0.0,0.0,0.0,0.0,0.0,0.0,0.0,0.0,0.0,0.0,0.0,0.0,0.0,0.0,0.0,0.0,0.0,0.0,0.0,0.0,0.0,0.0,0.0,0.0,0.0,0.0,0.0,0.0,0.0,0.0,0.0,0.0,0.0,0.0,0.0,0.0,0.0,0.0,0.0,0.0,0.0,0.0,0.0,0.0,0.0,0.0,0.0,0.0,0.0,0.0,0.0,0.0,0.0,0.0,0.0,0.0,0.0,0.0,0.0,0.0,0.0,0.0,0.0,0.0,0.0,0.7506,0.7584,0.0,0.0,0.7807,0.7974,0.8313,0.8459,0.8584,0.8737,0.8807,0.8885,0.8885,0.8885,0.8885,0.8885,0.8885,0.8885,0.8885,0.8885,0.8828,0.8764,0.8726,0.8655,0.8533,0.8387,0.818,0.0,0.0,0.0,0.0,0.0,0.0,0.0,0.0,0.0,0.0,0.0,0.3919,0.3251,0.1253,0.0252,0.0,0.0,0.0,0.0,0.0,0.0,0.0,0.0,0.0,0.0,0.0,0.0,0.0,0.0,0.0,0.0,0.0,0.0,0.0,0.0,0.0,0.0,0.0,0.0,0.0,0.0,0.0,0.0,0.0,0.0,0.0,0.0,0.0,0.0,0.0,0.0,0.0,0.0,0.0,0.0,0.0,0.0,0.0,0.0,0.0,0.0,0.0,0.0,0.0,0.0,0.0,0.0,0.0,0.0,0.0,0.0,0.0,0.0,0.0,0.0,0.0,0.0,0.0,0.0,0.0,0.0,0.0,0.0,0.0,0.0,0.0,0.0,0.0,0.0,0.0,0.0,0.0,0.0,0.0,0.8113,0.8601,0.8679,0.8743,0.8841,0.8875,0.8885,0.8885,0.8885,0.8885,0.8885,0.8885,0.8885,0.8885,0.8885,0.8875,0.8861,0.8784,0.8703,0.8689,0.854,0.8384,0.0,0.0,0.7641,0.0,0.0,0.0,0.0,0.0,0.0,0.0,0.5703,0.429,0.2159,0.1911,0.1109,0.0,0.0,0.0,0.0,0.0,0.0,0.0,0.0,0.0,0.0,0.0,0.0,0.0,0.0,0.0,0.0,0.0,0.0,0.0,0.0,0.0,0.0,0.0,0.0,0.0,0.0,0.0,0.0,0.0,0.0,0.0,0.0,0.0,0.0,0.0,0.0,0.0,0.0,0.0,0.0,0.0,0.0,0.0,0.0,0.0,0.0,0.0,0.0,0.0,0.0,0.0,0.0,0.0,0.0,0.0,0.0,0.0,0.0,0.0,0.0,0.0,0.0,0.0,0.0,0.0,0.0,0.0,0.0,0.0,0.0,0.0,0.0,0.0,0.0,0.0,0.0,0.0,0.0,0.0,0.0,0.0,0.8862,0.8998,0.9059,0.8991,0.8971,0.9059,0.9066,0.9066,0.9066,0.9066,0.9032,0.8888,0.8885,0.8885,0.8885,0.8824,0.8849,0.8849,0.8699,0.8547,0.0,0.0,0.0,0.0,0.0,0.0,0.0,0.0,0.741,0.6937,0.6227,0.4887,0.3115,0.2314,0.1217,0.0,0.0,0.0,0.0,0.0,0.0,0.0,0.0,0.0,0.0,0.0,0.0,0.0,0.0,0.0,0.0,0.0,0.0,0.0,0.0,0.0,0.0,0.0,0.0,0.0,0.0,0.0,0.0,0.0,0.0,0.0,0.0,0.0,0.0,0.0,0.0,0.0,0.0,0.0,0.0,0.0,0.0,0.0,0.0,0.0,0.0,0.0,0.0,0.0,0.0,0.0,0.0,0.0,0.0,0.0,0.0,0.0,0.0,0.0,0.0,0.0,0.0,0.0,0.0,0.0,0.0,0.0,0.0,0.0,0.0,0.0,0.0,0.0,0.0,0.8438,0.0,0.8564,0.0,0.8706,0.8791,0.8835,0.9055,0.9275,0.9275,0.9133,0.9106,0.9265,0.9275,0.9275,0.9275,0.9275,0.9178,0.9076,0.9028,0.9001,0.9001,0.8905,0.0,0.8885,0.8832,0.8723,0.8615,0.8316,0.0,0.0,0.0,0.0,0.0,0.7946,0.797,0.7965,0.7107,0.5971,0.4593,0.3217,0.1856,0.0575,0.0157,0.0,0.0,0.0,0.0,0.0,0.0,0.0,0.0,0.0,0.0,0.0,0.0,0.0,0.0,0.0,0.0,0.0,0.0,0.0,0.0,0.0,0.0,0.0,0.0,0.0,0.0,0.0,0.0,0.0,0.0,0.0,0.0,0.0,0.0,0.0,0.0,0.0,0.0,0.0,0.0,0.0,0.0,0.0,0.0,0.0,0.0,0.0,0.0,0.0,0.0,0.0,0.0,0.0,0.0,0.0,0.0,0.0,0.0,0.0,0.0,0.0,0.0,0.0,0.0,0.0,0.0,0.0,0.0,0.0,0.0,0.0,0.0,0.8844,0.8811,0.8757,0.8851,0.8878,0.8984,0.9183,0.9337,0.9378,0.9378,0.9378,0.9374,0.9378,0.9378,0.9378,0.9378,0.9378,0.9378,0.9374,0.9292,0.9207,0.0,0.0,0.8885,0.8885,0.8881,0.8878,0.8878,0.0,0.0,0.831,0.0,0.7974,0.8316,0.8316,0.8343,0.8472,0.8476,0.7682,0.6355,0.4769,0.3395,0.202,0.0533,0.0,0.0,0.0,0.0,0.0,0.0,0.0,0.0,0.0,0.0,0.0,0.0,0.0,0.0,0.0,0.0,0.0,0.0,0.0,0.0,0.0,0.0,0.0,0.0,0.0,0.0,0.0,0.0,0.0,0.0,0.0,0.0,0.0,0.0,0.0,0.0,0.0,0.0,0.0,0.0,0.0,0.0,0.0,0.0,0.0,0.0,0.0,0.0,0.0,0.0,0.0,0.0,0.0,0.0,0.0,0.0,0.0,0.0,0.0,0.0,0.0,0.0,0.0,0.0,0.0,0.0,0.0,0.0,0.0,0.0,0.0,0.0,0.9208,0.9201,0.9184,0.9232,0.9239,0.9256,0.9303,0.9439,0.9537,0.9537,0.9622,0.968,0.968,0.9595,0.9537,0.0,0.9537,0.9493,0.0,0.9337,0.932,0.9214,0.9166,0.9039,0.8885,0.8885,0.8885,0.8885,0.0,0.0,0.0,0.8364,0.8377,0.8567,0.8462,0.8438,0.8482,0.8482,0.7737,0.6361,0.4825,0.3422,0.2057,0.0543,0.0,0.0,0.0,0.0,0.0,0.0,0.0,0.0,0.0,0.0,0.0,0.0,0.0,0.0,0.0,0.0,0.0,0.0,0.0,0.0,0.0,0.0,0.0,0.0,0.0,0.0,0.0,0.0,0.0,0.0,0.0,0.0,0.0,0.0,0.0,0.0,0.0,0.0,0.0,0.0,0.0,0.0,0.0,0.0,0.0,0.0,0.0,0.0,0.0,0.0,0.0,0.0,0.0,0.0,0.0,0.0,0.0,0.0,0.0,0.0,0.0,0.0,0.0,0.0,0.0,0.0,0.0,0.0,0.0,0.0,0.0,0.0,0.9361,0.9381,0.9398,0.9456,0.9466,0.9486,0.9537,0.9629,0.969,0.969,0.9768,0.9822,0.9822,0.9741,0.0,0.969,0.969,0.9649,0.9551,0.9496,0.9425,0.9327,0.9326,0.9171,0.9022,0.9018,0.0,0.8885,0.8842,0.8798,0.8794,0.8699,0.8706,0.8791,0.8696,0.8655,0.8655,0.8655,0.8163,0.7246,0.5732,0.4303,0.2918,0.1378,0.05,0.0,0.0,0.0,0.0,0.0,0.0,0.0,0.0,0.0,0.0,0.0,0.0,0.0,0.0,0.0,0.0,0.0,0.0,0.0,0.0,0.0,0.0,0.0,0.0,0.0,0.0,0.0,0.0,0.0,0.0,0.0,0.0,0.0,0.0,0.0,0.0,0.0,0.0,0.0,0.0,0.0,0.0,0.0,0.0,0.0,0.0,0.0,0.0,0.0,0.0,0.0,0.0,0.0,0.0,0.0,0.0,0.0,0.0,0.0,0.0,0.0,0.0,0.0,0.0,0.0,0.0,0.0,0.0,0.0,0.0,0.0,0.9412,0.9412,0.9456,0.9598,0.9625,0.9669,0.9802,0.9822,0.9822,0.9822,0.9822,0.9822,0.9822,0.9822,0.9822,0.9822,0.0,0.0,0.9822,0.9696,0.9618,0.9608,0.9473,0.9323,0.9228,0.9214,0.9083,0.8885,0.8885,0.8885,0.8885,0.8885,0.8885,0.8885,0.8885,0.8885,0.8885,0.8885,0.8885,0.8771,0.7315,0.5864,0.447,0.285,0.1343,0.0112,0.0056,0.0,0.0,0.0,0.0,0.0,0.0,0.0,0.0,0.0,0.0,0.0,0.0,0.0,0.0,0.0,0.0,0.0,0.0,0.0,0.0,0.0,0.0,0.0,0.0,0.0,0.0,0.0,0.0,0.0,0.0,0.0,0.0,0.0,0.0,0.0,0.0,0.0,0.0,0.0,0.0,0.0,0.0,0.0,0.0,0.0,0.0,0.0,0.0,0.0,0.0,0.0,0.0,0.0,0.0,0.0,0.0,0.0,0.0,0.0,0.0,0.0,0.0,0.0,0.0,0.0,0.0,0.0,0.0,0.0,0.0,0.0,0.9727,0.9764,0.9771,0.9781,0.9815,0.9822,0.9822,0.9822,0.9822,0.9822,0.9822,0.9822,0.9822,0.9822,0.9822,0.9822,0.9822,0.9788,0.9724,0.9615,0.9574,0.9483,0.933,0.9268,0.9083,0.8885,0.8885,0.8885,0.8885,0.8885,0.8885,0.8885,0.8885,0.8885,0.8885,0.8885,0.8885,0.8771,0.7315,0.6478,0.5864,0.324,0.1956,0.151,0.0392,0.0,0.0,0.0,0.0,0.0,0.0,0.0,0.0,0.0,0.0,0.0,0.0,0.0,0.0,0.0,0.0,0.0,0.0,0.0,0.0,0.0,0.0,0.0,0.0,0.0,0.0,0.0,0.0,0.0,0.0,0.0,0.0,0.0,0.0,0.0,0.0,0.0,0.0,0.0,0.0,0.0,0.0,0.0,0.0,0.0,0.0,0.0,0.0,0.0,0.0,0.0,0.0,0.0,0.0,0.0,0.0,0.0,0.0,0.0,0.0,0.0,0.0,0.0,0.0,0.0,0.0,0.0,0.0,0.0,0.9822,0.9822,0.9822,0.9822,0.9822,0.9822,0.9822,0.9822,0.9822,0.9822,0.9822,0.9822,0.9822,0.9822,0.9822,0.9822,0.9822,0.9822,0.9822,0.9822,0.9788,0.971,0.9707,0.9635,0.949,0.9405,0.9256,0.9035,0.9035,0.9001,0.8885,0.8885,0.8885,0.8885,0.8885,0.8885,0.8885,0.8885,0.8885,0.8826,0.8042,0.7315,0.6533,0.4856,0.3406,0.2068,0.1287,0.056,0.0,0.0,0.0,0.0,0.0,0.0,0.0,0.0,0.0,0.0,0.0,0.0,0.0,0.0,0.0,0.0,0.0,0.0,0.0,0.0,0.0,0.0,0.0,0.0,0.0,0.0,0.0,0.0,0.0,0.0,0.0,0.0,0.0,0.0,0.0,0.0,0.0,0.0,0.0,0.0,0.0,0.0,0.0,0.0,0.0,0.0,0.0,0.0,0.0,0.0,0.0,0.0,0.0,0.0,0.0,0.0,0.0,0.0,0.0,0.0,0.0,0.0,0.0,0.0,0.0,0.0,0.0,0.0,0.9822,0.9822,0.9822,0.9822,0.9822,0.9822,0.9822,0.9822,0.9822,0.9822,0.9822,0.9822,0.9822,0.9822,0.9822,0.9822,0.9822,0.9822,0.9822,0.9822,0.9822,0.9822,0.9822,0.9764,0.9646,0.9618,0.9469,0.9245,0.9245,0.9127,0.8949,0.8981,0.8971,0.8971,0.8892,0.8885,0.8885,0.8885,0.8885,0.8885,0.8885,0.8156,0.7035,0.6813,0.5137,0.2793,0.2347,0.1399,0.028,0.0056,0.0,0.0,0.0,0.0,0.0,0.0,0.0,0.0,0.0,0.0,0.0,0.0,0.0,0.0,0.0,0.0,0.0,0.0,0.0,0.0,0.0,0.0,0.0,0.0,0.0,0.0,0.0,0.0,0.0,0.0,0.0,0.0,0.0,0.0,0.0,0.0,0.0,0.0,0.0,0.0,0.0,0.0,0.0,0.0,0.0,0.0,0.0,0.0,0.0,0.0,0.0,0.0,0.0,0.0,0.0,0.0,0.0,0.0,0.0,0.0,0.0,0.0,0.0,0.0,0.0,0.0,0.9822,0.9822,0.9822,0.9822,0.9822,0.9822,0.9822,0.9822,0.9822,0.9822,0.9822,0.9822,0.9822,0.9822,0.9822,0.9822,0.9822,0.9822,0.9822,0.9822,0.9822,0.9822,0.9822,0.9812,0.9788,0.9673,0.9523,0.9347,0.9347,0.9334,0.931,0.9181,0.9176,0.9169,0.8991,0.8885,0.8885,0.8885,0.8885,0.8885,0.8885,0.8771,0.8432,0.7149,0.6422,0.5695,0.3128,0.2068,0.1677,0.0392,0.0,0.0,0.0,0.0,0.0,0.0,0.0,0.0,0.0,0.0,0.0,0.0,0.0,0.0,0.0,0.0,0.0,0.0,0.0,0.0,0.0,0.0,0.0,0.0,0.0,0.0,0.0,0.0,0.0,0.0,0.0,0.0,0.0,0.0,0.0,0.0,0.0,0.0,0.0,0.0,0.0,0.0,0.0,0.0,0.0,0.0,0.0,0.0,0.0,0.0,0.0,0.0,0.0,0.0,0.0,0.0,0.0,0.0,0.0,0.0,0.0,0.0,0.0,0.0,0.0,0.0,0.9822,0.9822,0.9822,0.9822,0.9822,0.9822,0.9822,0.9822,0.9822,0.9822,0.9822,0.9822,0.9822,0.9822,0.9822,0.9822,0.9822,0.9822,0.9822,0.9822,0.9822,0.9822,0.9822,0.9822,0.9822,0.9758,0.9652,0.9503,0.9503,0.9462,0.9381,0.931,0.9333,0.933,0.9205,0.9178,0.9178,0.9178,0.913,0.9055,0.9055,0.9008,0.8826,0.8156,0.7371,0.6533,0.5137,0.4132,0.3353,0.2628,0.1846,0.1175,0.1175,0.0616,0.0,0.0,0.0,0.0,0.0,0.0,0.0,0.0,0.0,0.0,0.0,0.0,0.0,0.0,0.0,0.0,0.0,0.0,0.0,0.0,0.0,0.0,0.0,0.0,0.0,0.0,0.0,0.0,0.0,0.0,0.0,0.0,0.0,0.0,0.0,0.0,0.0,0.0,0.0,0.0,0.0,0.0,0.0,0.0,0.0,0.0,0.0,0.0,0.0,0.0,0.0,0.0,0.0,0.0,0.0,0.0,0.0,0.0,0.0,0.0,0.0,0.0,0.9822,0.9822,0.9822,0.9822,0.9822,0.9822,0.9822,0.9822,0.9822,0.9822,0.9822,0.9822,0.9822,0.9822,0.9822,0.9822,0.9822,0.9822,0.9822,0.9822,0.9822,0.9822,0.9822,0.9822,0.9822,0.9822,0.9768,0.9659,0.9659,0.9598,0.9483,0.9449,0.9435,0.9432,0.9398,0.9381,0.9381,0.9381,0.9313,0.9262,0.9262,0.914,0.9042,0.9042,0.8304,0.7287,0.6947,0.6046,0.503,0.469,0.3787,0.2769,0.2374,0.1472,0.051,0.0113,0.0,0.0,0.0,0.0,0.0,0.0,0.0,0.0,0.0,0.0,0.0,0.0,0.0,0.0,0.0,0.0,0.0,0.0,0.0,0.0,0.0,0.0,0.0,0.0,0.0,0.0,0.0,0.0,0.0,0.0,0.0,0.0,0.0,0.0,0.0,0.0,0.0,0.0,0.0,0.0,0.0,0.0,0.0,0.0,0.0,0.0,0.0,0.0,0.0,0.0,0.0,0.0,0.0,0.0,0.0,0.0,0.0,0.0,0.0,0.0,0.9822,0.9822,0.9822,0.9822,0.9822,0.9822,0.9822,0.9822,0.9822,0.9822,0.9822,0.9822,0.9822,0.9822,0.9822,0.9822,0.9822,0.9822,0.9822,0.9822,0.9822,0.9822,0.9822,0.9822,0.9822,0.9822,0.9815,0.9805,0.9805,0.9798,0.9785,0.9652,0.9591,0.9588,0.9445,0.9381,0.9381,0.9381,0.9374,0.9364,0.9364,0.9357,0.9351,0.9351,0.9289,0.8997,0.7591,0.7006,0.6715,0.5315,0.4791,0.4441,0.2925,0.24,0.1991,0.0469,0.0,0.0,0.0,0.0,0.0,0.0,0.0,0.0,0.0,0.0,0.0,0.0,0.0,0.0,0.0,0.0,0.0,0.0,0.0,0.0,0.0,0.0,0.0,0.0,0.0,0.0,0.0,0.0,0.0,0.0,0.0,0.0,0.0,0.0,0.0,0.0,0.0,0.0,0.0,0.0,0.0,0.0,0.0,0.0,0.0,0.0,0.0,0.0,0.0,0.0,0.0,0.0,0.0,0.0,0.0,0.0,0.0,0.0,0.0,0.0,1.0107,1.0107,1.0107,1.0107,1.0107,1.0107,1.0107,1.0107,1.0073,0.9913,0.9903,0.9866,0.9832,0.9822,0.9822,0.9822,0.9822,0.9822,0.9822,0.9822,0.9822,0.9822,0.9822,0.9822,0.9822,0.9822,0.9822,0.9822,0.9822,0.9822,0.9819,0.9768,0.9741,0.9737,0.968,0.9652,0.9652,0.9652,0.9602,0.9523,0.9523,0.9466,0.9381,0.9381,0.9381,0.9323,0.8733,0.85,0.8439,0.7852,0.7031,0.6152,0.5568,0.4048,0.2177,0.0477,0.0,0.0,0.0,0.0,0.0,0.0,0.0,0.0,0.0,0.0,0.0,0.0,0.0,0.0,0.0,0.0,0.0,0.0,0.0,0.0,0.0,0.0,0.0,0.0,0.0,0.0,0.0,0.0,0.0,0.0,0.0,0.0,0.0,0.0,0.0,0.0,0.0,0.0,0.0,0.0,0.0,0.0,0.0,0.0,0.0,0.0,0.0,0.0,0.0,0.0,0.0,0.0,0.0,0.0,0.0,0.0,0.0,0.0,0.0,0.0,1.028,1.028,1.028,1.028,1.028,1.028,1.028,1.028,1.0243,1.0137,1.0058,1.0083,0.9978,0.992,0.9893,0.9893,0.9849,0.9822,0.9822,0.9822,0.9822,0.9822,0.9822,0.9822,0.9822,0.9822,0.9822,0.9822,0.9822,0.9822,0.9822,0.9822,0.9822,0.9822,0.9822,0.9822,0.9822,0.9822,0.9764,0.9676,0.9676,0.9612,0.952,0.952,0.952,0.952,0.952,0.952,0.952,0.952,0.8803,0.785,0.7372,0.5353,0.3045,0.1873,0.1516,0.1519,0.1536,0.1153,0.0657,0.012,0.0,0.0,0.0,0.0,0.0,0.0,0.0,0.0,0.0,0.0,0.0,0.0,0.0,0.0,0.0,0.0,0.0,0.0,0.0,0.0,0.0,0.0,0.0,0.0,0.0,0.0,0.0,0.0,0.0,0.0,0.0,0.0,0.0,0.0,0.0,0.0,0.0,0.0,0.0,0.0,0.0,0.0,0.0,0.0,0.0,0.0,0.0,0.0,0.0,0.0,0.0,0.0,0.0,0.0,1.0283,1.0283,1.0283,1.0283,1.0283,1.0283,1.0283,1.0283,1.0283,1.0283,1.0283,1.0283,1.028,1.0144,0.9987,0.9987,0.9849,0.9822,0.9822,0.9822,0.9822,0.9822,0.9822,0.9822,0.9822,0.9822,0.9822,0.9822,0.9822,0.9822,0.9822,0.9822,0.9822,0.9822,0.9822,0.9822,0.9822,0.9822,0.9822,0.9822,0.9822,0.9822,0.9822,0.9822,0.9822,0.9822,0.9822,0.9822,0.9822,0.9822,0.9822,0.9511,0.7914,0.6261,0.4916,0.4916,0.4916,0.4916,0.4916,0.3752,0.2094,0.0432,0.0,0.0,0.0,0.0,0.0,0.0,0.0,0.0,0.0,0.0,0.0,0.0,0.0,0.0,0.0,0.0,0.0,0.0,0.0,0.0,0.0,0.0,0.0,0.0,0.0,0.0,0.0,0.0,0.0,0.0,0.0,0.0,0.0,0.0,0.0,0.0,0.0,0.0,0.0,0.0,0.0,0.0,0.0,0.0,0.0,0.0,0.0,0.0,0.0,0.0,0.0,0.0,0.0,0.0,1.0588,1.0588,1.0588,1.0588,1.0588,1.0588,1.0588,1.0588,1.0551,1.0443,1.0429,1.0392,1.029,1.0239,1.0212,1.0212,1.007,0.9872,0.9829,0.9822,0.9822,0.9822,0.9822,0.9822,0.9822,0.9822,0.9822,0.9822,0.9822,0.9822,0.9822,0.9822,0.9822,0.9822,0.9822,0.9822,0.9822,0.9822,0.9822,0.9822,0.9822,0.9822,0.9822,0.9822,0.9822,0.9822,0.9822,0.9822,0.9822,0.9822,0.9822,0.9511,0.7914,0.7055,0.6444,0.5223,0.4916,0.4916,0.4916,0.4548,0.3813,0.2155,0.0863,0.0,0.0,0.0,0.0,0.0,0.0,0.0,0.0,0.0,0.0,0.0,0.0,0.0,0.0,0.0,0.0,0.0,0.0,0.0,0.0,0.0,0.0,0.0,0.0,0.0,0.0,0.0,0.0,0.0,0.0,0.0,0.0,0.0,0.0,0.0,0.0,0.0,0.0,0.0,0.0,0.0,0.0,0.0,0.0,0.0,0.0,0.0,0.0,0.0,0.0,0.0,0.0,0.0,1.0721,1.0721,1.0721,1.0721,1.0721,1.0721,1.0721,1.0721,1.0687,1.0595,1.0582,1.0551,1.0463,1.0399,1.0365,1.0365,1.0226,1.01,1.0008,1.0002,0.9975,0.9852,0.9849,0.9883,0.9822,0.9822,0.9822,0.9822,0.9822,0.9822,0.9822,0.9822,0.9822,0.9822,0.9822,0.9822,0.9822,0.9822,0.9822,0.9822,0.9822,0.9822,0.9822,0.9822,0.9822,0.9822,0.9822,0.9822,0.9822,0.9822,0.9822,0.9636,0.865,0.8343,0.8158,0.7121,0.6813,0.6813,0.6813,0.6385,0.5649,0.4668,0.3198,0.1787,0.111,0.0986,0.0802,0.0123,0.0,0.0,0.0,0.0,0.0,0.0,0.0,0.0,0.0,0.0,0.0,0.0,0.0,0.0,0.0,0.0,0.0,0.0,0.0,0.0,0.0,0.0,0.0,0.0,0.0,0.0,0.0,0.0,0.0,0.0,0.0,0.0,0.0,0.0,0.0,0.0,0.0,0.0,0.0,0.0,0.0,0.0,0.0,0.0,0.0,0.0,0.0,0.0,1.0721,1.0721,1.0721,1.0721,1.0721,1.0721,1.0721,1.0721,1.0721,1.0721,1.0721,1.0721,1.0721,1.0595,1.0514,1.0514,1.0382,1.0293,1.028,1.028,1.0219,1.0014,1.0007,0.9943,0.9866,0.9836,0.9822,0.9822,0.9822,0.9822,0.9822,0.9822,0.9822,0.9822,0.9822,0.9822,0.9822,0.9822,0.9822,0.9822,0.9822,0.9822,0.9822,0.9822,0.9822,0.9822,0.9822,0.9822,0.9822,0.9822,0.9822,0.9822,0.9822,0.9822,0.9822,0.9822,0.9822,0.9822,0.9822,0.8711,0.7604,0.7604,0.6444,0.4855,0.3139,0.2708,0.2217,0.0555,0.0247,0.0185,0.0,0.0,0.0,0.0,0.0,0.0,0.0,0.0,0.0,0.0,0.0,0.0,0.0,0.0,0.0,0.0,0.0,0.0,0.0,0.0,0.0,0.0,0.0,0.0,0.0,0.0,0.0,0.0,0.0,0.0,0.0,0.0,0.0,0.0,0.0,0.0,0.0,0.0,0.0,0.0,0.0,0.0,0.0,0.0,0.0,0.0,1.0721,1.0721,1.0721,1.0721,1.0721,1.0721,1.0721,1.0721,1.0721,1.0721,1.0721,1.0721,1.0721,1.069,1.067,1.067,1.0531,1.0399,1.0287,1.028,1.0266,1.0232,1.0229,1.0215,1.0181,0.9944,0.9822,0.9822,0.9822,0.9822,0.9822,0.9822,0.9822,0.9822,0.9822,0.9822,0.9822,0.9822,0.9822,0.9822,0.9822,0.9822,0.9822,0.9822,0.9822,0.9822,0.9822,0.9822,0.9822,0.9822,0.9822,0.9822,0.9822,0.9822,0.9822,0.9822,0.9822,0.9822,0.9822,0.9572,0.9265,0.9265,0.9022,0.7978,0.5039,0.4364,0.3936,0.2278,0.1971,0.1541,0.0247,0.0,0.0,0.0,0.0,0.0,0.0,0.0,0.0,0.0,0.0,0.0,0.0,0.0,0.0,0.0,0.0,0.0,0.0,0.0,0.0,0.0,0.0,0.0,0.0,0.0,0.0,0.0,0.0,0.0,0.0,0.0,0.0,0.0,0.0,0.0,0.0,0.0,0.0,0.0,0.0,0.0,0.0,0.0,0.0,0.0,1.0721,1.0721,1.0721,1.0721,1.0721,1.0721,1.0721,1.0721,1.0721,1.0721,1.0721,1.0721,1.0721,1.0721,1.0721,1.0721,1.0646,1.0568,1.0493,1.049,1.046,1.0385,1.0382,1.0348,1.0283,1.0124,1.0039,1.0039,1.0039,1.0039,1.0039,0.9964,0.9869,0.9866,0.9852,0.9822,0.9822,0.9822,0.9822,0.9822,0.9822,0.9822,0.9822,0.9822,0.9822,0.9822,0.9822,0.9822,0.9822,0.9822,0.9822,0.9822,0.9822,0.9822,0.9822,0.9822,0.9822,0.9822,0.9822,0.9822,0.9822,0.9822,0.9822,0.9143,0.6628,0.6077,0.5649,0.3996,0.3016,0.2462,0.234,0.1048,0.0247,0.1048,0.0494,0.0,0.0,0.0,0.0,0.0,0.0,0.0,0.0,0.0,0.0,0.0,0.0,0.0,0.0,0.0,0.0,0.0,0.0,0.0,0.0,0.0,0.0,0.0,0.0,0.0,0.0,0.0,0.0,0.0,0.0,0.0,0.0,0.0,0.0,0.0,0.0,0.0,0.0,0.0,0.0,0.0,1.0721,1.0721,1.0721,1.0721,1.0721,1.0721,1.0721,1.0721,1.0721,1.0721,1.0721,1.0721,1.0721,1.0721,1.0721,1.0721,1.0721,1.0721,1.0721,1.0721,1.0663,1.0534,1.0531,1.0477,1.0358,1.0354,1.0331,1.028,1.028,1.028,1.0276,1.0148,1.0027,1.0021,0.9958,0.99,0.99,0.99,0.99,0.99,0.99,0.9883,0.9859,0.9859,0.9842,0.9822,0.9822,0.9822,0.9822,0.9822,0.9822,0.9822,0.9822,0.9822,0.9822,0.9822,0.9822,0.9822,0.9822,0.9822,0.9822,0.9822,0.9822,0.9451,0.8097,0.7789,0.7362,0.5649,0.4242,0.3628,0.4732,0.2647,0.1295,0.2708,0.1541,0.0432,0.0432,0.0185,0.0,0.0,0.0,0.0,0.0,0.0,0.0,0.0,0.0,0.0,0.0,0.0,0.0,0.0,0.0,0.0,0.0,0.0,0.0,0.0,0.0,0.0,0.0,0.0,0.0,0.0,0.0,0.0,0.0,0.0,0.0,0.0,0.0,0.0,0.0,0.0,0.0,0.0,1.0721,1.0721,1.0721,1.0721,1.0721,1.0721,1.0721,1.0721,1.0721,1.0721,1.0721,1.0721,1.0721,1.0721,1.0721,1.0721,1.0721,1.0721,1.0721,1.0721,1.0711,1.069,1.0687,1.068,1.066,1.066,1.0534,1.028,1.028,1.028,1.028,1.0259,1.0249,1.0249,1.0229,1.0219,1.0219,1.0219,1.0219,1.0219,1.0219,1.0137,0.9957,0.9957,0.9876,0.9822,0.9822,0.9822,0.9822,0.9822,0.9822,0.9822,0.9822,0.9822,0.9822,0.9822,0.9822,0.9822,0.9822,0.9822,0.9822,0.9822,0.9822,0.9758,0.9511,0.9451,0.9019,0.7423,0.6872,0.6383,0.51,0.4548,0.4303,0.4548,0.3199,0.2155,0.2155,0.0925,0.0,0.0,0.0,0.0,0.0,0.0,0.0,0.0,0.0,0.0,0.0,0.0,0.0,0.0,0.0,0.0,0.0,0.0,0.0,0.0,0.0,0.0,0.0,0.0,0.0,0.0,0.0,0.0,0.0,0.0,0.0,0.0,0.0,0.0,0.0,0.0,0.0,0.0,1.0721,1.0721,1.0721,1.0721,1.0721,1.0721,1.0721,1.0721,1.0721,1.0721,1.0721,1.0721,1.0721,1.0721,1.0721,1.0721,1.0721,1.0721,1.0721,1.0721,1.0721,1.0721,1.0721,1.0721,1.0721,1.0721,1.0656,1.0527,1.0527,1.0527,1.0524,1.0439,1.0399,1.0395,1.0317,1.028,1.028,1.028,1.028,1.028,1.028,1.0239,1.0178,1.0178,1.0137,1.0066,0.9978,0.9886,0.9872,0.9849,0.9822,0.9822,0.9822,0.9822,0.9822,0.9822,0.9822,0.9822,0.9822,0.9822,0.9822,0.9822,0.9822,0.9822,0.9822,0.9822,0.9576,0.8897,0.8036,0.7421,0.7609,0.6141,0.5223,0.6139,0.4914,0.3506,0.2647,0.2647,0.2708,0.2708,0.1971,0.1725,0.2647,0.1048,0.037,0.1356,0.0555,0.0,0.0,0.0,0.0,0.0,0.0,0.0,0.0,0.0,0.0,0.0,0.0,0.0,0.0,0.0,0.0,0.0,0.0,0.0,0.0,0.0,0.0,0.0,0.0,0.0,0.0,0.0,0.0,0.0]}]]